GFSSW_850_temp_003.txt.gz
Temp
12 12 12 12 12 13 14 14 14 15 15 15 16 16 16 17 17 17 18 19 19 20 20 20 20 20 21 21 21 22 19 19 20 22 21 24 22 24 24 24 23 23 21 19 19
12 12 12 12 13 13 14 14 15 15 15 16 16 16 17 17 17 18 19 19 20 20 20 21 21 21 21 22 22 22 18 21 22 22 21 24 23 24 23 23 22 20 20 19 19
12 12 12 12 13 14 14 14 15 15 15 16 16 16 16 17 18 20 20 20 21 21 21 21 21 22 22 23 23 24 20 22 23 24 25 23 24 24 22 20 23 19 19 19 19
12 12 12 12 13 14 14 15 15 15 15 16 16 16 17 17 18 20 21 21 21 22 22 22 23 23 22 21 25 22 24 24 24 25 24 23 24 24 24 23 23 22 20 20 19
12 12 12 13 13 14 14 14 15 15 16 16 16 16 16 18 19 21 21 22 22 22 23 23 23 24 21 22 25 22 22 24 24 24 24 24 24 23 24 24 23 23 21 20 20
12 12 13 13 14 14 14 15 16 16 16 16 16 17 17 17 21 21 21 22 23 23 23 24 24 25 25 24 23 25 24 23 24 24 24 23 23 24 24 24 24 23 21 21 21
13 13 13 13 14 14 15 16 16 16 16 16 16 17 17 20 21 21 22 22 23 23 23 24 24 24 25 23 25 25 22 21 23 24 22 24 21 21 23 24 23 23 22 22 21
13 13 13 14 15 15 16 16 16 16 16 16 17 17 19 20 21 22 22 22 23 23 23 24 24 24 25 25 25 23 21 19 21 22 23 22 19 21 24 24 23 23 23 23 22
13 13 14 15 15 16 16 16 16 16 17 17 17 18 19 21 21 21 22 22 23 23 23 24 24 24 25 20 20 21 18 20 21 23 22 21 22 22 24 24 24 23 23 23 23
13 14 14 15 15 16 16 16 16 16 17 17 18 17 20 21 21 22 22 22 23 23 23 24 24 20 18 18 19 20 20 20 19 22 23 22 22 21 24 24 24 24 22 20 20
14 14 15 15 16 16 16 16 17 18 17 19 20 20 22 22 21 22 22 22 23 23 20 23 18 18 21 22 22 22 21 20 20 23 23 22 19 20 21 21 20 17 17 17 17
14 14 15 16 16 16 16 17 17 18 19 20 21 21 22 22 22 22 22 22 23 20 21 20 18 21 22 23 22 23 21 19 21 23 22 21 20 19 20 19 19 18 17 17 17
15 15 16 16 16 17 17 17 17 19 19 21 21 21 21 22 22 22 22 22 22 21 19 18 21 22 22 19 20 20 19 19 20 20 21 21 19 18 19 19 19 19 18 18 17
15 16 16 16 17 17 17 17 18 19 15 20 21 21 21 22 21 22 22 22 23 20 19 20 22 22 21 19 19 19 19 20 20 19 17 19 16 18 18 17 17 17 17 16 15
15 15 16 16 16 17 17 18 19 20 11 20 21 21 21 21 22 21 22 22 20 22 20 20 19 19 19 19 20 19 20 19 20 18 19 18 16 18 18 16 16 17 18 17 16
15 16 16 16 16 17 18 19 19 11 14 20 21 21 21 22 22 22 22 22 23 20 19 20 21 19 19 20 21 20 19 19 19 17 13 18 17 16 15 16 16 17 17 17 16
16 16 16 16 16 18 18 19 11 11 20 19 20 21 20 21 20 21 20 18 17 18 18 19 19 20 21 19 20 18 17 12 13 10 12 18 17 14 16 17 16 15 16 16 15
15 16 16 16 17 18 18 14 15 19 19 21 21 21 20 21 21 21 19 17 17 17 18 17 14 18 19 18 18 17 17 11 14 10 14 17 16 14 16 17 17 17 17 16 16
15 16 16 17 17 17 17 10 13 18 21 21 21 20 20 21 20 19 17 17 17 16 17 16 17 18 18 19 18 18 14 18 13 12 11 14 16 16 16 16 17 17 17 16 15
15 16 16 17 17 17 12 12 19 21 22 21 19 20 18 19 19 19 17 17 18 18 18 18 16 18 19 19 19 18 19 13 11 12 12 14 15 13 15 15 16 16 16 16 15
15 16 16 16 17 17 10 14 20 20 20 20 20 21 19 19 19 18 17 17 17 18 17 15 15 17 19 16 16 16 17 16 15 10 9 8 12 15 14 14 13 15 14 13 13
15 13 16 16 15 15 14 19 20 20 20 20 19 20 19 20 18 17 16 16 17 17 16 16 13 9 16 18 19 18 17 15 8 12 7 6 10 14 13 15 15 14 14 13 12
16 15 15 16 9 7 17 19 20 19 20 20 19 19 19 18 16 15 15 16 16 14 13 14 12 9 13 15 17 18 18 15 11 7 10 6 9 15 15 15 15 13 13 12 11
15 10 15 15 16 16 18 18 18 19 19 20 19 20 18 17 17 15 14 15 15 14 14 14 14 11 9 14 15 16 17 16 12 7 9 8 13 14 12 12 11 11 12 11 10
15 13 16 7 12 15 17 17 17 17 19 19 19 18 17 16 16 14 14 14 15 15 15 13 10 11 13 14 15 16 15 15 15 13 10 11 13 11 10 11 11 10 10 9 8
15 16 17 17 17 17 14 18 17 18 17 18 18 18 16 13 16 14 14 14 14 15 15 10 8 8 11 13 12 12 12 12 14 15 14 15 12 12 12 11 10 9 8 7 7
16 17 18 14 15 13 13 19 18 17 18 18 17 12 10 13 14 15 16 16 14 14 9 6 4 5 8 8 7 8 12 13 15 15 15 12 11 10 9 9 7 7 7 6 6

GFSSW_850_temp_006.txt.gz
Temp
13 13 13 13 13 13 13 14 14 14 15 15 15 15 15 16 15 16 18 20 19 19 19 19 19 19 19 20 20 21 17 17 20 20 22 23 22 23 22 21 21 21 19 19 18
13 13 12 12 13 13 13 14 14 14 15 15 15 15 15 15 17 18 20 19 19 19 19 20 20 19 19 20 21 19 17 19 20 22 21 22 23 23 22 20 18 19 19 18 18
13 12 12 12 13 13 13 14 14 15 15 15 15 15 15 16 17 20 20 20 20 20 20 20 20 20 20 20 21 20 19 21 21 23 23 22 23 23 21 18 19 18 18 18 18
12 12 12 12 12 13 14 14 14 15 15 15 15 15 16 16 16 20 21 21 21 20 20 20 20 19 19 19 22 22 21 23 23 23 22 21 23 22 23 22 21 21 20 19 19
12 12 12 12 12 13 14 14 14 15 15 15 15 15 16 16 19 21 21 21 21 21 21 21 21 21 20 20 22 19 21 23 23 23 23 23 23 22 23 22 21 20 19 19 19
12 12 12 13 13 13 14 14 14 15 15 15 15 16 16 15 20 21 21 21 22 22 22 22 22 23 22 21 21 22 22 23 23 23 23 22 22 24 22 22 20 20 20 20 20
12 12 12 13 13 14 14 15 15 15 15 15 15 16 16 19 21 21 21 21 22 22 23 23 24 23 24 21 23 23 20 21 21 22 22 23 21 21 23 21 20 20 20 20 20
12 12 13 13 14 14 14 15 15 15 15 15 15 16 18 20 20 21 22 22 22 23 23 23 24 24 24 24 23 21 18 18 20 20 22 21 18 20 23 22 20 20 20 20 20
12 13 13 14 14 14 15 15 15 15 15 16 16 16 18 20 21 21 22 22 23 23 23 24 24 23 23 18 17 16 18 18 20 20 21 20 20 19 23 23 23 21 18 19 18
12 13 14 15 15 15 15 15 15 15 16 16 16 16 20 20 21 22 22 22 22 23 23 23 23 17 16 16 17 18 18 17 18 19 20 18 19 19 20 19 17 17 17 16 16
13 14 14 15 15 15 16 15 16 16 16 19 19 19 20 21 21 22 22 22 22 23 20 21 17 17 20 20 20 20 19 17 19 20 21 17 15 15 15 15 15 14 15 15 15
14 14 15 16 16 16 16 17 16 16 17 19 20 19 20 22 21 22 22 22 22 20 20 17 18 20 20 19 19 20 19 18 19 20 20 16 15 15 16 15 15 15 15 15 15
14 15 16 16 16 16 17 17 17 17 17 20 20 21 21 21 21 22 22 22 21 20 18 17 19 21 19 17 18 17 17 19 19 19 17 17 16 15 15 15 15 15 15 15 15
15 15 15 16 16 16 17 17 17 17 13 19 20 21 21 21 21 21 22 21 20 17 18 19 19 19 18 18 18 17 19 19 19 17 16 17 13 16 14 14 14 14 14 15 15
15 16 16 16 16 17 17 17 18 18 11 18 20 21 21 21 21 21 22 22 20 21 18 18 18 17 18 19 19 18 19 19 19 16 17 17 14 15 15 14 13 13 14 15 15
15 15 16 16 16 17 17 18 18 10 13 19 20 20 20 21 21 21 22 21 21 18 17 18 19 19 19 19 20 19 19 16 15 14 12 16 14 14 13 14 14 13 14 15 16
15 15 15 16 17 17 18 18 10 10 18 19 19 19 20 20 20 20 17 16 15 16 17 17 17 18 19 18 17 16 14 11 12 10 11 16 13 14 16 15 14 13 14 15 15
15 15 15 16 17 18 18 13 14 16 18 19 19 18 19 20 17 17 17 15 16 16 15 15 14 17 18 18 18 17 15 10 13 10 13 15 13 13 14 15 15 16 16 15 15
15 15 16 16 17 17 17 9 12 15 19 19 19 18 19 20 18 16 16 15 16 16 16 15 16 18 18 18 18 17 14 15 11 9 10 12 14 15 15 15 16 16 16 14 13
15 15 16 16 17 17 11 10 15 19 19 19 18 18 17 18 18 16 16 16 16 15 16 16 15 17 18 18 17 17 17 13 9 12 11 12 14 13 14 13 13 11 12 13 12
15 16 16 16 17 17 9 11 18 19 20 19 19 18 18 17 17 16 15 15 15 16 15 15 14 15 16 15 16 15 15 13 12 8 9 8 11 12 13 12 10 11 12 12 11
15 11 16 16 15 11 12 16 19 19 20 19 18 18 18 17 15 14 14 14 15 15 15 14 11 8 16 17 18 17 16 12 8 12 6 5 10 14 12 12 12 11 11 11 10
15 14 14 15 8 4 13 17 19 19 19 19 18 18 18 16 13 14 14 14 15 13 14 14 10 8 12 13 14 16 16 12 9 6 10 6 8 13 12 12 11 10 9 8 9
15 9 14 14 14 13 15 17 17 18 18 18 18 18 16 16 13 13 13 14 15 14 14 13 11 10 9 13 12 15 15 13 11 6 8 7 12 11 9 9 9 9 8 8 8
15 12 15 6 10 13 15 16 17 17 18 19 18 17 16 15 14 12 13 14 14 14 14 11 10 11 12 12 13 14 14 13 13 11 10 11 11 10 9 8 9 8 8 8 8
15 14 15 14 16 14 12 15 15 17 17 17 17 15 14 12 13 12 12 12 13 14 11 8 7 7 12 10 9 12 11 11 12 13 13 10 9 9 9 9 8 7 7 7 6
15 15 17 10 11 11 10 15 15 16 17 17 13 10 10 12 13 14 14 14 13 12 7 5 3 5 7 5 6 7 12 13 14 11 13 10 8 8 7 7 7 7 7 7 6

GFSSW_850_temp_009.txt.gz
Temp
13 13 13 13 13 12 13 13 13 13 14 14 15 15 15 15 15 16 17 19 19 18 18 18 18 18 18 19 19 20 14 16 19 18 19 22 20 20 20 19 19 19 18 17 16
13 13 13 13 12 12 13 12 13 14 14 14 15 15 15 15 16 17 20 19 19 18 18 19 19 19 18 19 19 18 13 16 19 19 20 22 21 21 20 18 17 18 18 17 17
13 13 13 12 12 12 12 13 13 13 14 14 15 14 15 15 16 20 20 19 19 18 18 18 19 19 19 19 20 18 18 20 21 23 23 22 20 21 18 17 19 18 17 17 17
12 12 12 12 12 12 12 13 13 13 14 14 14 14 15 15 16 20 20 20 19 18 19 18 19 19 18 18 20 19 20 21 21 22 22 20 22 20 21 20 21 21 19 17 17
12 12 12 12 12 12 12 12 13 14 14 14 15 15 15 15 18 20 20 20 20 20 20 19 19 19 19 19 20 20 20 21 22 22 22 22 21 21 21 21 20 20 18 18 18
12 12 12 12 12 12 12 13 13 13 14 14 15 15 15 15 20 20 20 20 20 20 21 19 21 21 21 20 19 21 20 21 22 22 22 21 21 21 20 20 19 19 18 18 18
12 12 12 12 12 13 13 13 13 14 14 14 15 15 16 19 20 20 20 21 21 22 22 21 21 21 21 18 22 21 19 20 21 21 21 22 21 19 21 19 18 19 19 19 19
12 12 12 12 12 13 13 13 14 14 14 15 15 16 17 20 20 21 21 21 22 22 22 22 23 22 22 21 20 19 17 18 19 20 20 20 17 20 20 18 18 18 17 17 17
12 12 12 13 13 13 13 14 14 14 15 15 15 15 18 20 20 21 21 22 22 22 22 23 23 22 22 17 16 15 17 19 20 19 19 19 19 18 18 18 16 16 17 17 17
12 12 13 13 13 14 14 14 15 15 15 15 15 16 20 20 21 21 21 22 23 22 23 23 22 16 15 15 16 18 19 17 18 19 18 19 16 12 16 18 15 15 16 17 17
12 13 14 13 14 14 15 15 15 15 15 18 18 19 20 20 21 21 22 22 22 22 18 19 16 17 18 19 19 20 18 17 16 19 14 13 12 11 13 12 12 12 13 13 14
13 13 14 14 15 15 15 16 16 16 16 19 19 18 19 20 20 21 22 22 21 18 19 16 17 19 17 17 19 18 18 17 18 16 14 13 12 12 13 12 12 12 12 13 13
13 13 14 15 15 15 16 16 16 16 15 19 20 20 21 21 21 21 21 21 20 19 18 17 19 20 18 16 17 16 17 18 17 15 15 15 13 13 14 13 12 12 13 14 14
14 14 15 15 15 16 16 16 16 17 12 17 20 21 21 21 20 21 21 21 19 16 17 17 17 18 17 17 17 17 18 18 16 15 14 15 11 14 13 12 12 12 12 13 13
14 15 16 16 16 17 16 17 17 17 10 17 20 21 21 21 21 20 21 21 19 18 17 17 17 17 17 18 18 18 18 18 18 14 14 15 11 13 12 12 11 11 12 13 15
14 15 16 16 16 17 17 18 17 9 12 18 20 20 20 20 20 20 20 21 19 16 16 17 18 18 18 18 18 18 16 14 13 13 11 16 12 12 11 12 11 12 12 14 14
14 16 16 16 16 17 18 18 9 9 17 17 18 19 19 19 18 17 16 15 16 15 15 16 16 16 18 18 17 15 14 11 12 9 11 14 13 12 13 13 12 12 12 13 13
15 15 16 16 16 17 18 12 14 15 16 18 18 18 18 18 16 16 16 14 15 15 14 14 13 16 17 17 17 16 14 11 13 9 13 13 13 13 13 15 14 14 14 13 13
15 15 16 16 17 17 17 8 11 14 18 18 17 17 18 18 17 15 15 15 15 15 15 14 15 17 17 17 17 17 13 13 9 7 9 10 13 14 13 12 14 14 13 13 12
15 15 16 16 17 17 10 10 14 16 18 18 17 17 17 17 17 15 16 15 15 14 15 15 15 16 17 17 16 16 15 13 8 11 10 11 12 10 12 12 12 11 11 11 11
15 15 16 16 17 17 9 10 15 18 19 19 17 17 17 16 15 15 14 14 14 15 14 14 13 14 15 15 15 14 14 11 10 7 8 7 10 11 11 11 9 8 10 10 10
15 10 15 16 14 8 11 13 17 18 19 18 17 18 16 15 14 14 14 14 13 14 14 13 10 8 15 15 15 16 14 11 7 11 5 4 9 11 10 11 10 9 9 9 8
15 13 14 15 8 3 12 15 17 18 17 18 17 17 16 13 13 13 13 13 14 13 13 13 9 8 11 13 13 16 14 10 8 6 8 5 8 11 11 10 9 8 8 8 8
15 8 13 14 14 12 14 15 16 17 17 18 17 16 15 13 12 12 13 13 14 13 13 12 10 10 9 12 11 14 14 12 10 6 8 7 11 10 8 7 8 8 8 8 8
15 11 13 6 8 11 13 15 16 16 17 18 17 16 15 14 13 12 13 13 13 13 11 10 10 11 11 10 12 13 14 11 11 10 9 10 9 9 7 7 7 8 8 7 7
14 13 13 11 15 12 11 14 15 16 17 16 15 14 15 11 13 11 12 12 13 11 9 7 7 7 10 8 8 11 11 10 10 11 10 10 9 8 9 8 7 8 7 7 7
14 14 16 7 9 10 9 14 14 15 15 15 13 11 11 11 12 12 12 12 12 11 6 5 3 5 7 5 6 7 9 11 12 11 10 8 8 7 6 7 7 7 7 7 7

GFSSW_850_temp_015.txt.gz
Temp
14 14 14 14 14 13 13 13 13 13 13 13 13 13 14 14 15 15 17 18 18 17 17 17 17 17 17 17 17 18 18 19 19 20 17 17 19 18 19 18 17 17 16 16 15
14 13 13 13 13 13 13 12 13 13 13 13 13 13 14 14 15 17 18 18 17 17 17 17 17 17 17 18 18 18 18 19 19 20 19 19 20 19 18 17 16 15 16 16 16
13 13 13 13 13 13 12 12 13 13 12 13 13 14 14 14 16 18 19 19 18 18 17 17 17 17 17 17 17 16 19 18 19 20 21 21 19 19 18 18 17 16 15 15 14
13 12 12 12 12 12 12 12 12 12 12 13 13 14 14 14 17 18 19 19 18 18 18 18 17 17 17 18 18 19 17 18 21 19 20 19 19 18 19 19 20 19 18 17 15
12 12 12 12 12 12 12 12 13 12 13 13 13 13 13 14 17 19 19 19 19 18 19 18 18 18 18 17 18 18 19 19 19 20 20 20 19 20 19 20 20 18 17 18 17
12 12 13 12 12 11 12 12 12 12 13 13 13 13 13 12 18 19 19 19 19 19 18 18 19 19 19 18 19 19 19 18 18 19 19 20 19 20 18 19 20 19 18 17 16
12 12 12 11 11 11 11 12 13 12 13 13 13 13 14 17 19 19 19 19 19 19 20 19 19 18 18 18 19 19 20 19 18 19 19 20 20 16 14 16 18 15 16 16 16
12 12 12 11 11 11 11 12 13 13 13 13 13 14 16 19 19 20 20 20 20 19 18 18 18 18 18 19 18 19 18 20 19 19 18 19 19 15 14 15 15 15 15 15 15
12 12 11 11 11 11 12 13 13 13 13 13 13 13 17 19 20 20 20 20 20 20 18 19 18 18 18 18 18 17 19 18 19 16 18 19 17 13 14 14 13 13 14 15 15
11 12 11 11 11 12 12 13 13 13 13 13 13 13 19 19 20 20 21 21 20 19 18 17 18 18 17 19 19 19 18 18 19 17 16 16 13 12 11 13 12 13 14 14 15
11 11 11 11 12 12 12 13 13 13 13 16 16 16 19 19 20 20 21 21 21 21 18 17 19 19 19 18 18 18 18 18 16 14 14 12 13 12 11 11 12 12 13 14 15
11 11 11 11 12 13 13 14 14 15 15 17 17 17 18 18 19 20 21 21 20 18 17 18 18 17 17 17 17 17 17 15 15 14 14 14 13 13 12 11 11 11 12 13 14
12 11 12 11 12 13 14 15 14 14 14 17 18 18 19 19 19 20 21 20 19 18 17 18 18 17 17 16 17 16 17 16 16 14 14 15 15 13 12 11 10 10 11 11 12
12 11 12 12 12 14 15 15 15 14 13 16 18 19 19 19 19 20 20 20 17 16 16 17 16 17 17 17 17 17 16 15 15 16 17 14 18 14 13 12 12 11 10 11 12
12 12 12 12 14 15 15 15 15 14 12 16 19 19 19 19 19 19 20 20 17 16 17 16 16 17 17 16 16 16 15 16 15 16 16 15 17 14 13 13 13 12 11 10 12
12 12 12 12 14 15 15 15 15 11 13 17 18 18 18 18 17 19 19 19 18 15 15 15 16 16 17 15 15 14 16 15 14 15 16 15 16 15 13 14 14 12 11 10 12
11 12 13 13 15 15 15 15 11 12 15 16 17 18 17 16 16 15 15 15 17 16 15 16 16 15 16 17 16 16 16 15 16 15 15 13 14 17 15 14 15 13 12 11 12
11 12 13 14 14 15 15 13 14 14 14 16 16 16 16 16 15 14 15 15 14 15 15 16 16 16 16 16 17 15 16 15 14 14 15 13 15 17 14 14 14 13 12 12 12
11 12 13 14 14 15 15 9 12 12 15 15 16 16 16 16 15 14 13 14 14 14 16 15 15 15 15 15 16 15 15 13 11 9 13 14 14 15 12 13 12 12 11 11 11
11 12 13 14 14 14 11 10 13 13 15 16 16 16 15 16 15 14 15 13 14 13 14 14 15 14 15 15 14 16 13 15 13 13 13 14 13 16 13 13 13 12 11 10 11
10 11 14 14 14 15 10 11 13 15 16 16 15 15 15 15 14 14 14 13 13 14 14 13 15 14 14 15 15 15 14 11 12 11 13 13 15 13 14 14 13 13 11 11 11
11 10 13 14 12 7 10 12 15 15 16 16 16 15 15 14 14 13 14 14 12 13 15 12 12 13 15 14 13 14 14 13 13 12 8 10 15 12 12 12 12 11 11 11 10
12 12 12 14 9 6 10 14 15 15 16 16 15 15 13 13 14 12 12 12 13 13 13 12 12 12 14 15 14 15 12 10 9 8 10 12 15 11 9 10 11 11 10 10 9
13 9 12 13 13 11 12 14 15 16 15 15 13 13 13 13 11 11 12 12 12 11 11 12 10 13 14 14 12 13 12 11 12 12 11 11 14 13 12 10 8 8 8 8 7
12 9 11 7 8 10 13 13 14 15 16 15 15 14 13 12 12 11 12 12 11 11 10 11 12 10 9 9 10 12 12 11 13 12 13 13 11 13 13 12 9 7 7 7 7
12 11 11 8 12 10 10 13 14 14 14 15 14 13 13 12 13 11 12 11 12 10 9 8 9 8 9 8 8 11 11 11 11 11 11 11 12 12 10 8 7 7 6 6 7
12 14 15 4 7 9 8 11 13 13 12 13 13 12 12 11 11 10 11 10 10 10 7 7 6 9 10 6 8 10 10 11 11 10 12 12 14 9 9 8 8 7 6 7 8

GFSSW_850_temp_018.txt.gz
Temp
14 14 14 14 14 14 13 13 13 13 13 12 13 13 14 15 15 15 16 17 18 17 17 17 17 17 17 19 19 19 23 24 23 23 21 22 22 19 20 20 18 18 19 17 14
14 14 14 14 13 13 13 13 13 13 12 12 13 14 14 15 15 16 18 17 17 18 17 17 17 17 19 20 20 22 23 24 24 24 23 21 22 22 20 20 19 18 16 15 14
14 13 13 13 13 13 13 12 12 12 12 12 13 14 14 15 15 18 18 18 17 17 17 18 18 18 20 20 20 22 24 24 23 23 23 23 22 22 22 22 21 19 16 14 14
13 13 13 13 12 12 13 12 12 12 12 12 13 14 14 14 19 18 19 19 18 18 17 17 18 19 21 21 21 22 23 22 23 22 23 23 22 22 23 22 21 19 16 15 14
13 12 12 12 12 12 12 12 12 12 12 12 13 13 14 14 17 18 19 19 18 18 17 18 19 20 21 22 21 22 23 22 22 21 23 22 23 23 23 20 19 17 16 16 15
13 12 12 12 12 12 12 12 12 12 12 12 13 14 14 16 18 18 18 18 19 18 17 18 20 20 21 21 22 22 22 22 21 22 21 23 22 23 20 19 19 17 17 17 16
12 12 12 12 12 12 12 12 12 12 12 13 13 13 14 16 18 19 19 18 18 18 18 18 19 19 20 22 20 21 22 22 22 22 22 23 23 21 17 18 19 19 18 17 17
12 12 12 11 12 12 12 12 12 12 12 13 13 13 14 18 19 19 19 19 19 18 17 17 17 18 19 20 21 22 23 23 22 22 20 22 22 20 16 18 20 19 18 17 17
11 12 12 11 12 12 12 12 12 12 12 13 13 13 17 19 19 19 19 19 19 17 16 18 17 19 19 21 22 22 23 23 21 21 22 23 22 19 17 19 20 19 18 17 16
11 11 11 11 12 12 12 12 12 12 12 13 13 12 19 19 19 19 20 19 18 16 16 17 19 21 22 22 22 22 22 23 22 21 23 23 21 19 17 19 19 19 18 17 17
11 11 11 11 12 12 12 12 11 11 13 16 16 16 18 18 19 20 20 20 19 19 22 19 21 22 23 23 23 23 23 23 21 19 21 21 21 20 18 18 18 18 18 17 16
11 11 11 12 12 12 12 12 13 13 17 16 16 16 18 18 19 20 21 21 21 22 22 20 21 21 21 21 22 23 22 21 19 19 21 21 20 19 18 18 18 18 18 17 15
11 11 11 12 12 12 13 14 14 14 16 17 16 17 18 19 20 21 21 21 22 21 21 22 21 19 21 22 22 21 22 20 21 19 20 21 21 19 17 16 15 15 17 16 16
11 11 11 12 12 13 13 14 14 14 18 19 19 19 18 19 21 19 20 21 20 21 20 20 19 21 22 21 21 21 20 21 20 21 22 20 22 20 18 18 17 15 15 15 14
10 11 11 11 13 13 13 14 14 14 16 20 20 19 19 20 21 20 20 20 21 21 20 20 20 21 21 20 20 20 20 21 21 22 21 21 22 21 18 18 18 16 15 15 14
10 11 10 11 12 14 13 13 14 17 16 19 20 20 20 20 19 19 19 19 19 20 21 20 19 21 20 19 20 19 20 20 20 21 20 22 21 23 20 20 19 17 15 14 14
10 11 11 13 11 13 13 13 17 16 18 19 20 21 21 20 20 21 21 20 21 20 20 20 20 20 19 20 19 20 21 20 19 19 19 18 19 22 22 20 20 17 15 14 13
10 11 11 12 12 12 13 17 16 18 19 19 20 20 20 20 19 19 20 20 19 20 21 21 19 20 19 20 21 20 21 20 17 18 20 18 19 22 19 19 19 17 16 14 14
10 10 11 13 12 12 14 15 18 18 20 19 19 20 19 19 20 19 19 20 19 19 21 20 19 19 18 19 20 19 19 19 17 14 17 20 21 20 18 18 18 18 16 15 14
10 10 11 14 12 11 15 16 18 18 18 19 19 20 19 20 20 20 19 18 18 17 18 19 18 18 18 19 18 19 19 18 18 16 17 20 19 21 18 18 18 18 16 15 15
8 10 13 13 12 12 15 18 18 17 17 19 20 19 20 19 20 20 19 17 17 18 18 20 19 18 18 19 20 18 18 17 18 17 18 18 21 19 19 19 18 17 16 16 15
9 13 12 12 14 15 17 18 17 18 16 19 19 20 20 19 19 19 19 19 15 17 19 18 19 17 19 18 18 19 19 19 18 17 15 15 19 18 17 17 18 17 16 16 14
11 12 9 12 14 13 15 18 17 18 19 19 19 19 18 18 18 18 17 14 14 17 18 17 18 17 17 18 18 18 18 18 16 15 15 15 19 17 17 17 16 17 17 15 13
12 13 11 11 14 17 17 17 18 16 18 17 17 17 18 17 16 16 16 14 13 14 12 15 17 18 18 19 18 17 17 18 18 16 17 17 20 18 18 18 17 16 16 13 11
12 15 15 12 14 17 18 18 18 18 17 17 18 19 19 16 16 16 16 15 14 12 14 16 17 16 16 15 15 17 18 17 18 18 17 19 19 20 20 19 18 16 14 13 11
13 13 12 15 14 16 15 17 18 17 18 19 19 18 18 17 19 17 17 17 17 14 15 14 15 13 14 14 14 15 17 18 18 18 17 19 18 20 18 16 16 14 12 12 11
11 13 15 9 15 16 16 17 18 18 14 15 18 17 17 16 14 15 13 15 16 16 14 14 12 13 15 12 13 12 15 17 17 17 17 17 19 19 16 15 15 14 12 11 11

GFSSW_850_temp_021.txt.gz
Temp
14 14 14 14 14 14 15 14 14 13 13 13 13 14 14 14 15 14 15 16 17 17 17 17 17 18 19 21 22 22 24 25 26 23 22 24 24 23 22 20 22 21 21 19 17
14 13 13 14 14 14 14 14 13 12 13 13 13 14 14 14 15 15 17 17 17 17 17 18 19 19 21 22 22 24 24 26 26 22 18 25 24 23 22 21 22 21 20 17 16
14 13 13 13 13 13 14 14 13 12 12 13 14 14 14 14 13 19 18 18 18 18 18 19 20 20 22 23 23 24 25 26 26 22 24 22 23 23 22 22 23 22 20 18 16
13 13 12 13 13 13 13 13 13 12 12 13 13 14 14 14 19 19 19 19 18 18 18 20 20 21 23 23 23 24 25 25 25 24 25 25 24 23 16 13 22 21 19 17 18
13 12 12 13 13 13 13 13 12 12 12 13 14 14 14 13 17 19 19 19 18 18 18 20 21 22 23 24 24 24 25 24 24 24 24 24 24 21 20 22 22 20 18 18 18
12 12 12 12 12 13 13 13 12 12 13 13 14 13 12 16 19 18 19 19 17 18 19 20 21 22 23 24 24 24 24 24 24 24 22 24 24 22 23 23 21 19 19 19 19
12 12 12 12 12 12 13 12 12 12 13 13 14 13 11 17 19 18 18 18 18 19 20 20 21 21 22 23 23 23 23 24 24 24 24 24 24 23 22 22 21 21 21 20 19
12 12 12 12 12 12 13 12 12 12 13 13 13 13 14 18 18 18 18 18 18 18 19 19 20 20 21 22 23 23 24 23 24 25 24 24 23 23 22 23 22 22 21 20 19
12 12 12 12 12 12 12 12 12 13 13 13 13 12 18 19 19 20 19 20 19 18 19 18 19 20 21 21 23 23 22 23 23 25 25 24 23 23 22 23 23 22 21 20 19
11 12 12 12 12 12 12 12 12 13 13 14 12 12 17 20 20 20 20 19 19 18 18 19 20 22 22 23 21 22 23 25 24 24 25 24 24 24 23 23 23 22 21 20 19
11 11 11 12 12 12 12 12 12 11 13 16 18 19 20 20 20 21 20 19 19 20 22 20 21 21 23 23 24 24 24 24 24 24 24 24 24 24 23 23 23 22 22 21 20
11 11 11 11 12 12 12 12 15 14 17 17 17 18 18 18 21 21 21 21 22 21 22 21 21 23 24 24 24 24 24 24 24 23 23 24 24 24 23 23 23 23 22 21 20
10 10 11 11 11 12 13 12 13 13 17 19 18 19 20 19 21 22 22 23 22 21 22 21 22 22 23 23 23 24 24 23 23 23 24 25 24 23 23 23 21 22 22 21 20
10 10 11 11 11 10 12 14 14 13 18 20 20 20 20 20 22 22 22 23 22 22 22 17 22 22 23 23 23 23 23 24 23 23 22 24 22 23 23 22 21 20 21 21 20
10 10 11 11 9 11 13 13 12 13 16 22 22 20 21 21 22 21 21 22 23 22 22 22 23 23 23 23 23 20 23 23 24 24 23 23 23 17 22 22 22 21 20 19 19
9 10 10 10 11 12 12 12 12 15 17 20 22 22 21 22 22 22 22 22 22 22 23 17 22 23 23 22 23 23 23 23 24 24 21 23 23 23 23 24 23 21 19 19 18
9 9 10 11 11 11 12 13 16 16 21 21 21 22 22 21 22 22 22 22 22 20 20 22 23 22 22 22 22 23 22 21 20 20 20 23 23 24 25 24 24 21 19 18 17
8 9 10 10 10 11 11 16 16 20 21 22 22 22 21 22 22 22 22 22 23 23 21 21 20 22 23 23 23 22 23 21 19 20 21 22 21 24 24 23 23 21 19 17 17
8 8 9 12 12 11 13 15 17 21 22 21 22 21 21 22 22 22 22 22 23 23 21 22 20 22 22 22 23 22 21 23 21 20 19 22 24 24 22 22 22 21 19 18 17
7 7 10 11 11 10 15 16 20 22 22 22 20 22 21 21 21 21 22 23 22 22 22 23 21 22 21 21 21 21 23 20 21 18 18 22 23 23 22 21 21 22 20 18 17
7 9 13 12 11 12 15 18 21 20 21 21 22 21 22 22 22 22 22 22 22 21 22 23 22 20 20 21 22 21 21 21 21 20 19 19 22 23 22 22 21 21 20 19 18
8 12 10 11 13 15 16 19 20 21 20 21 21 22 22 22 21 22 22 22 21 22 21 22 21 20 21 21 21 22 22 22 19 19 19 18 20 22 22 22 21 20 20 19 18
10 12 9 11 14 15 18 19 20 21 21 20 21 22 22 22 20 21 22 17 17 20 21 21 20 19 19 20 21 20 21 21 21 18 18 16 20 22 21 21 20 21 20 19 18
12 14 10 10 15 17 18 19 19 20 21 21 22 22 21 21 21 20 20 17 16 19 15 17 20 20 19 20 22 20 21 21 20 18 19 20 21 22 21 21 21 20 20 19 18
13 16 15 13 16 17 19 19 19 19 20 20 20 21 21 20 20 20 20 17 16 14 17 19 18 20 20 20 20 20 21 21 20 20 19 20 22 23 23 22 22 21 19 19 18
14 17 16 16 16 17 16 19 20 21 20 20 21 21 22 21 20 20 20 19 19 17 18 18 18 17 16 19 18 18 20 21 21 21 21 22 21 23 22 22 20 20 18 18 17
12 16 16 15 17 17 18 19 20 21 18 20 21 21 21 20 18 18 19 19 20 19 18 17 15 15 17 16 16 14 17 19 21 21 21 19 21 23 21 20 19 19 18 17 16

GFSSW_850_temp_024.txt.gz
Temp
14 14 14 14 15 14 14 14 14 14 14 14 14 14 14 14 15 15 17 18 16 17 17 17 17 17 19 21 22 23 23 23 25 26 18 14 15 21 22 19 20 19 19 18 17
13 14 13 14 14 14 14 14 14 13 13 14 14 14 14 14 15 17 19 18 17 17 17 17 19 19 20 21 22 23 23 24 26 23 16 16 18 20 23 23 20 20 19 17 15
13 13 13 13 14 14 13 13 14 13 13 14 14 14 14 15 14 19 19 19 18 18 18 19 20 21 21 22 23 24 23 26 24 18 18 19 21 24 20 18 18 15 19 18 16
13 13 13 13 13 13 13 13 13 13 13 14 14 14 14 15 18 19 19 19 18 18 18 19 21 21 22 23 24 23 25 25 24 19 19 15 21 19 18 17 19 19 20 18 17
12 13 13 13 13 13 13 13 13 13 13 14 14 14 14 13 17 19 19 19 18 18 17 20 21 22 22 24 24 24 25 25 24 24 21 20 20 19 17 19 19 18 19 19 19
12 12 12 13 13 13 13 13 13 13 13 14 13 14 13 16 20 19 19 19 18 17 19 21 22 22 23 24 24 24 24 25 24 23 24 23 21 20 19 18 18 19 19 19 20
11 12 12 12 12 13 13 13 13 13 13 14 13 13 11 16 19 19 18 18 19 19 20 21 22 22 23 24 24 24 23 24 25 24 24 22 21 21 22 21 21 21 20 20 20
11 11 12 12 12 12 12 12 13 13 13 13 13 13 13 18 19 19 19 20 19 19 19 21 20 21 21 22 23 23 23 22 24 24 23 23 20 23 23 22 22 22 21 20 20
10 11 11 12 12 12 12 12 13 13 13 13 13 12 17 19 19 20 20 20 21 19 19 20 19 20 21 21 22 22 20 22 24 25 24 23 20 24 23 23 23 22 21 21 20
9 10 11 11 12 12 12 13 13 13 13 14 13 13 18 20 21 21 21 21 20 20 19 19 20 21 22 22 19 20 21 22 23 25 25 24 23 24 24 24 23 22 22 21 20
9 10 11 11 12 12 12 12 13 11 12 16 19 18 21 21 21 21 21 20 20 20 20 21 20 21 20 21 23 23 23 23 25 25 24 24 24 24 24 24 23 22 22 21 20
9 10 10 11 11 11 12 11 16 14 16 17 18 18 19 20 21 22 22 21 21 20 19 22 20 21 22 23 23 23 23 24 24 25 24 25 24 25 24 24 24 23 22 21 21
9 9 10 10 11 12 12 13 14 13 16 20 19 19 20 20 21 22 22 22 21 21 20 20 18 19 22 23 23 23 23 22 23 24 24 21 23 24 24 24 24 23 23 22 22
9 9 10 10 11 12 12 14 14 13 16 21 21 20 21 21 22 23 23 20 20 21 17 18 21 20 23 22 24 21 22 23 22 23 21 22 19 16 19 23 24 24 23 23 22
9 9 10 9 11 11 14 14 13 13 15 22 22 22 21 21 22 22 23 22 22 21 20 17 21 22 22 21 22 19 22 22 23 23 20 19 18 20 19 20 22 23 22 22 22
8 9 9 9 11 13 12 13 13 15 15 21 22 22 22 22 23 23 22 22 21 21 22 22 22 22 20 22 23 22 22 23 23 23 16 20 17 20 20 19 13 22 22 21 21
8 9 9 9 10 12 12 12 15 15 22 21 21 22 22 22 23 23 22 22 22 20 20 21 22 24 22 23 23 23 22 20 16 15 18 24 22 19 21 16 14 14 21 20 19
7 7 9 9 10 10 11 13 15 19 20 24 22 22 21 22 22 23 22 21 23 23 22 20 18 23 24 23 17 18 22 19 13 12 20 22 22 23 23 23 19 21 21 19 18
6 7 7 10 9 9 11 12 16 20 22 22 22 21 22 23 22 22 22 22 23 23 18 16 18 20 23 24 23 22 21 23 19 19 19 21 23 25 24 23 23 22 20 19 18
7 5 8 10 9 8 11 14 18 21 23 23 21 22 21 22 21 22 22 23 23 23 19 12 11 18 22 22 23 22 23 20 21 18 17 21 22 22 22 22 22 22 20 19 18
6 8 11 10 9 9 13 15 18 21 22 22 22 22 22 22 22 22 22 23 23 23 23 22 18 21 21 21 22 21 21 21 22 20 18 17 20 23 22 23 22 22 21 19 18
7 10 12 11 11 13 14 17 19 20 22 22 22 23 22 23 22 22 22 23 23 23 21 23 21 19 21 23 23 22 21 22 17 18 18 16 18 23 22 23 22 22 22 20 19
8 11 10 11 12 12 15 17 19 20 22 21 21 22 23 22 21 22 23 19 20 21 21 21 20 18 20 21 22 21 22 22 22 18 17 15 18 23 22 22 22 21 21 21 19
10 11 9 9 14 15 15 17 18 20 22 21 22 22 22 22 23 21 22 19 18 20 17 19 20 19 18 20 21 20 21 22 21 16 17 17 20 22 22 22 22 21 20 21 20
11 13 12 10 12 16 17 18 18 19 21 22 21 22 21 20 21 21 22 18 18 16 18 19 18 20 21 21 21 20 21 22 21 21 18 19 21 22 23 22 23 22 21 20 20
10 14 14 14 14 15 15 17 19 20 21 20 21 22 22 21 21 20 21 19 19 17 19 19 17 17 17 19 20 19 20 21 21 21 21 21 21 23 23 21 21 20 20 20 19
8 13 15 14 15 15 16 18 19 21 21 21 21 22 21 21 21 19 20 21 21 19 18 18 15 15 16 17 16 14 16 19 20 21 21 19 21 22 22 22 20 19 19 19 18

GFSSW_850_temp_027.txt.gz
Temp
13 14 14 14 14 14 14 14 14 14 14 14 14 14 14 15 15 16 18 18 19 18 17 17 17 18 18 18 19 20 16 16 19 19 16 15 15 18 19 17 18 17 17 15 15
13 14 14 13 13 14 14 14 14 14 14 14 14 14 14 15 16 18 19 19 18 18 18 18 18 18 18 19 20 19 15 18 21 17 16 16 16 17 15 19 14 15 14 14 13
12 13 13 13 13 13 13 13 14 14 14 14 13 14 14 15 16 19 19 19 18 18 18 18 18 19 18 20 20 20 18 20 20 20 18 18 19 18 18 17 16 13 14 14 12
12 13 13 13 13 13 13 13 13 14 14 13 13 14 14 14 17 19 19 19 18 18 18 18 19 19 19 18 21 19 22 22 21 19 19 15 18 18 20 17 16 17 17 15 13
11 12 12 13 13 13 13 13 13 13 13 13 13 14 14 14 17 19 19 19 18 18 19 19 19 20 19 20 21 20 21 23 22 19 18 18 18 18 19 17 16 18 17 16 15
10 11 12 12 12 13 13 13 13 13 13 13 13 13 13 13 18 19 19 19 19 19 19 19 20 21 21 21 20 23 23 23 23 18 18 17 18 19 19 19 18 18 17 17 17
10 11 12 12 12 12 13 13 13 13 13 13 13 13 13 18 19 18 19 19 19 19 19 19 20 21 20 19 22 23 21 23 22 22 19 20 16 16 20 19 18 19 19 18 18
10 10 11 12 12 12 12 12 13 13 13 13 13 12 14 19 19 19 18 19 19 19 19 20 20 20 20 21 21 22 21 19 22 22 21 22 18 16 20 19 18 19 20 19 19
10 10 11 12 12 12 12 13 13 13 13 13 13 11 14 18 19 20 19 20 20 20 20 20 20 20 20 18 17 20 18 19 20 22 22 21 19 17 20 18 19 20 20 20 19
9 10 10 11 11 12 12 13 13 14 13 13 12 11 17 19 20 21 20 20 20 20 19 19 19 17 17 17 16 19 19 18 19 20 21 20 19 19 21 21 20 20 20 20 19
9 9 10 11 11 11 12 12 13 13 12 15 17 17 19 20 21 21 21 21 20 19 17 19 16 16 18 19 20 20 19 18 20 21 20 19 19 19 21 21 19 20 19 20 20
9 9 10 11 11 11 11 12 13 12 13 16 16 16 18 19 20 21 21 20 20 17 18 16 17 20 20 20 19 20 20 20 21 21 21 20 19 19 20 20 19 20 21 20 19
9 9 9 10 11 11 12 13 14 13 12 16 18 18 19 19 20 20 21 21 20 18 18 17 17 20 20 18 18 20 19 19 21 22 22 22 18 17 20 23 19 20 21 20 20
9 9 9 10 10 11 13 14 15 12 10 17 19 19 19 20 20 21 21 21 20 18 15 16 19 19 19 18 21 20 20 20 21 19 18 19 16 18 18 21 21 22 21 20 20
8 8 9 9 10 11 12 12 13 12 11 19 20 21 20 20 21 21 21 21 19 18 17 17 18 18 18 18 21 19 20 20 20 19 19 18 16 16 19 19 19 18 21 21 20
8 8 8 9 10 12 12 13 13 11 11 20 21 20 20 21 21 21 22 22 21 18 17 18 21 19 19 20 21 20 20 20 18 17 13 18 16 16 15 19 17 19 22 22 20
8 8 8 9 10 10 12 12 10 9 19 20 19 20 19 19 20 20 20 19 17 17 17 19 20 19 20 19 20 19 17 14 13 11 12 18 17 16 17 18 19 19 20 20 20
7 8 8 9 10 10 11 10 11 16 17 21 20 19 19 20 19 20 19 18 18 18 17 17 16 17 18 19 20 19 17 13 13 12 13 18 17 18 19 20 20 21 19 19 19
7 7 7 10 10 8 9 10 11 16 19 19 20 19 18 20 20 19 19 18 18 19 16 15 17 16 18 19 20 20 17 18 13 12 12 15 19 20 18 17 16 17 17 18 18
7 6 7 10 9 8 9 11 14 17 20 20 18 19 18 19 19 18 18 20 20 19 16 13 15 15 15 18 19 20 19 16 14 14 14 16 18 17 18 19 16 14 17 18 18
6 6 8 9 8 7 9 11 14 17 18 19 19 19 19 19 19 19 19 20 20 17 16 13 14 15 16 17 17 18 18 19 17 12 12 11 14 20 19 18 17 17 18 18 18
6 7 10 9 6 8 8 12 15 17 18 18 20 20 19 20 18 18 18 19 21 21 18 14 14 12 17 19 21 20 19 16 10 15 10 9 12 19 19 19 20 20 18 18 18
6 8 8 10 8 7 11 12 14 16 16 18 19 20 20 19 16 18 17 18 19 18 18 18 16 10 14 16 19 19 19 19 16 11 13 9 12 18 20 20 21 21 21 19 18
7 7 8 7 12 10 10 12 13 16 16 18 19 19 18 19 20 17 16 17 18 16 18 18 17 14 11 15 18 18 18 18 17 9 11 10 16 17 17 17 19 21 20 20 19
7 9 10 8 8 11 12 13 14 14 17 19 18 18 18 19 19 19 16 16 17 16 18 16 15 18 17 17 18 19 19 18 18 16 13 14 16 17 19 17 18 19 20 20 19
6 11 11 10 10 10 11 13 15 16 17 17 17 18 18 18 18 17 17 16 16 15 16 16 13 15 16 17 16 16 17 17 17 18 18 18 17 18 19 19 19 19 19 19 19
5 11 12 10 10 10 12 14 14 16 17 19 18 18 17 18 19 18 20 19 17 14 14 13 10 9 13 12 13 10 14 16 16 17 17 15 16 14 15 16 17 18 18 17 18

GFSSW_850_temp_030.txt.gz
Temp
13 13 13 13 13 13 14 14 14 14 14 14 14 14 14 15 16 17 18 19 18 18 18 17 17 18 17 18 18 18 15 14 17 19 16 16 15 17 16 16 14 15 15 12 12
12 13 13 13 13 13 14 14 14 14 14 14 14 14 14 15 17 18 19 19 18 18 18 18 17 17 18 18 19 17 14 17 18 17 15 16 15 17 17 13 12 12 13 13 12
12 12 13 13 13 13 14 13 14 14 14 14 14 14 14 15 17 19 19 19 19 18 18 18 17 17 17 18 18 18 16 18 20 18 18 16 16 16 16 15 13 13 11 13 13
11 12 13 13 13 13 13 13 13 13 14 14 14 14 14 15 16 19 19 19 19 18 18 18 17 17 17 17 19 18 19 20 20 18 18 17 17 17 16 17 17 14 14 13 13
10 11 12 13 13 13 13 13 13 13 13 14 14 14 14 14 18 18 19 19 19 19 19 18 18 18 18 19 19 18 19 21 19 19 19 18 17 16 15 15 15 13 12 12 13
10 11 12 12 12 13 13 13 13 13 13 13 14 14 14 12 18 18 18 19 19 19 19 18 19 19 19 19 18 20 20 19 19 18 18 19 18 17 15 15 14 13 13 15 14
10 10 11 12 12 13 13 13 13 13 13 13 13 13 14 18 18 18 18 19 19 19 19 19 19 19 20 19 20 20 20 18 17 17 17 19 17 16 16 16 16 16 15 14 15
9 10 10 11 12 12 12 13 13 13 13 13 13 13 16 18 18 19 19 19 19 19 19 19 19 20 20 20 20 18 18 17 17 17 18 19 17 18 17 17 16 16 16 15 15
9 9 10 11 12 12 12 12 13 13 13 13 12 12 16 19 19 19 19 19 19 19 19 19 19 19 19 17 15 15 17 19 19 20 19 18 17 18 18 18 18 17 17 16 15
9 9 10 10 11 12 12 12 13 13 13 12 12 11 18 19 19 20 19 20 19 19 19 19 19 15 15 15 15 18 18 18 18 20 20 18 17 17 17 18 18 17 18 16 15
9 9 9 10 11 12 12 12 13 13 12 15 15 16 17 19 20 20 20 20 20 19 16 17 15 15 17 16 19 19 18 17 18 18 19 18 17 17 16 17 17 18 18 18 17
9 9 9 10 10 11 11 12 12 11 11 14 16 14 17 17 16 20 21 20 19 17 16 15 16 18 18 19 18 17 17 17 18 19 19 18 18 16 16 17 17 18 18 18 18
9 9 9 9 10 11 12 12 11 12 11 14 16 17 18 19 18 20 20 20 18 17 16 16 18 18 19 19 18 17 17 17 18 18 18 17 16 18 19 18 18 18 20 19 19
9 9 9 9 10 11 12 12 13 13 10 13 16 18 18 19 19 20 20 20 18 16 16 16 18 19 18 18 17 16 18 18 19 17 17 17 15 16 18 17 17 17 18 18 18
8 8 9 9 10 11 11 11 12 12 9 17 17 20 20 19 20 21 21 20 17 17 16 17 17 18 18 17 18 17 19 19 20 16 17 17 15 16 17 18 17 18 19 18 18
7 8 8 8 10 12 11 11 11 11 10 17 19 18 18 19 19 20 20 21 20 16 17 17 18 18 18 19 18 19 19 16 15 14 13 16 15 14 16 18 19 19 20 20 18
6 7 8 9 10 11 11 12 9 10 15 18 17 18 17 17 18 18 19 18 16 16 15 17 18 18 20 19 18 19 16 13 14 11 12 16 15 15 17 17 17 18 19 20 19
4 7 7 8 9 10 10 10 10 13 14 18 18 17 17 17 17 18 17 16 16 17 14 15 15 17 17 18 18 17 16 12 14 11 14 16 15 17 18 19 19 19 18 19 18
4 6 6 8 9 9 9 10 10 12 16 17 18 17 16 18 18 17 16 16 17 16 16 15 16 15 16 18 17 17 16 16 12 10 12 13 17 18 17 16 17 16 18 18 18
4 5 6 7 8 7 8 10 12 14 16 18 17 17 15 17 16 16 15 17 17 17 16 15 16 15 16 19 18 17 18 16 12 14 14 14 15 15 18 19 16 15 16 17 17
4 5 6 7 7 6 8 10 12 14 15 16 17 17 17 16 16 15 17 18 17 15 16 13 15 15 17 16 17 16 17 17 14 11 12 11 13 15 17 17 16 14 17 17 17
4 6 7 7 6 6 9 11 12 14 15 15 16 15 16 16 16 16 16 18 19 16 16 14 13 10 16 17 17 17 17 15 10 15 8 8 13 16 16 16 17 17 18 17 17
5 6 7 8 6 6 9 11 11 13 14 15 16 17 19 16 17 16 17 17 17 16 16 14 14 10 14 15 17 17 17 16 13 9 11 9 12 16 16 17 18 18 18 18 17
5 6 6 6 9 9 8 9 10 12 13 14 14 15 17 16 17 16 16 17 16 16 17 17 14 13 11 14 15 17 18 17 14 9 10 9 15 16 16 15 17 19 19 19 18
5 8 8 7 6 9 9 10 10 11 14 15 15 14 15 16 15 16 15 16 15 16 17 14 15 15 15 16 17 17 17 17 16 14 12 14 13 16 17 16 16 20 18 18 17
5 8 9 8 8 8 9 10 11 12 13 15 14 15 15 16 15 15 15 14 15 15 16 14 13 14 15 14 15 16 15 15 16 16 14 16 15 13 15 16 16 17 18 17 17
2 7 10 9 8 7 9 10 12 12 14 15 15 15 14 15 18 19 19 18 15 13 13 12 9 8 12 10 12 10 13 14 16 16 16 13 14 13 12 13 14 16 17 16 15

GFSSW_850_temp_033.txt.gz
Temp
13 14 14 14 14 14 14 14 14 14 14 14 14 15 15 15 17 17 18 18 18 18 17 17 16 17 17 17 18 17 13 14 16 16 17 16 16 14 14 14 13 14 13 12 13
12 13 14 14 14 13 14 14 14 14 14 14 14 15 15 16 17 18 18 18 18 17 17 17 16 17 17 17 17 15 13 16 16 17 15 15 15 16 14 12 12 12 12 12 12
12 12 13 13 13 13 13 14 13 14 14 14 14 14 15 16 17 18 18 18 18 17 17 17 17 17 17 17 18 16 15 17 18 19 17 15 14 16 14 13 12 11 12 12 12
11 11 12 13 13 13 13 13 13 13 14 14 14 14 15 15 17 19 18 19 18 18 17 18 17 17 16 16 18 17 18 18 19 18 17 16 16 15 15 15 13 12 13 14 11
10 11 11 12 12 12 13 13 13 13 14 14 14 14 15 15 18 18 18 18 18 18 17 18 18 17 17 17 18 17 18 19 19 18 18 17 16 14 12 14 13 14 14 15 12
10 10 10 11 12 12 12 13 13 13 13 13 14 14 14 13 18 18 18 18 18 18 18 19 19 18 17 17 17 19 18 17 17 17 18 16 15 17 12 13 14 14 15 16 15
9 10 10 10 12 12 12 13 12 13 13 13 13 14 14 18 18 18 18 18 18 19 19 19 19 19 19 17 19 19 18 17 17 17 17 17 16 14 13 12 11 13 15 15 14
9 10 10 10 11 11 12 13 12 12 13 13 13 13 15 18 18 19 18 18 18 18 18 19 19 19 19 19 18 18 17 16 17 17 18 18 17 15 14 12 12 12 12 13 14
9 10 10 10 10 11 12 12 13 12 13 13 13 13 16 18 18 19 19 19 19 19 19 19 18 18 18 16 14 14 17 17 18 17 17 17 17 15 15 14 13 12 14 14 14
9 9 10 10 10 11 12 12 13 13 13 13 12 12 17 18 18 18 19 19 19 19 19 19 18 14 13 14 14 17 17 17 17 19 16 16 17 15 15 14 14 14 14 15 15
9 9 9 9 10 11 12 12 12 12 12 14 15 15 17 17 18 20 19 19 18 18 16 16 14 14 16 16 17 17 16 16 17 18 18 16 17 16 15 15 15 15 14 15 16
9 8 8 9 9 10 11 11 11 10 10 14 15 14 16 16 15 19 19 19 18 16 16 14 15 16 16 17 17 17 17 17 16 17 17 16 17 15 14 16 16 17 16 15 16
9 8 8 9 9 10 11 10 11 11 10 13 14 16 17 17 16 19 19 19 17 16 15 15 17 18 19 18 18 17 17 15 17 18 17 16 16 16 16 16 17 16 18 16 17
9 7 8 8 9 10 11 10 12 12 9 12 13 16 17 18 17 19 20 20 17 16 14 15 16 18 17 17 17 16 17 16 17 17 16 16 14 15 15 16 15 16 16 16 17
8 6 7 7 9 10 11 10 11 12 9 15 15 18 18 18 19 18 20 20 16 16 15 16 16 17 17 17 17 16 17 17 18 16 16 15 14 14 16 15 16 16 17 16 16
6 5 7 7 8 11 11 11 11 8 10 15 17 16 16 18 19 19 19 20 19 16 16 16 18 17 17 18 17 18 18 15 13 13 12 15 14 14 15 16 17 17 17 17 17
4 5 6 7 8 10 11 11 9 7 14 16 16 16 16 15 17 18 17 17 15 15 15 16 17 18 18 18 17 17 14 13 13 11 12 15 14 15 17 16 16 15 17 18 18
3 4 6 6 7 9 10 10 9 11 12 15 17 15 15 16 16 16 16 15 16 15 13 14 15 17 17 18 17 16 15 12 14 11 14 14 14 16 17 17 17 18 19 20 19
2 3 5 6 7 8 9 9 9 11 14 16 16 15 15 16 16 16 15 15 15 15 15 14 16 16 16 17 18 17 15 15 11 9 11 12 14 16 16 17 14 15 18 18 19
2 3 4 7 7 7 8 10 11 13 14 14 15 15 14 14 15 15 14 15 16 15 16 15 16 16 15 17 17 17 16 15 11 14 14 13 14 14 17 18 16 12 16 17 18
2 3 5 6 7 5 7 9 11 14 14 14 15 15 15 15 14 14 15 16 16 15 16 13 15 15 16 15 16 16 16 14 13 10 11 10 13 13 16 17 17 16 16 17 17
2 4 6 6 6 6 7 9 12 13 13 13 14 14 15 14 14 15 15 17 18 15 15 13 12 10 15 16 16 17 17 14 10 14 7 7 11 15 14 14 16 19 19 19 18
2 4 6 6 7 6 8 9 11 12 12 12 13 14 16 14 15 14 14 16 16 15 14 13 12 10 13 15 15 17 15 14 11 8 10 8 11 15 14 15 18 18 20 19 18
3 4 5 5 8 8 8 8 9 11 11 12 13 14 15 16 15 14 15 16 15 15 16 15 12 13 12 14 14 16 17 15 13 8 10 8 13 16 15 14 16 18 19 19 18
2 6 7 6 6 7 8 9 9 11 11 12 11 12 13 13 15 15 14 15 15 14 14 14 14 14 14 15 15 16 16 14 14 13 12 13 12 14 16 15 15 16 17 18 17
2 5 7 7 8 7 8 8 9 10 10 11 12 14 13 12 13 14 14 13 14 15 15 12 12 14 14 13 13 15 14 14 13 14 13 14 14 13 14 14 14 14 16 15 15
1 4 6 8 8 7 8 8 10 11 11 13 13 13 12 13 15 16 16 17 15 13 12 11 8 9 12 10 11 9 11 13 14 14 14 13 13 13 12 12 12 14 15 15 15

GFSSW_850_temp_036.txt.gz
Temp
11 12 13 13 14 14 14 14 14 14 14 15 15 15 16 16 17 18 18 17 18 18 17 16 16 17 17 16 16 17 11 12 15 16 17 15 15 14 13 14 12 13 14 13 13
11 11 12 13 13 13 14 14 14 14 14 14 15 15 15 17 18 18 17 18 18 17 17 16 16 16 16 16 16 14 12 15 15 17 16 15 15 15 14 13 12 12 12 12 12
10 10 11 12 13 13 13 13 14 14 14 14 15 14 15 16 17 18 18 18 18 17 17 16 17 17 17 17 16 14 14 15 17 18 17 15 15 15 13 12 12 12 11 11 12
10 10 10 11 12 12 13 13 13 13 14 14 14 14 15 16 17 18 18 18 18 17 17 17 17 17 15 16 17 16 16 17 18 18 16 15 16 14 14 13 14 12 12 11 11
9 9 10 10 11 12 12 12 13 13 13 14 14 14 15 15 18 17 18 18 18 18 18 18 17 17 16 16 16 16 17 18 17 17 16 16 15 13 11 13 14 12 12 11 11
9 9 9 10 10 11 12 12 13 13 13 13 14 13 14 13 17 17 17 18 18 18 18 18 18 17 17 16 17 18 17 17 16 16 16 14 14 15 11 13 13 12 11 12 13
9 8 10 10 10 10 11 12 12 12 13 13 13 13 14 17 18 18 18 18 18 18 18 18 18 18 18 16 18 18 18 17 16 16 16 17 15 13 11 13 14 13 12 13 15
9 8 8 9 10 10 11 12 13 12 13 13 13 13 15 18 18 18 18 18 18 18 18 18 18 18 18 18 17 17 17 17 17 16 16 16 15 12 12 14 13 14 13 12 14
10 9 8 8 10 9 10 11 13 13 13 13 13 12 15 17 18 18 18 18 18 18 18 18 18 17 17 15 14 13 15 16 17 16 16 16 15 13 12 13 13 13 14 14 13
10 9 8 8 8 9 10 11 13 13 13 13 12 11 16 17 17 18 18 19 18 18 18 17 17 13 12 14 14 16 16 16 16 17 16 16 16 12 12 12 12 14 13 14 14
10 9 9 8 9 8 10 11 12 12 11 14 14 15 17 17 17 19 19 19 18 18 16 15 14 14 15 15 16 16 16 15 15 17 17 15 14 13 12 13 13 13 13 14 15
10 10 8 9 8 8 9 10 10 10 9 14 14 13 15 15 15 18 18 18 17 15 15 14 14 15 16 15 17 17 16 15 16 16 16 15 14 14 12 13 13 14 14 15 16
10 10 8 7 8 7 8 11 10 10 9 12 14 14 16 16 16 18 18 18 17 15 15 14 16 17 18 17 18 16 17 15 16 16 16 15 15 13 14 14 15 14 15 15 15
8 8 6 7 7 7 9 10 11 11 9 11 12 14 15 17 16 18 19 19 16 15 13 14 15 17 17 17 16 16 16 15 15 16 15 15 14 14 13 14 14 15 15 16 17
5 6 5 6 8 9 9 10 10 11 10 14 13 16 16 17 18 18 19 19 15 15 14 15 16 16 16 16 16 15 16 16 17 15 15 15 14 14 14 14 15 15 16 17 17
3 4 4 6 6 9 9 9 10 9 9 14 15 14 14 17 17 17 18 19 18 15 15 15 16 16 16 17 16 17 17 14 12 12 12 15 13 13 13 15 16 16 16 18 18
2 2 4 5 6 8 8 9 9 8 14 15 14 14 14 14 16 16 15 15 14 14 14 16 16 17 17 17 16 16 14 12 13 11 12 14 13 13 15 15 14 14 17 18 19
2 2 3 5 6 7 8 8 8 11 11 14 15 14 14 15 15 16 15 14 15 14 12 13 14 16 17 17 16 16 14 11 14 11 13 13 14 16 17 16 16 16 17 17 17
2 2 2 4 6 6 7 8 9 10 13 14 15 14 14 15 15 15 14 13 14 13 15 13 15 15 16 17 17 16 14 14 10 8 10 12 13 15 16 14 14 15 16 16 17
1 2 2 4 6 6 6 9 11 11 13 13 13 14 12 13 15 14 13 14 15 14 15 14 15 15 16 16 16 16 14 13 10 14 14 12 13 13 15 17 14 14 15 17 17
1 2 3 3 5 5 6 8 11 13 13 13 13 14 13 13 13 12 13 16 14 14 15 13 14 14 15 15 15 14 14 12 12 9 11 10 12 12 15 15 15 14 16 17 18
2 2 4 5 6 7 7 8 11 12 13 12 12 13 14 13 13 13 14 15 17 14 14 13 12 10 14 15 15 14 14 12 9 13 7 7 10 14 13 13 15 17 19 18 17
2 3 4 5 6 6 8 9 9 11 11 11 11 13 14 14 15 13 13 16 16 13 13 12 12 10 13 13 14 15 14 13 10 7 10 8 11 14 13 14 17 17 20 18 18
2 2 4 4 8 7 8 8 8 11 11 12 11 13 14 14 12 13 14 14 14 15 15 15 11 12 12 13 13 15 14 12 12 8 9 8 13 14 14 13 15 18 18 18 18
2 3 6 5 5 7 8 8 8 9 11 11 10 11 13 13 14 14 13 13 14 13 12 13 13 12 13 14 14 15 16 12 13 12 12 13 11 13 13 14 14 15 16 17 18
1 3 7 6 6 6 7 8 8 9 10 10 10 11 11 11 12 14 13 12 13 12 12 11 12 13 13 13 13 14 13 13 12 13 12 12 12 12 13 13 12 13 14 14 14
0 3 5 7 6 6 7 8 8 9 10 11 11 11 10 12 14 14 15 13 12 12 10 10 8 9 12 10 12 9 10 12 12 12 13 12 12 11 12 11 11 12 13 13 13

GFSSW_850_temp_039.txt.gz
Temp
10 10 11 11 12 13 13 13 13 14 14 15 15 16 16 17 17 18 17 17 17 17 16 17 17 16 16 16 16 16 17 17 17 17 19 15 16 14 14 13 13 13 13 13 12
9 10 10 10 11 12 12 13 13 13 14 14 15 15 16 17 18 18 17 17 17 17 17 17 16 16 16 16 17 17 16 17 18 18 18 16 16 15 14 14 13 12 12 12 12
9 9 9 10 10 11 12 12 13 13 14 14 14 15 16 16 17 17 17 18 17 16 17 17 16 16 16 16 16 15 18 17 18 17 17 15 15 15 15 15 14 13 12 12 12
8 8 8 9 9 10 11 12 13 13 13 14 14 15 15 16 17 17 17 18 17 17 17 17 16 17 16 17 16 16 17 17 17 17 15 15 15 14 14 13 13 11 12 12 12
8 8 9 8 9 9 10 11 12 12 13 13 14 14 15 15 17 17 18 18 17 17 18 18 17 17 17 16 16 16 18 17 16 16 16 15 15 14 12 11 12 11 11 11 11
9 8 8 8 8 9 9 10 11 12 12 13 13 14 14 13 17 17 17 17 17 17 18 18 17 17 16 16 17 17 17 16 15 16 16 16 14 14 12 12 12 11 11 11 11
10 9 8 8 8 9 10 10 11 12 12 13 13 13 13 17 17 17 17 17 17 17 18 18 17 17 17 17 17 17 18 17 16 16 17 16 17 15 12 11 11 11 11 11 11
11 10 8 8 8 9 10 10 10 12 12 13 12 12 14 17 17 17 17 17 17 18 18 17 17 17 17 17 17 17 17 18 17 17 16 18 17 14 12 12 12 11 11 11 11
11 10 10 8 8 8 9 10 10 12 13 13 12 12 15 16 17 18 17 18 18 18 17 17 17 17 17 17 17 16 18 17 18 17 16 17 17 15 12 12 13 12 12 13 12
11 11 10 9 7 7 8 9 11 12 12 12 11 11 16 17 16 17 18 18 18 17 17 17 16 16 15 17 17 17 17 17 18 18 17 16 17 14 12 13 14 13 13 13 14
10 10 10 9 7 7 7 8 11 11 10 14 13 14 16 16 16 17 18 18 17 18 16 15 17 16 17 16 17 17 17 17 17 18 17 18 17 15 13 12 13 13 13 14 15
6 8 10 10 6 7 7 8 9 9 9 13 14 14 15 16 14 17 17 17 17 16 15 16 16 16 15 15 16 17 17 17 17 17 17 17 17 16 14 14 14 14 13 14 15
4 6 6 7 6 7 7 9 8 8 8 12 14 15 15 15 14 16 17 18 16 15 15 16 17 16 16 16 16 17 17 16 17 16 16 16 18 16 15 14 14 14 14 15 15
2 4 5 5 6 7 7 8 9 8 9 12 12 14 14 16 15 17 18 18 16 16 14 16 15 16 17 17 17 17 17 16 16 17 18 15 18 16 16 16 15 15 14 16 16
2 3 4 5 6 7 8 8 9 8 10 14 12 14 14 16 17 16 18 18 16 15 16 17 16 16 16 17 16 18 16 16 17 16 16 16 18 18 15 16 17 16 15 16 17
2 2 2 4 5 8 8 8 9 10 9 14 13 13 13 15 16 15 17 18 17 15 15 16 15 16 17 16 16 16 16 15 14 15 16 15 17 18 17 18 18 17 17 17 17
1 1 2 4 4 8 7 7 8 9 13 14 13 13 14 14 15 15 15 15 16 15 15 15 16 16 16 17 16 16 16 16 16 15 16 15 15 18 18 16 17 18 17 17 18
1 1 2 2 4 6 6 7 8 10 12 14 14 13 14 14 15 15 14 16 14 15 14 16 15 16 16 18 18 16 17 16 15 15 16 14 16 20 18 17 15 15 16 16 16
2 2 2 2 4 5 6 7 10 10 12 13 14 14 14 14 15 15 14 16 15 15 16 14 15 15 15 16 17 16 16 15 13 10 14 15 16 18 17 17 16 15 16 17 17
1 1 1 2 3 5 6 9 10 11 13 13 14 14 13 13 14 15 13 14 15 14 16 15 16 15 16 16 15 16 15 16 14 14 14 15 15 18 18 18 17 17 17 18 19
1 1 2 2 4 5 7 8 10 11 13 13 12 13 13 13 14 13 14 15 15 14 15 14 16 15 15 16 17 15 16 13 15 13 15 15 17 16 18 18 17 16 17 18 19
1 1 3 3 4 6 6 9 10 11 12 12 12 12 13 13 12 13 15 16 15 14 15 14 14 14 16 15 15 15 16 15 15 14 11 12 15 16 16 16 15 16 17 17 18
1 2 3 3 4 6 8 9 9 10 11 11 12 12 13 13 14 13 13 15 14 14 14 13 13 14 15 15 15 16 15 13 12 11 12 13 16 15 15 16 15 15 17 17 18
1 2 2 2 6 7 7 8 8 9 10 12 11 12 13 13 12 13 13 13 14 14 15 15 12 14 15 16 15 15 14 13 14 13 14 14 16 17 18 16 17 16 17 17 17
1 3 3 3 4 6 8 8 8 8 10 11 10 11 12 12 13 13 13 13 12 12 12 15 14 13 14 14 15 15 15 13 15 14 15 16 14 17 17 16 15 14 15 15 14
1 3 5 5 5 5 7 7 8 9 10 10 11 11 12 12 13 13 13 13 13 11 12 11 14 13 13 12 13 14 14 13 14 13 14 14 14 15 14 13 12 12 13 12 12
1 4 5 5 5 5 6 7 8 9 9 11 10 10 10 12 13 13 13 14 13 13 11 11 10 11 13 11 13 12 12 14 13 13 14 14 16 14 13 12 11 10 10 10 11

GFSSW_850_temp_042.txt.gz
Temp
9 9 9 10 10 11 11 12 13 13 14 14 14 15 16 17 17 17 17 17 18 17 17 17 15 16 17 18 18 18 21 21 21 22 22 20 20 17 16 18 17 15 16 14 13
8 9 9 9 9 10 10 12 12 13 13 14 14 15 15 16 17 17 17 18 17 17 16 16 17 17 19 19 19 20 21 22 23 23 22 21 20 19 18 18 18 14 12 12 13
9 9 9 9 8 9 10 10 11 12 13 13 14 14 15 16 17 18 18 18 17 17 17 16 17 18 20 19 20 21 22 22 22 21 20 20 20 18 19 20 19 16 12 12 12
10 10 9 9 9 8 9 10 11 11 12 13 14 14 15 16 20 17 17 18 17 17 17 16 17 19 20 21 20 20 22 21 21 19 19 19 17 18 18 16 15 13 12 11 11
11 10 10 10 9 9 9 10 10 11 12 12 13 13 14 14 17 17 18 18 17 17 16 17 19 20 21 21 20 20 22 21 19 19 19 18 19 17 15 13 13 12 12 11 11
10 10 10 9 10 9 10 10 11 10 11 12 12 13 13 15 17 17 18 18 17 16 17 17 19 19 20 20 21 20 20 20 18 19 19 20 19 18 15 14 14 13 12 11 11
10 10 10 10 9 9 9 10 10 11 11 12 12 12 12 15 17 17 17 17 17 16 17 17 17 19 19 21 19 20 21 21 20 20 21 19 20 19 16 15 14 14 13 11 11
10 10 10 10 10 9 9 10 10 11 11 12 12 11 12 16 17 17 17 17 17 17 17 17 17 18 19 19 21 21 22 21 22 20 20 20 21 19 16 16 16 15 14 12 10
10 9 10 10 10 9 9 10 10 11 11 12 12 11 14 16 16 17 17 17 17 17 17 17 17 19 19 21 22 22 22 21 22 21 21 21 21 20 16 17 17 16 15 14 11
8 10 9 10 9 9 10 10 10 11 11 11 10 10 14 16 15 16 17 17 17 17 17 17 19 21 21 22 20 21 21 22 21 22 21 22 21 21 18 17 18 17 16 15 13
4 7 10 9 9 9 8 9 10 9 10 12 13 14 15 15 16 16 17 17 17 18 20 19 20 20 22 22 22 21 22 22 22 22 21 22 22 22 19 17 18 18 17 16 16
3 3 7 10 9 8 7 8 9 9 10 11 13 12 13 15 16 16 16 18 18 20 20 19 20 21 20 20 20 21 21 21 21 21 21 23 22 23 21 19 18 19 18 18 17
2 2 3 7 8 7 7 7 8 8 11 13 13 13 13 14 16 18 17 19 19 20 20 20 21 19 20 20 20 21 21 20 21 21 21 20 21 21 21 19 18 18 19 18 18
2 2 3 4 6 7 7 9 8 9 13 16 14 14 13 15 16 17 17 19 19 20 20 20 21 20 20 20 20 20 21 20 20 20 21 20 21 22 22 21 20 19 19 19 18
3 2 2 3 6 6 7 8 9 8 13 17 15 13 13 16 18 17 18 18 20 19 19 20 20 19 20 21 21 21 20 20 20 21 20 21 21 22 21 22 22 21 20 20 20
2 2 2 2 4 6 7 9 8 12 13 17 15 15 14 15 18 18 17 18 19 20 19 21 19 20 21 20 20 20 20 20 20 21 19 21 21 22 23 23 24 23 22 20 20
2 2 2 3 4 6 7 8 12 12 16 17 16 15 16 17 18 19 19 18 19 18 18 20 20 21 19 20 20 20 20 19 19 19 19 20 20 22 23 23 22 23 22 21 20
2 2 2 2 3 5 6 8 11 15 16 16 16 16 16 18 19 19 19 19 20 20 20 19 18 20 20 20 21 20 21 19 17 18 20 18 20 22 23 22 21 20 20 19 20
2 1 1 2 3 4 6 9 13 15 15 16 16 16 16 17 19 18 19 20 20 20 19 19 19 20 20 20 21 20 19 20 18 16 18 20 21 23 22 22 21 21 20 20 19
1 1 1 3 3 3 6 10 13 16 16 16 16 17 16 16 17 18 18 20 20 20 22 20 19 19 18 19 19 20 20 19 19 17 17 20 20 21 22 22 22 22 22 21 19
1 1 2 3 3 2 6 10 13 14 15 15 16 16 17 16 17 18 19 19 20 19 21 21 20 18 18 19 20 19 19 19 20 19 18 18 20 22 22 22 22 22 21 21 21
0 2 2 3 2 3 7 11 13 14 14 15 15 15 16 16 16 17 19 20 19 20 18 20 20 18 19 19 20 21 21 20 18 18 18 17 19 23 23 22 21 21 20 19 19
1 1 2 3 3 3 7 10 12 13 14 14 14 15 16 16 16 18 18 20 18 19 20 19 19 18 18 18 18 19 20 20 19 17 18 17 19 22 21 21 21 21 20 19 18
1 2 2 2 6 7 7 9 10 12 14 14 15 14 15 15 16 16 18 16 16 19 19 18 20 19 18 19 21 18 19 20 19 18 19 18 20 22 22 22 22 21 19 18 18
1 2 2 3 4 8 9 10 10 11 12 13 14 14 15 14 15 15 16 16 15 14 17 18 18 19 20 21 21 20 21 19 19 19 19 20 20 21 22 22 22 18 17 17 16
1 4 4 6 5 7 9 9 10 11 12 12 13 14 14 15 15 15 15 15 18 15 17 18 18 18 18 19 19 19 20 21 20 20 20 20 20 22 21 20 19 17 16 15 14
0 4 6 7 7 6 8 8 10 11 12 13 14 14 13 14 14 13 13 13 15 16 16 16 17 16 17 17 18 15 17 19 20 20 20 19 21 22 21 20 19 17 15 13 12

GFSSW_850_temp_048.txt.gz
Temp
9 9 9 10 10 10 12 11 12 12 13 14 14 15 15 17 18 18 18 18 18 19 18 18 18 19 19 21 22 22 22 22 23 22 23 24 24 23 18 21 14 13 13 14 13
9 10 10 10 10 10 11 11 11 12 12 13 14 14 15 16 18 19 18 18 18 19 18 19 20 20 21 22 23 24 23 23 25 25 24 24 24 19 13 18 13 16 15 12 13
10 10 10 10 10 11 11 12 11 12 12 13 13 14 15 15 17 19 19 18 19 19 19 19 20 21 22 23 24 24 23 24 25 24 24 24 23 22 22 17 14 13 13 12 12
10 10 10 11 11 11 11 12 11 11 11 12 13 13 15 16 19 19 19 18 19 18 18 19 20 21 22 23 24 23 25 25 25 24 23 24 22 22 20 15 14 12 12 12 11
11 11 10 11 11 11 11 11 11 11 11 11 12 12 14 15 17 18 18 19 19 18 17 20 21 22 23 24 25 24 25 24 24 23 23 23 19 16 18 14 13 12 12 11 11
10 10 10 11 11 11 11 11 11 11 11 12 11 11 11 14 18 18 17 19 18 18 18 20 21 22 22 23 24 24 24 24 24 24 23 15 12 12 17 17 14 13 11 11 11
7 9 10 11 11 11 11 11 11 11 11 11 11 10 10 14 18 18 17 17 18 18 20 20 21 21 22 23 23 24 23 24 24 24 23 19 16 14 17 18 17 14 12 10 10
4 5 8 11 11 11 11 11 12 11 11 11 11 10 10 17 17 17 18 18 18 19 20 20 20 20 21 22 23 23 23 22 24 23 19 19 15 16 17 19 19 15 13 11 11
3 3 4 9 11 11 11 11 12 11 11 11 11 10 13 16 16 17 18 18 19 19 19 19 20 20 21 22 22 23 22 23 23 23 22 17 12 13 15 20 20 17 15 13 11
3 3 3 4 9 10 11 11 12 12 10 9 9 12 13 17 18 18 18 18 19 19 19 19 20 20 21 21 20 22 23 24 22 22 22 22 16 14 14 21 20 19 16 14 13
3 4 3 3 5 9 11 12 12 10 9 13 15 15 18 18 18 18 18 18 19 20 20 20 20 20 21 23 24 24 23 23 23 23 22 23 23 16 15 18 21 19 17 16 14
3 4 3 3 2 7 8 7 13 11 12 14 15 15 16 17 18 18 19 19 19 20 21 21 20 22 23 24 23 23 23 23 25 24 24 24 24 19 15 18 21 20 18 16 15
3 3 3 3 3 7 8 9 11 11 12 14 16 16 16 17 17 19 19 19 20 20 21 20 22 24 23 23 22 23 23 23 22 24 24 24 23 23 23 23 22 21 20 18 16
3 3 3 3 5 6 7 9 10 10 12 16 19 18 18 17 18 18 20 19 20 20 21 22 23 23 22 22 23 22 24 24 23 22 21 23 20 23 23 21 23 22 21 20 19
2 2 3 3 5 7 9 10 10 9 11 21 21 18 18 18 20 19 19 20 20 21 21 21 22 22 22 22 24 22 23 23 23 22 22 22 21 23 24 22 23 23 22 21 20
2 2 2 2 3 9 8 9 10 11 12 19 19 18 18 18 19 20 19 20 20 21 21 22 24 23 23 23 24 24 23 22 22 22 20 22 23 20 20 20 23 24 23 22 21
2 2 2 2 3 5 6 7 10 12 19 19 19 19 18 18 18 19 20 20 20 19 19 21 22 24 24 22 24 23 21 19 19 19 19 23 22 22 22 22 24 25 24 23 22
2 2 2 1 4 4 5 6 10 15 16 21 21 20 18 19 19 19 20 19 21 21 20 20 19 22 23 22 22 21 21 19 16 15 18 20 21 23 24 25 25 25 25 24 23
2 1 1 2 3 3 4 6 11 14 18 17 20 19 19 19 20 19 20 20 21 21 19 19 20 24 23 23 23 22 20 22 17 17 17 19 20 23 25 25 25 24 24 24 24
1 1 2 2 3 3 4 6 11 14 17 18 17 19 19 20 19 19 19 21 21 22 21 21 20 23 24 23 23 22 23 20 21 17 17 21 22 22 23 24 24 24 24 24 23
1 1 2 3 3 3 4 6 10 13 15 16 16 18 19 19 20 19 20 21 22 22 21 21 20 21 23 22 21 21 21 20 21 21 18 18 20 18 22 24 24 24 24 23 23
1 2 3 3 3 3 5 8 9 12 13 15 16 16 18 19 19 18 20 21 22 22 20 20 20 19 21 23 23 23 22 22 19 19 19 17 19 24 23 24 25 24 24 23 23
1 1 2 3 3 3 6 8 9 11 13 15 15 16 18 18 18 19 19 22 21 21 20 20 19 17 20 21 22 21 22 22 22 21 19 15 18 24 24 24 24 24 24 23 22
1 2 2 2 5 6 7 8 9 9 12 14 15 17 17 17 17 18 18 21 20 20 19 18 19 19 17 19 21 20 21 21 20 17 17 19 20 22 23 22 24 23 23 23 23
1 2 3 3 3 7 8 9 10 9 10 12 15 15 16 14 16 16 18 17 19 20 19 19 18 19 20 21 22 21 21 21 21 21 20 20 21 23 24 22 22 23 23 23 22
0 4 5 7 4 6 7 8 9 11 11 11 13 15 16 15 16 16 17 18 18 19 18 19 18 18 17 20 21 20 20 22 22 22 22 22 22 24 24 23 23 24 23 22 22
0 3 6 6 6 6 7 9 10 11 12 13 14 14 15 16 15 11 15 14 17 18 17 17 17 16 15 19 19 17 20 22 22 23 22 21 22 24 24 23 24 24 23 22 21

GFSSW_850_temp_051.txt.gz
Temp
10 10 11 11 11 11 11 11 11 12 13 13 13 14 14 16 18 18 18 19 19 18 19 19 18 18 19 19 20 20 16 16 18 20 22 23 21 19 17 15 14 16 15 15 15
10 10 11 11 11 11 11 12 11 12 13 13 13 13 14 15 17 19 20 18 18 18 19 19 19 19 19 20 20 18 15 17 21 22 20 22 21 18 16 16 14 13 13 12 13
10 11 11 11 11 12 11 11 11 11 12 12 14 13 14 14 16 19 20 19 18 19 19 18 19 20 20 21 21 20 17 20 22 23 23 21 16 15 14 14 14 13 12 12 12
10 10 11 11 11 11 11 11 12 12 12 11 13 13 14 14 16 19 19 19 18 19 18 19 19 20 18 17 21 20 22 23 23 23 23 16 16 13 13 15 13 13 12 11 12
7 10 11 11 11 11 11 11 12 12 12 11 11 12 13 12 16 18 18 18 19 19 19 19 19 20 18 20 21 21 22 23 24 23 18 18 14 13 14 13 12 12 12 11 11
5 7 10 11 11 11 11 12 12 12 12 11 10 11 10 10 18 17 18 18 18 18 19 19 19 20 21 21 19 22 22 22 23 21 19 16 13 17 13 14 12 12 12 11 11
4 4 7 10 10 11 11 12 12 12 12 11 9 9 9 14 18 17 16 17 18 18 19 19 20 20 20 18 21 21 19 20 21 22 16 16 15 15 15 15 13 12 11 10 10
3 3 3 6 9 10 11 12 12 12 12 11 10 9 8 17 17 18 18 17 17 18 18 19 20 20 20 20 20 19 19 18 20 20 18 19 15 17 18 16 13 12 12 10 10
3 3 3 3 5 9 11 12 13 12 12 10 10 9 10 15 16 18 18 17 18 18 19 19 19 19 19 16 16 17 16 18 20 19 17 16 13 17 16 17 14 13 12 11 10
3 3 3 3 3 7 10 12 13 12 11 9 8 8 13 17 17 18 18 18 18 19 19 19 19 16 15 15 15 16 18 19 19 20 18 14 14 15 18 15 15 14 13 11 11
3 3 3 3 3 5 9 11 12 11 9 10 12 14 16 17 17 18 18 18 18 19 16 18 15 14 15 17 19 19 19 19 21 21 20 15 15 14 14 13 15 14 13 12 11
3 3 3 3 3 4 6 8 12 10 9 11 12 12 14 16 15 17 18 17 17 16 17 16 16 17 19 20 20 20 20 19 22 22 19 15 15 14 14 13 16 15 13 13 12
3 3 3 3 3 5 7 9 11 10 9 11 12 13 15 15 15 16 18 18 17 17 17 16 18 20 20 20 20 20 19 19 21 21 20 20 14 14 15 17 17 16 15 14 13
2 2 3 3 3 5 6 7 10 9 7 12 15 15 14 15 16 17 17 18 17 17 18 17 19 20 20 20 20 18 20 21 20 20 17 20 16 16 17 16 15 17 15 15 13
2 2 2 2 4 5 6 8 10 10 6 16 18 18 18 16 18 17 18 17 17 17 17 17 19 19 19 20 21 19 21 21 20 18 17 18 16 18 18 15 14 17 16 15 14
2 2 2 2 3 7 6 8 9 8 8 16 18 17 17 16 17 19 17 17 19 18 18 18 21 20 20 21 21 21 21 20 20 17 14 18 17 17 18 18 18 19 18 16 15
2 2 1 2 3 4 5 6 7 7 15 16 17 17 17 16 16 17 17 16 15 15 16 18 19 21 21 20 21 20 19 15 13 13 13 18 18 16 18 19 20 20 19 18 17
3 2 2 2 3 4 4 6 7 12 12 17 17 17 16 17 17 17 16 15 16 17 16 15 15 19 21 20 19 18 17 13 14 11 14 17 17 18 20 20 22 22 21 20 18
2 1 1 3 3 3 3 5 7 11 14 15 16 16 16 17 17 17 16 16 17 17 16 16 17 21 21 22 20 18 17 18 15 14 13 15 18 20 21 21 23 23 23 21 19
2 1 1 3 3 2 4 5 8 12 14 14 12 15 16 17 17 16 16 17 17 18 19 17 17 20 21 21 20 20 19 17 15 13 12 16 17 17 18 20 21 22 22 22 21
2 1 2 3 2 2 3 5 8 9 10 12 13 13 14 14 16 17 17 18 18 19 19 18 17 17 19 20 20 18 18 18 17 14 13 14 15 16 19 21 20 19 23 23 23
2 2 2 3 2 3 3 5 7 9 9 10 12 12 12 13 13 14 17 17 20 19 18 18 16 15 17 20 22 20 18 18 13 16 14 10 14 19 18 19 20 21 23 23 22
2 1 2 3 2 3 4 5 6 7 9 10 10 12 13 12 12 14 15 18 18 18 18 18 15 14 15 18 20 20 19 19 18 15 13 11 13 20 20 20 23 22 22 23 23
1 1 2 2 4 4 4 4 5 7 7 8 10 10 10 12 13 13 15 16 15 18 19 19 16 14 14 16 18 18 19 19 17 13 14 12 16 18 19 19 20 22 22 22 22
0 1 3 3 2 4 5 6 5 6 8 9 8 9 10 11 12 13 14 13 13 15 17 16 15 16 16 18 19 19 19 19 19 17 14 16 18 18 19 18 20 21 22 22 22
-0 2 3 4 4 3 4 5 5 7 8 9 8 9 10 10 12 12 11 11 10 13 14 15 14 15 15 17 18 18 19 18 18 19 18 18 18 19 20 22 21 22 22 22 22
1 3 4 4 3 3 4 4 6 7 8 10 9 9 9 10 13 13 11 11 11 9 10 13 13 12 13 16 16 13 15 18 18 19 19 17 17 19 20 19 20 21 21 21 22

GFSSW_850_temp_054.txt.gz
Temp
10 11 11 11 11 11 11 12 12 12 12 13 13 13 14 15 16 18 19 20 19 19 19 18 18 18 18 18 19 19 14 12 14 19 20 19 19 16 15 15 14 14 13 13 13
11 10 11 11 11 11 11 11 12 12 12 12 13 13 14 14 16 19 20 20 19 18 18 19 19 18 18 18 19 16 12 15 17 19 17 15 16 16 16 15 14 14 13 12 12
9 11 11 11 11 11 11 11 12 12 12 12 12 13 14 14 15 19 19 19 19 18 18 19 18 18 18 19 18 17 15 18 19 21 19 15 14 15 15 14 12 12 12 12 12
8 10 10 11 11 11 11 11 12 12 12 12 12 12 13 14 14 18 18 18 18 18 18 18 18 18 18 18 19 18 19 19 20 21 18 15 16 13 14 13 13 12 12 12 12
4 6 9 10 11 11 11 11 12 12 12 12 11 11 12 11 15 19 18 17 18 18 18 18 18 18 17 18 18 18 19 20 21 20 17 16 15 14 12 12 13 13 13 13 12
3 4 6 6 10 11 11 11 12 12 11 11 11 10 10 8 18 17 18 17 18 18 18 18 19 19 18 18 18 19 19 19 21 18 17 16 14 15 13 12 13 12 12 11 11
3 4 4 5 6 10 11 11 12 12 11 11 10 9 7 13 18 17 16 16 17 16 17 18 19 17 19 18 19 19 17 17 19 18 16 16 16 15 15 13 12 12 11 11 11
3 3 3 4 5 8 10 11 12 12 11 10 10 9 7 17 17 17 16 17 17 17 17 19 18 18 19 19 18 18 17 16 18 17 17 16 16 15 15 13 12 12 11 10 10
3 3 3 3 4 5 9 11 12 11 11 10 9 8 9 15 16 18 17 17 17 17 17 18 18 18 19 15 14 15 14 16 17 18 16 16 15 15 15 14 11 12 11 11 11
3 3 3 3 4 4 7 11 12 12 11 9 7 8 13 16 16 16 17 17 17 17 17 17 18 15 13 13 12 14 15 16 16 18 16 15 14 15 15 14 12 12 11 11 12
3 3 2 3 4 3 6 9 10 9 8 9 10 12 14 15 15 17 18 17 17 17 15 17 15 13 13 13 16 16 16 16 17 19 18 15 15 15 14 14 12 11 11 11 13
2 2 3 3 3 4 4 5 6 4 5 10 10 10 13 13 12 17 16 17 16 14 15 15 15 16 16 16 16 16 16 17 18 20 19 14 15 15 13 13 13 12 11 11 12
3 2 2 3 4 4 4 5 5 5 5 9 11 11 12 13 12 15 15 17 15 14 14 15 16 17 17 17 17 17 17 17 18 20 20 15 15 14 15 14 14 13 13 12 13
3 2 2 3 4 4 5 5 5 6 6 9 12 12 12 13 12 16 17 17 16 15 15 15 18 17 17 17 17 16 18 18 19 18 16 17 15 14 14 14 15 14 12 12 12
3 2 2 2 4 4 5 6 7 7 6 14 14 16 14 14 16 15 18 16 15 15 16 15 16 16 16 17 18 17 19 18 19 17 16 17 15 15 15 14 15 15 13 12 13
3 3 2 2 2 4 5 6 7 8 7 12 16 14 13 14 16 16 15 16 17 15 16 16 18 17 17 18 18 20 20 18 16 15 14 16 15 15 14 16 16 16 15 13 13
2 2 2 3 2 3 4 5 7 6 12 14 16 16 15 14 15 16 14 14 13 13 14 16 16 17 18 18 19 19 16 14 14 12 13 16 16 15 16 17 17 17 16 15 13
2 2 3 3 3 3 3 5 6 9 11 13 15 16 15 15 15 15 15 13 13 15 13 14 14 17 18 18 17 17 16 12 14 11 13 15 16 18 19 18 18 18 18 16 14
2 2 2 3 3 2 2 5 7 9 12 12 14 14 15 16 16 15 14 14 15 15 13 13 15 18 19 19 18 18 16 16 13 13 12 14 15 17 20 20 18 18 18 17 15
2 2 2 3 2 2 2 4 8 10 10 10 11 12 11 12 14 14 14 15 15 16 16 15 14 17 19 19 18 18 18 15 13 13 14 14 15 16 18 19 19 17 18 18 17
2 2 2 2 1 1 2 4 7 8 8 8 10 11 12 12 12 13 15 16 16 16 16 15 14 15 17 17 17 17 17 17 15 13 12 12 14 14 16 18 18 18 20 20 19
2 2 2 2 1 2 2 5 6 7 8 9 9 9 11 11 11 13 13 15 16 17 16 15 15 14 16 17 17 17 17 16 14 14 12 9 14 17 16 18 19 19 21 22 22
2 1 1 2 2 2 4 5 6 6 7 7 9 9 10 9 9 11 13 14 14 15 15 15 14 12 15 16 17 17 17 18 16 13 13 11 13 17 16 17 20 21 20 21 22
0 1 1 1 3 3 3 4 4 6 6 6 7 7 8 8 9 9 11 13 15 13 14 13 14 15 14 14 15 17 17 18 16 11 13 13 15 17 18 18 19 20 21 22 22
0 1 2 2 2 3 3 5 5 5 6 7 6 7 7 7 9 9 11 11 13 12 12 12 14 15 16 17 17 17 17 17 16 15 14 15 15 17 16 16 17 21 21 21 21
-0 1 2 3 3 3 3 4 4 5 6 6 6 8 8 7 8 9 9 10 11 12 11 10 11 14 13 16 16 16 17 17 17 17 16 16 15 17 19 19 18 20 21 21 22
1 2 3 3 4 3 3 3 5 5 6 6 7 7 7 8 9 10 10 11 10 11 9 9 8 9 13 15 16 13 15 15 17 16 17 15 16 17 17 17 17 19 21 22 21

GFSSW_850_temp_057.txt.gz
Temp
10 11 11 11 11 11 11 11 11 12 12 13 13 14 14 15 16 17 18 19 19 19 18 18 18 18 17 18 18 18 12 11 14 16 18 19 17 16 16 15 14 14 13 14 14
10 9 10 11 11 11 11 11 11 11 12 12 13 13 14 15 16 18 19 19 18 18 18 18 18 17 17 17 17 14 11 14 15 16 17 16 15 17 15 14 14 13 12 12 11
7 10 9 10 10 11 11 11 11 11 12 12 13 13 13 14 15 18 18 19 18 17 18 18 18 17 17 17 17 15 14 16 18 19 18 15 14 15 14 13 13 13 12 12 12
8 8 7 8 9 10 11 11 11 11 11 12 12 13 13 13 15 17 18 17 18 18 17 18 17 17 16 16 17 17 17 18 19 20 17 14 16 14 14 14 14 13 13 13 12
7 7 7 6 5 8 10 11 10 11 11 11 11 12 12 11 15 18 18 17 17 17 17 17 17 17 16 17 17 16 18 19 19 18 17 16 15 15 12 13 13 13 12 12 11
4 7 7 6 5 6 8 10 10 10 11 10 10 10 9 7 17 17 17 17 17 17 17 17 18 18 18 17 17 18 18 18 19 17 16 15 14 14 13 12 12 12 13 11 11
5 3 5 6 6 5 6 9 10 10 10 10 10 9 6 13 17 16 16 16 16 16 16 17 17 17 17 17 18 18 17 16 16 16 16 16 15 13 15 12 12 12 12 11 10
4 4 5 5 5 6 7 7 10 10 10 10 10 9 7 16 16 16 16 16 16 16 16 16 17 16 17 18 17 16 16 15 17 16 18 16 15 16 14 12 11 11 11 10 9
4 4 3 4 5 5 7 8 10 10 11 10 9 8 8 14 15 16 16 16 16 17 16 16 16 17 17 14 13 14 14 15 16 16 16 15 15 15 13 12 12 12 11 11 11
3 3 3 4 4 4 6 8 10 10 10 9 6 7 13 15 15 15 16 16 16 17 16 15 16 14 12 12 12 13 14 15 15 16 16 14 14 15 13 12 12 12 11 11 11
3 3 3 3 4 4 5 6 8 7 6 9 9 11 14 13 14 15 15 16 15 16 13 16 13 13 15 13 14 16 15 14 15 16 16 15 14 14 13 13 11 12 11 11 12
3 3 3 3 3 4 4 3 3 3 4 8 9 9 13 12 10 16 15 15 14 13 13 14 13 15 15 14 14 14 14 14 15 17 16 16 16 14 12 12 12 12 12 12 11
3 3 3 3 3 4 4 4 4 4 4 6 11 12 12 12 10 14 14 15 14 13 13 13 15 16 15 14 14 14 14 14 15 17 17 16 15 14 14 13 13 12 13 13 13
3 3 3 2 3 3 4 4 4 3 4 8 9 11 11 12 10 15 15 16 14 14 13 13 16 15 15 15 14 14 15 16 16 16 15 16 14 15 13 14 13 13 12 13 13
3 3 3 2 2 3 4 4 5 4 5 12 12 13 12 12 14 13 15 15 13 13 14 14 14 15 15 16 15 15 16 16 15 15 15 16 13 14 13 14 14 13 13 14 14
3 3 3 2 2 3 3 4 5 6 6 11 14 12 11 12 14 13 13 16 16 14 15 15 17 15 15 16 16 17 17 16 14 13 13 15 14 13 13 14 16 15 14 14 14
2 2 2 2 1 3 2 4 6 6 11 12 14 13 13 12 13 15 12 13 13 12 12 14 14 16 17 16 17 16 15 13 13 12 12 14 14 14 15 16 17 16 15 15 15
2 2 3 2 2 2 2 4 6 8 8 12 13 14 14 13 14 14 12 12 13 14 12 13 12 15 16 16 16 15 14 11 14 11 13 14 14 16 16 18 18 18 18 16 14
2 2 2 2 2 1 1 4 7 8 10 9 12 12 14 15 14 14 13 13 14 13 13 12 13 16 16 17 17 15 14 15 12 11 11 13 15 16 17 17 16 16 17 16 15
1 2 2 2 2 1 1 4 6 9 8 9 10 11 11 11 13 13 12 14 14 15 14 14 13 16 17 17 17 17 16 14 12 12 13 13 14 14 17 18 16 15 15 17 16
1 2 2 2 1 1 1 3 6 7 7 7 8 9 9 10 11 12 13 13 14 14 14 14 13 14 16 15 15 15 15 15 14 12 12 12 13 13 16 16 17 16 18 18 18
1 2 2 2 1 2 2 4 6 6 7 8 8 8 9 9 10 12 12 13 14 13 13 13 12 13 14 16 17 16 15 15 13 14 11 9 14 16 15 15 16 17 19 20 19
1 0 1 2 2 2 3 4 5 6 6 7 7 8 9 9 9 9 10 12 13 13 13 13 12 12 13 14 15 15 15 15 14 11 11 12 13 16 15 15 17 18 20 21 21
0 1 1 1 2 4 2 3 4 5 5 5 6 6 8 7 8 8 9 11 12 12 13 11 12 12 12 14 15 15 16 16 15 11 13 13 15 16 16 17 16 19 21 22 21
-0 0 1 2 2 3 4 4 3 4 5 6 5 6 6 5 7 7 9 10 11 12 12 10 10 10 13 15 16 16 15 15 14 15 14 15 13 16 16 16 17 21 20 20 21
-0 0 1 2 3 3 4 4 4 4 5 5 4 5 6 5 6 6 7 8 9 11 11 10 9 8 10 14 15 15 16 16 15 15 14 15 14 15 17 18 17 20 20 20 22
0 1 2 2 2 2 3 4 4 5 5 5 5 5 4 6 7 8 9 8 8 9 10 9 8 8 8 10 13 12 14 15 15 15 15 14 14 16 16 15 16 18 19 20 21

GFSSW_850_temp_060.txt.gz
Temp
9 9 10 11 11 11 10 10 11 11 11 11 12 12 13 14 15 16 17 18 18 18 18 18 17 17 17 17 17 17 11 11 14 14 16 18 17 16 16 15 14 14 14 14 14
5 7 9 9 10 10 11 10 10 11 11 11 12 12 13 13 15 17 18 18 18 18 17 18 17 17 17 17 16 13 11 13 13 14 16 17 16 16 15 14 14 14 14 13 13
6 6 7 7 9 9 9 10 11 9 11 11 11 12 12 12 14 17 17 18 17 17 17 17 17 17 16 16 16 13 13 14 16 18 18 15 14 15 14 14 15 14 13 12 12
6 6 6 7 7 8 9 10 10 10 9 11 10 11 12 12 14 16 17 16 17 17 17 17 17 16 15 14 16 15 16 16 18 18 16 14 15 14 14 15 15 13 12 12 12
4 5 6 6 6 8 8 9 10 10 9 9 10 10 11 10 14 17 17 16 16 17 17 17 17 17 15 15 16 15 16 18 19 18 17 15 15 14 13 15 13 12 12 11 11
3 3 4 5 6 7 8 8 9 10 9 9 9 10 8 6 15 16 16 17 16 17 17 16 17 17 17 16 15 17 17 17 18 18 16 15 14 15 16 14 12 12 11 11 10
4 4 4 4 5 6 8 9 9 9 9 9 8 8 7 12 15 14 16 15 15 15 16 16 16 17 16 16 18 17 16 15 16 16 15 15 14 12 16 14 13 12 11 10 9
4 4 4 4 4 5 6 8 9 8 9 9 8 7 7 14 15 15 15 15 14 15 16 16 16 15 16 17 16 16 15 14 16 14 15 16 14 15 15 13 12 11 11 10 9
3 3 4 4 4 5 7 8 8 9 9 10 8 7 8 13 14 15 15 16 15 15 15 15 15 15 16 14 13 12 13 14 15 15 14 14 14 13 12 11 12 11 11 10 9
3 3 3 3 3 4 5 7 8 8 8 7 5 6 12 14 14 14 14 14 14 15 14 14 15 12 11 12 12 13 13 13 13 16 13 13 13 13 12 11 12 12 11 11 10
3 3 3 3 3 3 3 6 6 6 5 6 7 10 12 12 13 14 14 14 13 15 12 13 11 12 13 13 13 14 14 14 13 14 16 14 13 15 12 10 11 12 12 11 11
2 3 3 3 3 3 3 4 2 3 3 6 8 7 11 11 8 14 14 13 13 12 12 12 12 14 14 13 14 14 14 13 13 15 14 14 14 13 11 10 11 12 12 12 10
2 2 3 3 3 3 3 3 3 3 4 5 8 9 11 10 9 12 13 14 12 12 12 13 13 15 14 13 13 13 12 13 14 13 15 15 14 15 14 12 12 13 14 14 12
2 2 3 2 3 3 3 3 3 3 4 6 7 10 10 11 9 14 13 15 12 13 12 12 14 14 14 14 14 13 13 14 14 14 13 15 12 14 15 13 12 12 12 13 14
1 2 2 2 2 2 3 3 4 3 4 11 10 11 11 11 13 12 13 14 12 12 12 13 12 14 13 14 14 15 14 14 14 13 14 14 12 13 13 15 14 11 13 14 15
1 1 2 2 2 3 2 3 4 5 6 9 12 11 10 11 12 12 12 14 15 13 14 13 15 13 15 15 14 16 16 15 12 12 12 14 13 12 14 15 16 15 15 17 15
1 1 1 2 2 2 2 3 4 6 9 11 11 11 11 11 11 12 11 11 12 11 11 14 13 15 16 15 14 15 13 12 12 11 11 13 13 14 15 14 15 15 16 17 17
1 1 1 2 2 2 1 2 4 8 8 10 11 11 11 12 12 13 11 11 12 12 11 13 12 13 14 14 14 13 14 11 13 11 13 13 13 15 16 16 18 17 18 17 16
0 1 1 2 2 2 1 2 5 8 8 8 9 11 11 13 13 13 11 11 13 13 13 11 12 15 14 15 16 14 13 14 11 11 10 12 14 15 16 16 16 15 15 16 17
0 0 2 2 2 1 1 2 5 8 7 7 8 9 10 10 11 12 12 12 13 14 14 13 13 15 16 16 15 15 14 13 11 12 12 12 13 14 16 16 15 16 14 17 17
-0 1 2 2 1 1 2 1 4 6 6 7 7 7 8 8 10 11 12 12 12 13 13 13 12 13 15 14 14 14 14 14 13 11 12 12 12 12 15 16 15 14 17 19 18
-0 1 2 2 1 0 2 2 5 5 6 7 7 7 8 8 9 9 11 11 11 11 12 12 12 11 14 14 15 15 13 14 12 13 10 9 14 15 14 14 14 15 18 19 20
0 0 1 1 2 2 2 2 4 5 6 6 6 6 7 8 8 9 9 10 10 11 11 12 11 10 11 13 14 14 14 14 12 11 10 12 13 15 14 15 16 16 20 20 20
-0 0 0 1 1 3 2 3 3 4 4 5 5 6 6 6 8 7 8 10 10 11 12 11 11 11 11 12 13 14 14 14 13 10 11 10 14 16 15 15 16 17 19 20 21
-0 -0 1 2 1 3 3 3 3 4 4 5 5 5 5 5 6 7 8 7 9 11 11 10 10 9 10 11 12 13 14 14 13 13 12 14 12 15 15 15 16 21 21 20 21
-1 0 1 1 3 2 3 3 4 4 4 4 4 5 5 4 5 5 6 7 7 9 8 10 9 8 10 10 11 11 13 13 13 13 13 13 13 14 15 16 16 18 19 18 20
-1 0 1 2 2 2 2 4 3 5 4 5 5 4 4 5 6 6 7 6 7 7 7 8 7 7 9 9 9 10 12 13 14 14 14 14 13 15 15 14 15 18 19 20 20

GFSSW_850_temp_063.txt.gz
Temp
8 8 9 9 9 9 10 10 9 10 11 11 12 12 13 13 15 15 16 18 17 17 17 17 17 17 16 16 17 16 17 17 17 16 20 18 18 16 16 15 15 15 15 15 14
7 7 7 8 9 9 9 9 9 9 10 11 11 12 13 13 14 17 17 18 17 17 17 17 17 16 16 16 16 17 16 17 17 17 19 19 17 17 16 15 15 15 15 15 14
6 6 6 7 7 8 8 9 9 9 9 10 11 12 12 13 14 16 16 16 17 16 16 17 17 16 15 15 15 14 18 16 17 17 17 17 16 15 16 17 15 15 15 14 13
5 5 6 5 6 7 7 8 9 9 9 9 10 11 12 12 14 15 15 15 16 15 16 16 16 16 16 16 15 16 16 17 18 18 16 16 15 15 15 16 16 15 15 13 12
4 4 4 5 6 5 6 7 8 9 9 8 9 11 12 10 13 16 15 15 15 15 16 16 16 16 16 16 15 16 18 16 18 17 16 15 16 16 15 16 14 15 13 11 11
3 4 4 4 5 6 6 6 8 8 8 8 8 10 9 6 14 15 15 16 15 15 15 16 17 17 16 16 17 17 16 17 17 17 16 16 16 14 16 15 14 14 12 10 10
2 3 4 4 5 5 5 6 7 7 7 9 9 9 7 12 14 14 14 15 14 15 15 16 16 16 16 16 17 16 17 17 18 17 17 15 17 15 15 14 11 11 12 10 10
3 3 3 3 4 4 5 6 7 8 8 9 9 9 7 13 14 15 14 14 14 14 14 15 15 15 16 16 15 17 16 17 18 15 15 16 19 17 14 12 11 10 10 10 9
2 3 3 3 3 4 5 6 7 8 8 8 9 9 7 11 13 14 14 14 15 13 14 14 14 15 15 16 16 14 17 15 17 16 16 16 18 17 13 12 13 11 10 10 9
2 3 3 3 3 3 4 5 7 6 6 6 6 9 11 11 13 13 13 13 13 14 12 13 13 15 14 16 16 16 15 15 16 16 16 16 17 18 13 12 14 12 10 10 9
2 2 3 2 3 3 4 5 6 5 5 5 5 9 11 10 11 13 13 13 12 13 13 12 14 14 15 15 15 15 15 16 16 16 16 17 17 18 15 12 13 13 11 10 10
2 2 2 2 3 3 3 3 2 2 2 4 7 6 10 11 6 12 12 12 12 13 13 13 13 15 14 15 16 16 16 16 16 16 16 18 18 19 16 15 14 14 12 10 10
1 2 2 2 2 3 3 2 2 2 3 5 6 5 7 9 7 9 11 12 13 12 13 14 15 15 15 14 15 15 15 15 16 15 16 16 18 18 18 14 13 13 13 12 12
1 1 2 2 2 2 3 2 3 3 4 6 6 7 8 9 8 11 11 13 12 13 13 14 15 14 15 15 15 15 15 16 15 16 17 16 17 18 19 17 15 15 13 12 11
1 1 1 1 2 2 2 2 3 4 5 11 9 10 10 10 12 11 12 12 13 13 13 14 13 14 14 15 15 17 15 15 15 15 15 16 16 18 16 19 20 18 14 14 14
0 1 1 1 1 2 2 3 4 4 6 10 11 10 10 10 11 11 11 12 14 13 13 15 14 15 17 15 15 16 16 15 14 14 14 16 17 18 18 19 19 19 16 14 14
0 1 0 1 1 1 2 3 4 4 9 10 10 11 11 11 11 12 11 11 13 12 12 14 14 15 15 15 14 16 16 15 14 14 15 15 15 19 19 19 18 19 19 16 15
0 0 1 1 1 2 1 2 3 8 8 10 10 10 10 12 12 12 11 11 13 13 13 13 13 14 15 15 15 15 16 15 15 14 16 14 16 19 19 18 17 17 16 16 15
-0 0 0 2 1 2 1 2 5 6 8 7 9 10 10 12 11 12 11 11 13 13 13 13 14 14 14 15 16 14 14 16 14 12 14 16 16 18 19 19 18 18 16 15 13
-1 -0 1 2 2 1 1 3 4 7 7 7 7 8 8 9 10 11 11 11 12 13 14 13 13 15 16 16 15 16 16 15 13 15 14 15 15 18 19 20 19 18 18 16 14
-1 -0 1 2 2 1 2 2 4 6 6 6 6 7 7 8 9 10 11 11 11 11 13 13 14 14 15 15 15 15 15 15 16 14 16 15 16 16 19 19 18 18 17 17 17
-2 -0 1 1 1 1 2 2 4 5 6 6 7 7 7 8 8 9 9 10 9 11 12 13 12 12 14 15 15 16 16 16 15 14 12 13 17 16 17 17 16 17 18 19 20
-1 -0 1 1 1 1 2 2 4 5 6 6 6 6 7 7 8 8 8 10 9 11 11 12 12 12 13 14 14 15 15 15 13 12 15 14 16 16 16 17 17 16 19 20 20
-1 -0 -0 0 1 2 2 2 3 3 4 5 5 6 6 6 8 8 8 9 9 10 11 11 11 11 12 12 12 13 14 15 16 13 14 14 16 17 17 18 20 18 20 20 21
-1 -1 0 0 0 1 3 3 3 4 4 4 5 5 6 6 6 7 8 8 9 9 10 10 10 10 11 11 11 12 13 14 14 15 15 16 15 17 16 17 19 18 18 18 20
-1 -0 -0 1 1 1 1 3 4 4 5 4 4 5 5 5 6 6 6 7 7 8 8 8 10 9 10 11 12 12 13 13 14 14 14 15 15 16 17 16 15 17 17 18 19
-1 -1 -0 2 1 1 2 3 4 5 4 5 5 4 4 5 5 5 5 6 6 6 7 7 8 9 10 9 11 11 12 13 13 14 14 14 15 17 17 16 15 17 17 17 20

GFSSW_850_temp_066.txt.gz
Temp
7 7 8 8 8 9 9 9 9 10 11 11 11 12 12 13 14 14 15 17 17 17 17 16 16 15 16 18 18 19 22 23 23 22 23 23 22 22 20 20 19 18 18 17 16
6 7 7 8 8 8 8 8 9 9 9 10 11 12 12 12 13 15 16 16 17 17 16 15 16 16 18 19 19 20 22 23 24 24 23 23 23 22 20 22 21 19 16 15 15
6 6 6 7 8 8 8 8 8 8 9 9 10 12 12 12 12 16 15 16 16 16 15 16 17 17 19 19 19 20 22 24 22 22 22 22 22 21 22 23 23 21 18 15 14
4 5 5 6 7 7 7 8 9 8 9 9 9 10 11 12 16 15 15 14 15 15 14 15 17 18 20 20 20 20 21 22 22 22 21 22 21 21 21 21 18 18 16 15 14
3 3 5 6 6 6 7 7 8 8 8 8 8 9 11 10 13 14 15 14 14 13 15 16 17 18 20 21 20 20 22 22 21 21 20 21 21 22 21 20 17 16 15 14 13
2 3 4 5 5 5 6 7 8 8 8 8 9 8 7 10 13 14 14 14 13 13 15 16 18 18 19 20 20 21 21 22 21 21 21 20 22 19 22 20 17 16 16 13 13
3 4 4 4 4 4 6 7 7 8 9 8 8 7 5 9 13 14 13 13 13 13 15 16 17 17 19 20 19 20 20 22 22 21 22 20 21 21 22 18 17 16 15 14 13
2 3 3 3 4 4 5 7 7 8 9 8 8 6 6 11 12 13 14 13 13 13 12 15 15 16 17 19 19 20 21 21 23 23 21 20 21 24 20 18 18 17 15 14 13
2 2 3 3 3 4 5 7 7 8 8 7 7 5 9 10 11 13 13 12 12 12 12 13 14 16 18 19 20 20 21 21 22 22 22 20 22 22 18 19 19 17 16 14 14
2 2 2 3 3 4 5 7 7 6 5 6 4 6 10 11 11 11 12 11 11 13 13 13 15 18 18 19 19 20 20 21 21 22 20 22 22 24 22 19 19 19 17 16 14
1 1 2 2 3 3 5 5 7 7 5 7 9 8 9 10 10 11 10 11 12 13 15 15 17 17 19 19 21 21 21 21 22 22 20 21 22 23 24 20 20 20 18 16 15
1 1 1 2 3 3 3 4 2 1 3 5 6 7 8 8 9 10 10 11 13 15 17 16 16 18 20 20 19 19 20 21 22 21 20 22 22 24 24 23 22 21 19 18 15
1 1 1 2 2 3 3 3 2 2 5 7 7 7 8 7 8 10 10 10 13 14 16 17 17 18 18 18 18 19 19 20 20 20 21 20 21 23 24 22 21 20 20 19 16
0 1 1 2 2 2 3 2 2 2 6 10 9 9 7 8 9 10 9 9 12 14 16 16 18 17 18 17 18 18 20 20 20 19 20 20 20 23 23 23 23 22 19 19 17
0 0 1 1 1 2 2 3 2 3 9 12 11 9 9 10 12 11 9 10 11 13 15 16 16 17 17 18 19 19 20 19 19 19 19 20 20 23 23 22 23 24 22 19 17
0 0 0 1 1 2 2 3 3 6 9 12 12 12 11 11 12 11 10 10 11 10 10 14 17 17 18 19 19 19 18 18 19 19 18 20 20 22 23 23 23 24 23 21 18
-0 -0 0 0 2 2 3 3 7 8 12 12 11 12 12 12 12 12 10 10 12 10 10 12 16 17 18 18 18 18 18 17 17 17 18 21 20 21 23 23 24 23 23 21 19
-0 -0 -0 0 1 1 2 4 6 10 10 12 11 12 12 13 13 12 12 10 12 13 14 12 13 17 17 18 17 18 19 19 17 18 19 20 19 21 23 24 23 22 22 21 19
-1 -1 -0 0 1 2 1 4 8 9 10 9 11 12 12 13 12 13 12 13 13 14 14 14 14 17 17 18 19 17 17 20 18 17 19 20 20 21 23 23 24 23 22 21 20
-1 -1 0 1 1 1 2 4 7 9 9 9 9 10 10 11 11 10 11 12 13 14 16 16 15 17 17 17 19 19 20 17 17 17 17 20 19 20 22 23 23 23 23 21 19
-1 0 2 2 1 1 2 5 7 8 8 8 9 9 10 10 11 9 7 9 11 12 15 15 16 16 17 16 18 18 18 18 19 19 18 18 20 21 22 23 22 23 22 21 20
-1 1 1 1 1 3 2 5 5 8 8 9 8 9 9 9 10 10 8 9 9 10 13 14 15 15 16 18 19 20 19 19 17 17 18 18 20 20 21 23 21 22 22 21 20
-1 1 1 1 3 3 3 5 5 7 8 9 8 8 9 9 9 11 6 8 9 9 11 13 14 14 15 16 17 17 18 18 19 18 17 16 19 21 20 21 22 22 22 22 21
-1 0 1 0 1 4 4 5 5 6 7 8 8 8 8 9 10 9 10 7 7 9 10 12 14 14 15 16 16 16 17 18 17 16 17 18 19 20 20 21 22 22 22 22 21
-2 -0 3 2 2 3 3 5 4 6 6 7 7 7 8 7 8 9 10 10 8 9 10 11 10 12 13 13 14 14 15 16 17 18 17 18 19 19 20 21 21 20 20 21 20
-2 -1 0 3 0 2 2 3 4 7 7 7 7 8 8 7 8 8 8 9 9 9 10 11 9 11 12 13 14 14 15 16 17 17 17 18 18 20 20 19 19 19 20 21 21
-2 -1 -1 3 4 3 3 4 4 5 7 7 7 6 6 7 7 7 7 7 8 8 8 9 8 10 11 13 13 13 15 16 16 17 17 16 17 18 18 18 18 19 18 18 19

GFSSW_850_temp_069.txt.gz
Temp
7 7 7 8 8 8 8 9 9 9 9 10 10 11 12 13 14 14 14 16 15 17 16 15 16 17 18 20 21 22 23 24 26 26 26 26 25 24 24 23 24 23 22 21 17
6 7 7 8 8 8 8 9 9 9 9 9 10 10 11 12 14 15 15 15 15 15 16 17 17 18 19 20 22 23 23 24 27 27 26 26 25 25 24 24 25 24 22 19 17
5 7 8 7 7 8 8 8 8 9 9 9 10 10 10 11 12 17 15 15 16 15 16 18 19 19 20 21 22 23 23 26 26 25 25 26 25 25 25 24 24 23 22 21 18
4 6 7 7 7 7 7 7 7 8 8 8 9 10 10 10 16 16 15 15 15 15 14 17 18 20 21 22 22 23 24 24 25 25 24 25 24 25 24 24 23 22 21 20 17
3 4 5 6 6 6 6 7 7 8 8 8 9 9 10 11 13 15 14 14 15 14 15 17 19 20 21 23 23 23 24 24 24 24 24 23 24 24 24 24 23 22 19 19 17
2 3 4 5 5 6 6 7 7 8 8 9 9 9 6 10 13 14 13 14 15 14 16 17 19 20 21 22 24 24 24 23 23 24 24 24 24 23 24 23 23 21 20 19 17
2 3 3 4 4 5 6 7 7 8 9 9 9 8 7 11 13 14 13 13 14 14 16 17 18 20 21 22 22 23 23 24 24 24 25 24 24 24 24 24 23 22 20 19 18
2 2 3 3 4 5 6 7 7 8 9 9 9 6 9 12 12 12 12 13 14 14 14 15 17 18 19 21 22 22 22 22 24 25 25 24 22 25 25 24 23 22 21 19 18
1 2 2 3 4 4 5 7 8 8 9 8 7 7 11 11 11 12 12 12 13 13 14 15 16 17 18 20 21 22 21 22 24 26 25 24 23 26 24 23 23 23 22 20 19
1 2 2 2 3 4 5 7 7 7 6 6 7 8 10 13 13 13 12 12 13 12 14 15 16 18 19 20 19 21 22 23 24 26 24 24 24 25 25 24 23 23 23 21 19
1 1 1 2 3 3 5 7 9 9 8 10 12 11 13 13 12 13 12 12 12 12 11 16 17 17 19 19 21 22 24 24 25 26 24 24 24 25 26 25 24 24 23 22 20
1 1 1 2 3 3 5 7 5 4 5 7 8 9 10 10 11 12 11 12 11 12 13 17 17 19 20 20 21 21 22 23 24 25 23 23 24 25 26 26 25 24 24 23 20
0 1 1 1 3 4 5 5 5 4 7 10 11 11 11 11 11 12 12 12 11 10 11 14 19 19 19 19 20 21 21 22 23 24 23 23 23 24 26 26 25 24 24 24 22
0 0 1 2 3 4 6 5 5 4 8 14 14 13 11 10 12 11 12 11 9 9 10 14 18 18 18 18 21 20 22 22 22 22 21 24 22 25 26 26 26 25 24 24 22
0 0 0 1 2 4 5 5 4 4 12 15 14 12 11 12 13 13 12 11 10 9 9 11 16 17 17 18 20 20 22 22 22 21 21 22 22 24 26 25 26 26 25 23 23
-0 0 0 2 2 3 4 4 5 8 12 14 15 15 14 14 14 13 12 11 11 9 9 10 12 14 17 19 20 21 21 21 21 21 19 21 22 23 25 26 25 26 25 24 23
-0 -0 0 1 3 3 3 4 9 10 15 15 14 15 15 15 15 14 11 10 9 7 9 11 12 15 16 18 19 20 19 18 18 18 18 23 22 23 26 25 25 25 25 24 23
-1 -0 -0 1 1 2 3 7 8 13 14 16 14 14 15 16 16 14 13 11 11 10 9 9 10 14 17 18 18 19 20 19 18 18 20 23 21 23 26 26 25 24 24 24 23
-1 -0 1 1 1 2 3 6 10 12 14 13 13 13 15 15 14 15 14 13 12 11 8 11 11 15 15 18 18 19 19 21 20 19 20 22 23 24 24 25 25 25 25 24 23
-0 1 1 2 2 1 3 5 10 12 11 12 11 13 13 14 13 13 13 11 10 12 12 11 12 15 14 17 17 18 21 18 20 17 17 21 22 23 23 24 25 25 25 24 23
-0 1 3 2 2 1 3 6 9 10 11 10 11 12 12 13 13 11 11 9 8 9 11 14 14 14 16 14 16 16 18 19 20 20 18 19 21 24 23 23 24 24 24 23 22
0 1 3 2 1 3 3 7 8 9 10 10 11 11 11 12 12 12 8 9 7 8 10 14 14 13 15 18 17 18 19 19 18 18 20 20 19 23 24 24 24 24 24 23 23
-0 2 2 1 3 4 6 7 8 9 10 10 10 11 12 11 10 12 10 8 7 7 9 8 12 12 13 15 19 17 18 19 19 19 15 17 20 23 22 22 23 24 24 23 23
-1 1 3 1 2 5 6 6 7 8 9 9 10 11 11 10 11 11 11 9 8 7 7 9 11 12 14 15 18 17 19 20 19 17 18 18 20 22 22 22 22 23 23 23 23
-1 1 3 3 4 5 6 6 7 8 8 9 9 10 9 8 9 10 11 12 11 7 8 10 8 11 15 14 16 17 18 19 19 19 18 19 19 21 21 21 21 21 21 21 22
-1 1 3 4 5 5 6 6 6 8 9 8 9 10 10 10 10 10 11 11 10 10 8 8 8 7 12 15 15 16 17 17 18 18 18 18 18 21 21 21 20 20 20 21 21
-2 -0 1 3 5 4 5 6 7 8 8 8 9 10 10 9 8 9 9 9 10 10 9 8 7 7 9 11 13 13 15 16 16 17 18 17 18 18 19 19 19 18 18 16 17

GFSSW_850_temp_072.txt.gz
Temp
7 8 8 9 8 9 9 9 10 10 10 10 10 11 11 11 13 14 13 16 16 16 16 16 15 16 18 20 21 22 22 22 23 25 27 28 26 25 25 25 25 24 24 23 19
5 7 7 8 8 7 8 8 9 9 10 10 10 10 10 11 12 15 16 16 16 16 16 15 17 18 19 20 21 23 22 23 25 26 27 27 27 26 26 25 25 25 24 22 19
3 4 4 7 7 7 7 8 9 9 9 10 10 10 10 11 9 16 15 15 15 16 16 15 17 19 19 20 21 22 22 24 25 26 26 26 26 26 26 25 25 25 23 23 20
4 3 3 6 6 7 7 8 8 9 9 9 9 9 10 10 15 16 16 16 16 16 16 15 16 19 21 21 22 22 23 24 24 25 25 26 25 25 25 25 24 24 23 22 21
3 3 3 4 6 6 7 8 8 9 8 9 9 9 9 11 12 15 15 15 15 15 15 16 17 19 20 22 22 23 24 24 24 24 25 25 25 25 25 25 24 24 22 20 20
2 2 3 3 4 5 7 7 8 8 9 9 9 8 6 9 14 15 15 15 15 17 16 16 18 19 20 22 22 23 24 24 24 25 25 25 25 25 24 24 24 24 23 21 20
1 2 2 3 3 4 6 7 7 8 9 9 9 8 5 10 14 14 14 15 15 15 16 17 18 19 20 21 22 23 23 24 24 24 24 24 24 24 25 25 24 25 24 22 20
1 1 2 3 3 5 7 7 8 8 9 9 8 6 7 12 12 13 13 14 14 14 15 15 16 17 18 20 21 22 22 21 24 24 25 24 22 25 25 25 25 24 24 22 21
1 1 1 2 4 5 6 8 9 8 8 7 8 7 10 13 12 14 14 13 14 15 15 15 16 15 17 19 19 20 20 21 22 25 25 25 23 25 25 25 25 24 24 23 21
0 1 1 2 3 5 6 8 10 8 8 7 7 9 11 13 14 14 14 13 14 14 14 15 16 16 17 17 17 18 20 21 22 25 25 25 24 25 25 25 25 24 24 23 21
1 1 1 1 2 4 6 7 10 9 8 11 12 12 13 14 13 14 14 14 14 14 14 15 14 15 17 18 19 20 20 21 24 25 25 24 24 25 26 26 25 25 24 24 22
0 1 1 1 2 4 5 6 7 6 7 8 9 10 11 11 12 12 14 13 14 14 15 13 13 15 16 19 19 19 19 20 23 25 24 24 24 25 26 26 26 25 25 24 22
0 0 1 1 3 5 5 7 6 6 7 10 13 13 14 13 13 13 13 14 14 14 13 11 14 15 14 18 18 19 19 20 21 23 25 24 23 23 25 26 26 26 25 25 23
0 0 1 1 2 3 6 7 6 5 7 14 14 14 13 12 14 13 13 14 12 12 13 9 10 14 11 13 18 18 20 21 21 21 21 24 21 24 25 25 26 26 25 25 24
-0 0 0 1 2 3 5 5 6 5 9 16 15 13 14 14 15 14 13 14 13 11 10 10 11 12 12 14 18 18 19 19 21 21 21 22 21 23 25 25 26 26 25 24 24
-0 0 0 1 2 3 4 4 5 6 10 15 16 15 15 15 16 14 14 13 12 12 12 11 12 10 10 13 16 18 17 16 19 20 18 21 21 22 24 25 26 27 26 25 24
-0 0 0 0 2 2 3 4 6 9 16 16 16 16 16 16 17 16 13 12 12 9 10 11 11 10 11 11 15 15 13 12 15 17 17 21 21 22 25 26 26 26 26 25 24
-1 -1 -0 0 1 2 3 5 7 13 14 17 16 16 15 16 17 16 14 13 13 12 10 9 9 11 11 12 12 15 14 15 14 16 18 21 20 23 26 27 26 25 26 25 24
-1 -1 -0 1 1 2 2 4 9 12 15 15 16 13 14 17 16 16 15 14 14 13 9 10 11 13 12 12 12 13 14 17 17 18 18 21 23 24 25 25 25 25 25 25 25
-1 -1 0 2 2 2 2 4 9 12 14 13 12 14 13 15 14 15 13 11 10 12 13 10 8 12 12 13 12 12 15 14 17 14 14 20 21 22 23 24 25 25 25 25 24
-2 -0 2 2 2 1 2 5 8 9 10 12 11 12 13 14 14 14 13 8 10 10 11 11 8 11 10 10 12 13 15 15 17 18 17 17 19 18 22 24 24 24 24 24 23
-2 0 3 3 1 1 2 5 8 10 11 11 11 11 11 12 13 13 13 9 9 9 9 9 9 10 11 15 14 15 14 16 15 15 18 17 19 22 24 24 24 24 24 23 23
-1 2 2 1 2 3 5 6 7 9 10 10 11 11 12 11 11 12 13 10 9 8 7 7 9 10 11 14 12 12 13 14 15 15 15 14 18 22 23 23 23 24 24 24 23
-1 1 3 1 3 5 5 6 7 9 10 10 11 12 11 11 12 10 10 10 9 9 6 7 8 10 11 11 10 12 14 15 15 12 14 14 18 18 21 22 23 23 22 22 22
-2 1 2 3 3 4 5 4 7 8 10 10 10 10 10 10 11 10 12 11 9 7 8 6 7 8 8 10 11 11 13 14 15 16 16 17 17 18 17 18 21 21 21 21 21
-1 1 3 1 4 5 6 6 7 7 9 9 9 10 11 10 11 10 11 10 9 9 9 7 7 7 9 11 12 9 15 15 14 15 18 19 17 19 20 20 19 18 17 17 17
-2 -0 1 2 4 4 4 6 7 8 8 7 8 9 9 10 9 9 9 8 8 9 8 8 7 6 7 8 10 12 13 14 15 16 16 15 14 18 18 19 17 16 15 15 15

GFSSW_850_temp_075.txt.gz
Temp
6 4 4 6 8 8 8 9 9 9 10 10 10 11 12 13 14 14 14 16 15 15 16 16 16 16 16 16 17 19 16 16 17 19 21 24 24 25 25 25 25 24 24 24 21
4 5 5 5 7 8 8 8 8 9 9 9 10 11 11 12 14 15 16 15 15 15 15 15 16 16 16 17 18 17 15 17 19 20 21 23 23 25 24 24 24 24 22 22 21
3 4 6 7 7 7 7 8 8 8 8 8 9 10 11 11 12 15 16 16 16 16 16 16 15 16 17 17 18 18 17 19 20 22 22 22 22 25 24 22 24 23 22 22 21
2 3 4 6 7 8 7 7 7 8 8 8 9 9 10 11 13 15 15 15 15 15 16 15 15 15 15 15 18 16 19 20 20 22 22 21 23 23 24 24 24 24 24 21 21
3 3 3 3 5 6 7 7 7 8 8 8 8 8 8 8 12 15 15 15 15 15 15 15 15 15 15 17 18 18 19 20 21 22 22 23 22 22 23 25 24 24 23 22 21
2 2 4 4 4 5 7 8 8 8 8 8 7 7 6 5 15 14 14 15 14 15 15 16 16 16 17 17 17 19 20 20 21 22 22 22 22 22 24 24 24 24 23 22 21
2 2 2 4 5 6 7 7 8 9 8 7 7 6 4 11 14 14 14 14 14 15 15 15 15 15 16 16 19 19 18 19 20 21 20 23 20 21 23 24 24 24 24 22 21
1 1 2 2 4 6 7 7 8 9 8 7 7 6 5 14 13 13 13 13 13 14 14 15 15 15 15 17 17 17 18 17 19 20 21 20 19 20 24 24 24 24 24 21 21
1 0 1 2 3 5 7 8 9 9 9 7 6 6 6 12 13 14 14 14 14 14 14 15 15 15 15 14 14 15 15 16 19 21 21 20 20 22 24 24 23 23 23 22 21
1 1 1 1 2 5 7 8 10 9 8 8 6 5 9 13 14 13 14 14 14 14 14 14 14 12 12 12 12 14 15 16 18 20 21 20 20 22 23 23 23 24 24 22 21
1 1 1 1 3 5 6 7 7 8 8 8 9 9 11 13 13 12 14 14 14 13 12 14 11 11 12 13 14 15 16 16 18 21 21 21 21 21 22 22 20 22 24 23 21
1 1 1 1 3 5 5 6 7 6 6 7 9 9 10 11 10 11 13 13 13 11 12 11 10 12 14 15 16 15 15 16 18 20 20 20 20 20 20 20 22 21 23 23 21
0 0 0 1 3 4 4 5 6 6 4 6 9 9 10 12 11 12 13 13 12 11 12 11 13 13 13 14 14 13 13 17 17 19 19 20 20 20 22 22 24 23 24 24 21
0 0 0 1 3 3 5 5 6 6 4 9 12 13 13 13 13 13 14 13 12 11 10 9 10 11 11 12 13 11 14 16 18 18 14 17 17 18 21 21 22 23 23 23 21
0 0 0 0 1 3 3 4 4 5 4 14 14 14 14 13 14 13 14 13 11 11 9 10 9 10 9 12 13 12 14 15 15 13 13 15 17 18 19 20 21 22 22 23 21
0 0 0 0 1 2 2 4 4 4 5 14 14 13 13 13 14 13 13 13 13 11 11 10 12 9 9 12 13 12 12 14 12 12 11 14 16 17 19 20 22 23 22 24 20
-0 0 -1 -0 0 2 2 3 4 5 12 15 13 14 13 14 14 13 12 10 9 8 8 10 10 11 10 9 11 11 11 10 11 11 11 17 17 18 19 21 22 21 21 23 21
-0 -1 -0 -0 1 1 -0 2 3 9 10 15 15 15 14 15 14 13 11 9 10 10 9 8 8 10 11 9 11 12 9 11 12 11 14 18 17 19 21 22 23 25 25 23 21
-1 -1 -1 1 1 1 0 1 5 8 12 12 13 13 13 14 14 14 11 11 12 10 8 9 10 11 11 11 10 10 9 11 11 13 11 16 19 20 21 22 21 22 23 21 21
-2 -1 -1 1 1 0 0 2 5 8 10 10 11 13 12 12 14 14 12 9 10 11 11 10 8 11 12 10 10 10 12 10 8 11 11 15 17 17 20 20 20 21 20 23 22
-2 -2 0 2 1 1 1 2 5 7 7 9 10 11 11 11 11 12 9 7 10 10 10 10 7 10 10 8 8 9 9 9 9 10 13 12 14 15 18 20 19 19 21 23 21
-2 -1 2 1 0 0 1 3 5 6 6 8 9 10 10 10 10 10 11 9 9 9 8 7 7 7 10 12 11 10 9 9 9 11 13 12 12 16 19 20 19 19 23 23 23
-2 -2 0 2 0 1 2 3 4 5 6 8 8 10 10 9 9 10 10 9 9 8 7 7 7 7 10 12 13 10 10 10 9 10 10 11 13 15 19 19 20 19 21 21 21
-2 -1 0 1 -0 1 2 3 4 6 6 7 8 9 9 9 10 9 10 9 9 8 7 7 7 7 8 8 7 7 9 11 10 10 11 12 15 15 15 17 17 17 17 18 18
-2 -1 0 -3 -0 0 2 2 4 5 8 8 8 8 8 7 8 8 10 8 8 7 6 6 5 7 8 9 9 9 9 8 11 10 10 13 15 13 14 14 15 15 15 15 15
-2 -1 1 -1 0 1 3 4 3 4 4 6 7 8 8 7 8 8 8 8 7 6 6 6 5 6 7 10 8 8 9 8 10 11 11 12 12 11 13 12 14 14 14 14 14
-2 -1 -2 1 2 0 1 3 5 6 7 7 5 5 5 6 6 8 7 7 8 7 5 6 6 5 6 8 7 8 9 9 10 11 11 11 11 11 11 14 14 13 14 13 13

GFSSW_850_temp_081.txt.gz
Temp
7 7 7 8 9 9 9 9 9 9 10 9 9 10 10 11 13 14 15 16 16 15 15 15 15 15 15 15 15 15 10 8 12 14 16 18 18 20 20 20 21 22 22 23 22
6 6 6 7 7 8 9 9 8 8 8 9 9 10 10 10 12 15 15 15 15 14 14 15 15 15 14 14 14 11 9 11 12 16 16 17 17 18 19 19 19 20 23 22 22
4 4 6 7 7 8 8 8 8 8 8 8 9 10 10 10 12 14 14 14 14 14 14 14 14 14 13 13 14 13 13 13 15 17 17 16 16 18 18 17 19 20 22 22 22
3 3 3 5 6 8 8 8 8 8 8 8 8 8 10 9 11 14 13 14 14 14 14 14 13 13 12 12 14 12 13 15 16 17 16 15 17 17 18 18 20 20 21 20 21
3 3 3 4 6 7 7 8 8 8 8 8 7 7 8 7 11 14 13 14 13 14 14 13 13 13 12 12 13 12 14 15 16 16 17 17 16 16 18 19 21 20 20 21 21
2 2 2 3 5 6 8 8 8 8 8 8 6 5 3 3 13 13 13 13 13 14 14 13 14 14 14 13 12 14 14 15 16 16 16 16 16 17 18 19 20 20 21 21 21
2 2 2 3 4 6 7 8 8 8 8 7 6 5 2 9 13 12 13 13 13 13 13 14 14 13 14 13 15 15 13 13 14 15 14 18 15 15 19 19 20 21 21 21 22
1 2 2 3 3 5 7 8 9 9 8 8 7 5 4 12 12 13 12 13 13 13 13 14 14 13 13 14 14 13 13 12 15 15 16 16 15 17 19 20 20 21 21 20 21
1 1 1 2 3 4 6 7 8 8 8 8 7 5 5 10 11 12 13 13 13 13 13 13 13 13 13 11 10 11 11 11 13 16 15 15 16 17 19 19 19 20 21 21 20
1 1 1 1 2 3 5 7 7 7 6 6 4 4 9 11 11 12 13 12 13 13 13 13 13 10 8 9 9 10 10 11 11 15 14 14 14 15 17 18 18 19 20 20 21
1 1 0 0 2 3 4 6 5 5 5 5 5 5 8 10 10 11 11 12 12 13 10 12 9 8 9 9 11 11 11 11 12 13 14 14 14 15 16 17 16 18 18 20 21
0 0 0 0 1 2 3 2 1 1 1 5 6 7 8 8 7 12 10 12 11 10 10 10 8 10 10 10 10 10 10 10 12 14 14 13 13 15 16 16 17 18 18 19 19
0 0 0 0 1 2 2 2 3 3 2 5 6 7 7 8 6 9 9 11 10 9 9 8 10 11 10 10 10 10 10 10 11 13 13 13 14 15 17 16 17 18 20 19 18
0 0 -0 0 2 1 2 3 4 4 2 5 6 7 8 8 7 9 10 11 10 9 9 9 10 10 10 10 10 9 11 11 12 11 10 12 11 13 14 15 16 18 19 18 18
-0 -0 -0 -0 0 1 0 3 4 4 2 10 10 10 9 10 12 9 10 12 9 9 9 9 9 9 9 9 10 9 10 11 11 10 10 11 11 12 14 15 16 17 19 20 19
-1 -0 -0 0 0 1 1 3 4 2 3 8 12 10 9 11 12 11 11 12 11 9 9 9 10 9 9 10 10 10 10 10 10 10 9 11 11 12 14 16 18 19 19 20 19
-1 -1 -1 -0 1 0 1 2 1 1 7 8 8 9 10 10 11 11 10 9 7 7 7 8 8 9 9 8 9 9 9 7 7 8 9 13 12 13 15 17 18 18 19 19 20
-1 -1 -0 1 1 -0 -0 0 1 5 5 8 7 8 9 11 11 10 9 8 9 8 6 6 7 8 9 8 8 8 8 8 9 9 10 13 11 14 16 18 19 18 19 19 19
-1 -1 0 2 0 -0 -1 0 2 4 6 5 7 7 7 8 9 10 8 9 8 8 9 7 8 10 8 9 9 9 8 9 9 9 10 10 13 16 14 18 15 15 17 19 19
-2 -2 1 -0 -1 -1 -2 0 2 5 4 4 5 4 4 5 8 9 8 8 8 9 9 8 8 9 9 10 9 8 9 9 8 9 10 11 13 12 11 12 14 14 15 17 16
-2 -2 -0 -1 -1 -1 -1 0 2 4 4 4 4 3 3 4 7 8 8 7 8 8 8 8 8 8 9 9 8 9 8 7 8 9 10 11 11 12 11 12 12 13 13 15 15
-3 -6 -1 -1 -2 -1 -1 1 2 3 3 3 5 5 3 3 5 8 8 7 7 8 7 6 7 7 6 9 9 9 9 9 9 10 9 9 10 11 11 11 12 12 13 15 15
-3 -2 -1 -1 -2 -1 -1 1 1 1 2 3 4 5 3 2 3 7 7 7 8 7 6 6 7 5 7 8 8 8 8 8 8 8 9 9 10 12 12 11 12 12 12 14 15
-3 -3 -1 -2 -1 -3 -1 0 -0 2 2 3 3 4 4 2 4 7 8 7 7 6 7 7 5 6 6 6 6 6 8 8 6 8 9 9 11 10 11 11 11 11 10 9 10
-3 -4 -3 -6 -3 -2 -2 -2 0 1 3 3 3 4 4 3 4 7 7 6 6 6 5 5 5 5 5 6 7 7 7 8 8 8 7 10 9 12 9 9 10 10 9 8 7
-3 -3 -2 -2 -0 -1 -1 0 0 1 1 3 3 4 4 3 5 5 6 6 6 5 5 4 4 5 5 6 7 7 8 9 8 8 9 9 8 10 9 9 8 9 9 7 5
-4 -3 -3 -2 -1 -1 -1 -1 -0 -0 1 3 3 2 3 5 5 6 6 6 6 5 4 5 4 4 3 5 5 6 7 8 9 9 9 8 9 10 9 9 8 8 6 5 4

GFSSW_850_temp_084.txt.gz
Temp
8 8 9 9 9 9 9 9 9 9 9 9 9 10 10 11 12 13 14 16 15 15 15 14 14 14 14 14 14 14 10 7 11 12 15 16 17 18 19 19 19 20 20 21 21
6 7 7 8 9 9 9 9 9 9 9 9 9 9 10 10 11 14 15 15 14 14 14 14 14 14 14 13 14 11 8 10 11 13 14 16 16 17 17 17 18 18 20 21 20
4 4 5 6 7 8 9 8 8 9 9 9 9 9 9 10 10 14 13 14 14 14 13 14 13 14 13 12 12 12 11 11 13 15 16 15 14 16 16 15 18 19 20 20 20
3 4 5 6 6 7 8 8 8 8 9 9 8 8 8 9 10 13 13 14 14 14 13 13 13 13 11 11 13 11 11 14 15 16 15 14 16 15 16 17 19 19 19 19 20
3 3 4 4 5 6 8 8 9 8 8 8 8 7 7 7 11 13 13 13 13 13 13 13 12 13 11 12 12 11 12 14 15 15 15 16 14 15 15 17 18 19 19 20 20
2 3 3 4 4 4 7 8 8 8 8 8 7 7 5 3 12 13 12 12 12 13 13 13 13 13 13 12 12 13 13 13 14 14 15 14 15 15 16 18 18 18 19 20 20
2 2 3 3 4 5 6 8 8 8 8 8 8 6 4 8 12 12 13 12 11 12 13 13 13 13 13 12 14 13 11 11 12 13 13 15 13 13 16 18 18 19 20 21 21
1 1 2 2 3 4 6 8 8 8 8 8 8 6 4 11 11 13 12 12 12 12 12 13 13 13 13 13 13 12 12 11 13 13 14 15 14 15 18 18 18 18 19 20 21
1 1 1 2 3 3 5 7 7 7 6 7 7 5 5 9 10 11 11 12 12 13 13 13 13 12 12 10 9 9 9 10 12 14 14 12 14 15 18 17 16 18 19 19 20
1 1 1 1 2 3 5 6 7 5 5 5 4 3 8 9 10 10 11 11 12 12 12 11 11 8 7 8 8 8 10 10 11 12 12 11 12 13 15 16 16 18 18 19 19
1 1 1 1 2 2 3 5 5 4 4 3 4 4 7 8 9 10 10 11 12 12 10 11 9 7 8 8 11 10 9 9 9 11 11 12 12 14 14 14 13 16 17 18 19
1 1 1 2 2 2 2 2 -0 -1 -0 2 4 5 8 9 6 10 10 10 11 10 10 9 8 9 9 9 9 9 9 9 9 11 11 10 11 13 13 13 15 15 17 18 19
0 0 0 2 2 2 2 1 1 1 -0 3 5 5 5 6 5 7 9 10 10 9 9 9 10 10 9 9 9 9 8 9 9 10 11 10 11 12 14 15 16 17 18 18 18
-1 -0 0 2 3 1 1 2 3 2 1 4 6 6 7 7 5 9 9 10 9 9 9 8 9 10 9 10 9 8 10 10 9 9 8 10 9 12 13 13 14 14 16 18 19
-1 -0 0 1 1 1 1 2 3 3 1 8 8 9 8 7 9 9 8 10 9 9 9 9 8 8 9 9 9 9 10 9 9 8 9 9 8 10 12 13 13 13 16 19 20
-1 -0 0 1 1 0 1 2 3 2 2 6 9 9 8 9 9 9 9 10 10 8 9 9 9 9 9 9 9 10 9 9 10 10 8 9 9 9 11 13 14 15 17 19 20
-1 -0 0 0 0 0 1 2 1 1 5 6 6 7 8 8 10 9 8 8 7 7 7 8 8 9 9 9 9 9 8 6 7 8 8 11 9 10 13 14 15 15 17 18 19
-1 -0 0 0 -0 -0 0 -0 0 4 3 6 5 6 7 5 7 10 8 7 8 7 6 6 7 7 8 9 8 7 8 8 8 8 9 10 9 11 12 13 12 13 13 15 17
-1 -0 0 -0 -0 -0 -0 -1 1 3 3 3 4 5 5 5 3 7 8 7 7 7 9 7 8 8 8 8 9 8 7 9 8 8 9 10 11 13 12 11 12 12 12 12 13
-2 -1 -1 -1 -1 -1 -2 -0 1 3 3 3 3 4 4 4 4 4 7 8 8 8 9 8 7 9 9 9 9 9 8 8 8 7 9 10 10 12 10 10 11 11 11 11 12
-2 -1 -1 -1 -2 -1 -3 -1 0 2 2 2 3 2 4 3 3 3 7 6 7 7 8 8 8 8 9 8 7 8 8 7 7 8 9 8 10 12 11 11 11 11 11 10 12
-2 -5 -2 -2 -3 -2 -5 0 1 1 2 2 2 3 3 3 3 3 4 6 6 7 6 6 7 6 7 8 8 9 8 9 8 8 8 8 8 11 11 11 12 12 10 9 12
-3 -3 -2 -2 -7 -5 -1 -0 1 0 1 2 2 3 2 3 2 3 3 5 6 6 6 6 6 6 8 8 7 7 8 7 6 7 8 9 9 11 12 12 12 11 9 7 9
-3 -4 -2 -3 -3 -4 -2 -1 -0 1 1 1 2 2 3 3 3 2 3 4 6 6 6 7 5 6 7 6 5 4 7 8 7 6 6 8 8 11 10 10 10 10 8 7 7
-3 -5 -4 -5 -3 -4 -2 -2 -1 -1 1 2 2 2 2 2 3 3 3 4 6 6 5 5 5 5 5 5 6 6 6 6 6 7 7 8 8 10 10 10 9 8 7 6 5
-3 -3 -3 -3 -2 -3 -1 -1 -1 -0 -0 1 1 2 3 2 4 3 3 6 6 5 5 4 4 4 5 6 6 6 7 6 7 7 7 8 8 10 11 9 8 7 5 4 4
-4 -4 -3 -2 -2 -4 -2 -1 -1 -1 1 1 2 1 2 4 4 5 5 5 5 5 4 4 3 2 2 5 4 5 6 7 7 8 8 8 9 10 10 9 8 5 3 2 2

GFSSW_850_temp_087.txt.gz
Temp
7 7 7 7 8 8 9 9 9 9 9 9 10 10 11 11 12 13 14 15 15 15 15 14 14 14 13 13 14 14 15 14 15 15 18 16 18 18 18 19 19 19 20 20 19
6 7 8 8 8 8 9 9 9 9 9 9 9 10 11 11 12 14 13 13 14 13 14 14 14 13 13 13 13 14 14 14 14 17 17 17 18 18 18 18 18 18 20 20 20
7 8 7 8 8 8 8 9 9 9 9 9 9 9 10 10 12 13 12 13 13 13 12 12 13 13 12 12 12 13 14 14 14 15 15 17 15 16 17 17 17 18 18 18 19
7 6 6 6 7 8 8 9 8 8 9 9 9 9 10 9 12 13 13 13 13 12 12 12 12 12 12 12 12 13 12 14 15 15 15 16 17 16 16 17 18 17 18 18 18
5 5 5 5 6 8 8 8 8 9 9 8 8 8 8 7 11 13 13 13 12 12 12 12 12 12 12 12 12 12 13 14 14 14 14 15 15 16 15 16 17 17 17 18 18
4 5 6 5 7 7 8 8 8 8 9 9 9 8 6 4 12 13 12 12 12 12 12 12 12 13 13 13 13 13 13 13 14 14 14 15 16 16 16 16 16 17 18 18 19
3 4 5 5 6 7 8 8 8 9 9 9 8 7 4 9 11 11 13 12 12 11 12 12 12 12 13 13 13 13 13 14 14 15 15 14 16 15 16 16 15 16 17 18 19
3 4 5 5 6 6 7 8 8 8 8 8 7 7 5 10 11 11 11 12 12 11 11 12 12 12 12 13 12 13 13 13 14 14 14 15 15 17 17 16 16 16 17 18 19
2 3 4 4 5 6 7 8 8 7 5 5 6 5 6 9 9 9 10 10 11 11 11 11 11 12 11 12 12 10 12 12 13 14 15 15 15 15 15 15 16 16 17 18 18
1 2 4 4 4 5 6 7 6 5 4 4 3 3 8 8 9 10 10 10 10 11 10 10 10 11 10 12 11 11 11 11 13 14 14 14 14 15 15 15 15 16 16 16 17
1 2 4 4 4 4 5 6 5 4 4 2 5 3 6 11 9 9 10 10 10 10 10 10 10 10 11 12 12 11 11 11 11 12 12 13 13 14 15 15 15 15 16 16 16
1 2 3 3 3 3 3 1 -1 -2 -1 4 5 2 5 4 4 6 9 9 10 10 10 10 10 11 11 10 11 11 11 11 11 12 12 12 13 14 15 15 15 15 16 16 16
2 2 2 3 2 3 2 1 0 1 -0 1 5 4 5 5 3 5 7 9 10 9 10 10 11 11 10 10 10 10 10 10 11 11 12 12 13 14 15 15 15 15 15 16 16
1 1 1 2 2 1 1 2 2 2 2 5 6 7 7 6 5 8 7 9 10 10 10 10 11 10 10 10 10 10 11 11 10 10 11 12 13 15 15 15 16 16 15 15 16
1 1 1 0 0 0 1 2 2 2 3 7 8 8 7 7 8 9 8 8 10 10 10 10 9 9 10 10 10 11 11 10 10 10 10 10 10 13 15 16 16 17 16 15 16
0 1 0 0 0 0 1 2 3 3 3 5 7 6 7 8 8 8 7 8 9 9 9 10 9 10 10 10 11 10 10 10 10 10 9 11 11 13 15 15 14 14 14 15 16
0 0 -0 -0 -0 0 1 2 2 2 5 5 4 5 6 6 7 7 8 7 8 8 8 8 9 9 9 10 9 10 9 10 9 9 10 11 11 13 14 13 13 13 12 13 14
-0 -0 -0 -0 0 0 1 1 1 4 4 4 4 5 6 5 6 5 5 7 8 8 9 9 8 8 9 10 10 9 9 10 10 10 11 12 12 14 13 13 12 12 12 12 12
-1 -0 -0 -1 -0 -0 0 -1 2 2 2 2 4 5 5 5 5 5 4 7 9 8 9 8 8 8 9 9 10 9 8 10 9 10 10 12 14 13 14 14 14 13 12 11 11
-1 -1 -1 -1 -1 -1 -2 -0 1 2 2 2 2 4 2 4 4 4 4 7 9 8 9 9 8 9 9 9 9 10 10 8 8 8 9 12 13 14 13 12 13 13 12 11 10
-1 -1 -2 -1 -2 -1 -2 -1 1 1 1 1 2 2 2 3 4 3 4 5 6 8 9 9 9 8 8 9 9 8 8 8 8 8 10 10 13 13 12 13 12 12 11 9 8
-2 -4 -2 -2 -2 -3 -2 -0 -0 1 1 1 2 2 2 3 2 3 3 3 1 4 8 7 8 8 8 9 9 9 9 9 7 8 8 9 11 12 12 13 12 11 9 8 8
-2 -3 -2 -2 -4 -3 -1 -0 0 0 1 1 2 3 3 2 1 3 3 4 1 3 7 8 8 8 7 8 8 8 6 6 6 6 8 8 12 13 13 12 12 9 8 7 7
-3 -5 -3 -3 -3 -3 -2 -1 -0 1 1 1 1 2 2 2 3 2 2 3 1 5 6 7 7 8 9 8 7 6 8 8 8 7 9 9 9 11 11 11 11 8 7 6 5
-3 -4 -4 -5 -2 -3 -3 -3 -1 -1 0 1 1 1 2 2 3 2 3 2 2 4 6 7 7 6 7 7 7 7 7 8 7 8 7 9 9 10 11 11 10 7 5 4 3
-4 -4 -3 -3 -3 -5 -3 -2 -1 -1 -1 0 -0 1 2 1 3 3 3 3 4 5 6 5 5 5 6 6 7 7 8 8 7 7 8 8 8 11 11 11 7 5 4 3 1
-3 -3 -4 -3 -2 -3 -3 -2 -1 -1 0 1 -0 0 2 3 3 3 3 3 4 5 5 5 5 5 6 5 6 6 7 8 8 8 8 7 10 9 9 5 5 3 2 1 -0

GFSSW_850_temp_093.txt.gz
Temp
9 9 9 9 9 9 9 10 10 10 10 11 11 11 12 12 14 14 12 14 13 14 14 14 14 15 15 17 18 19 21 22 23 24 25 26 25 25 24 25 25 24 24 24 22
9 9 9 9 9 9 9 9 10 10 10 10 11 11 11 12 14 11 14 13 14 14 13 14 16 16 17 18 19 21 20 21 25 26 25 25 25 25 24 24 24 24 23 23 23
9 9 9 9 9 9 9 9 9 10 10 11 11 11 11 12 11 16 14 14 14 14 13 15 16 17 18 19 19 20 20 22 24 24 24 24 24 24 25 24 24 24 23 23 23
8 9 9 8 9 9 9 9 10 10 10 10 11 11 11 11 17 14 14 13 13 14 12 14 15 17 19 20 20 20 21 21 22 22 22 22 22 23 23 23 23 23 23 23 22
8 8 8 8 8 8 8 9 10 10 10 10 10 10 10 11 14 13 13 13 12 12 14 15 16 17 18 20 20 20 21 20 20 20 20 21 21 22 22 22 22 22 22 22 22
7 8 8 8 8 8 8 9 9 10 10 10 10 10 8 13 13 12 12 12 12 13 14 15 16 17 18 19 20 20 20 20 19 20 20 20 20 20 21 21 21 21 21 21 21
7 7 8 8 8 8 8 8 10 10 10 9 9 8 8 12 12 11 11 11 12 13 14 15 15 16 17 18 18 18 18 19 20 19 19 19 19 20 20 21 21 22 22 21 22
6 7 7 7 7 8 8 9 10 10 10 9 8 6 9 11 10 10 12 12 12 12 12 13 14 14 15 16 17 17 18 18 20 20 20 20 18 22 23 23 22 22 22 22 22
6 6 6 6 8 9 8 9 9 9 9 9 7 7 12 11 11 11 12 12 12 12 12 12 12 13 15 16 16 17 16 17 19 21 20 20 20 23 23 22 22 22 22 22 22
5 6 6 7 7 8 8 8 8 9 7 6 7 8 11 13 11 10 11 11 11 12 12 12 13 15 16 16 15 17 16 18 18 20 20 18 19 21 22 21 21 21 22 22 22
5 5 6 6 6 6 8 8 9 9 9 10 11 11 10 11 10 10 11 11 12 13 14 14 14 15 16 17 17 17 17 17 18 21 19 18 19 20 21 21 21 21 22 22 22
5 5 5 6 5 5 5 6 4 4 6 8 8 9 9 8 9 12 11 12 13 14 15 15 13 16 17 17 16 15 15 15 17 19 19 18 18 20 21 22 21 21 22 23 23
5 5 5 5 5 4 4 3 3 3 6 10 10 10 10 9 11 12 11 12 13 14 15 15 16 17 15 16 15 15 15 15 16 17 18 18 17 19 22 23 22 22 22 22 22
4 5 5 5 4 4 5 3 3 2 9 12 11 11 10 10 11 11 12 12 13 13 14 15 17 16 15 16 15 13 16 15 15 15 15 19 18 21 22 22 22 22 21 21 20
4 4 5 5 3 5 3 3 3 3 10 13 12 10 11 11 12 13 12 12 12 13 14 13 15 15 14 15 15 14 16 16 16 15 15 17 17 19 22 22 22 21 20 20 20
2 3 4 2 2 3 3 4 3 9 11 12 12 11 11 11 12 13 12 12 12 13 13 14 16 16 16 16 16 16 15 15 15 15 14 16 17 20 22 21 20 20 20 20 19
2 2 2 1 3 3 3 4 9 10 13 11 9 10 9 10 12 12 12 12 12 12 11 14 14 12 15 15 15 15 14 12 13 14 14 19 19 20 21 20 19 20 19 19 18
2 2 1 1 1 2 3 8 8 11 10 11 9 8 8 10 11 11 11 11 13 13 12 11 11 13 14 15 14 14 14 14 14 15 17 19 17 20 21 20 19 19 19 18 17
1 1 1 1 2 1 5 6 9 8 8 7 7 7 9 9 5 9 10 10 11 7 9 12 12 15 15 15 15 14 13 16 14 14 15 17 19 19 20 18 18 19 18 17 16
2 2 1 0 1 3 6 5 7 7 6 6 5 7 6 8 8 8 8 9 7 4 4 9 9 13 15 15 15 14 15 12 13 13 14 17 19 17 16 17 18 18 17 16 13
1 4 1 1 1 5 4 6 6 6 5 5 5 5 6 6 7 7 7 9 3 4 4 7 10 11 14 13 13 13 12 13 14 15 14 16 17 17 17 17 17 17 16 14 11
2 5 0 1 5 5 6 5 4 6 5 6 6 6 6 6 6 6 6 7 4 5 4 7 8 9 13 14 16 15 14 14 12 12 15 14 14 17 18 18 17 17 15 13 10
4 4 1 1 4 5 5 5 5 5 6 6 5 6 6 5 4 6 7 8 6 3 4 3 7 9 8 10 13 14 14 15 13 13 12 13 15 18 18 17 17 16 14 12 8
2 3 3 3 1 3 3 5 5 5 5 5 5 6 6 5 7 6 7 7 3 1 1 2 4 9 10 13 12 10 11 13 12 12 13 14 16 17 16 16 15 14 12 11 7
1 3 2 4 4 3 2 2 3 3 4 4 5 5 4 3 5 6 5 3 4 2 3 3 10 11 11 13 14 13 12 13 12 13 12 14 14 15 14 13 13 10 9 7 5
-0 4 1 2 2 1 2 3 3 3 2 3 3 4 4 4 5 4 5 5 4 4 3 5 9 12 12 13 13 12 13 13 13 13 13 14 14 13 12 11 7 6 5 4 2
0 -0 2 2 4 4 4 3 3 0 2 3 2 2 4 5 5 5 6 5 5 4 4 6 11 12 10 12 11 11 12 12 13 13 11 10 10 11 10 7 1 0 1 0 -0

GFSSW_850_temp_096.txt.gz
Temp
10 10 10 10 10 10 10 10 11 11 11 12 12 12 12 12 13 14 11 14 14 15 14 14 15 15 16 17 19 20 20 20 21 22 24 26 27 27 26 26 26 26 26 25 23
9 9 9 9 9 9 10 10 10 11 11 11 12 12 12 12 13 15 14 14 15 15 15 14 15 17 17 18 17 20 20 20 22 24 24 26 26 26 26 25 25 25 25 25 23
9 9 9 9 9 10 9 10 10 10 11 11 11 11 11 11 10 15 15 15 15 15 15 14 16 17 18 19 19 19 19 21 22 23 24 24 25 25 25 25 25 25 24 24 24
8 8 8 9 9 9 10 10 10 10 11 11 11 11 11 10 16 16 15 15 15 14 14 14 16 17 18 19 20 20 21 21 22 22 22 23 23 24 24 24 23 24 24 24 23
8 8 8 8 8 9 9 10 10 10 11 11 11 10 10 10 13 15 14 14 14 13 13 15 17 17 18 19 20 20 21 21 22 22 22 21 22 22 22 22 23 23 23 23 23
8 8 8 8 8 9 9 10 10 10 11 11 11 10 9 11 15 13 12 12 13 14 15 15 17 18 18 19 20 20 21 21 21 21 21 21 21 21 21 21 21 22 22 22 23
7 7 8 8 8 8 9 9 10 10 11 10 10 8 7 12 14 14 13 13 13 14 15 16 16 17 18 18 18 19 19 20 20 20 21 20 19 20 21 20 20 20 22 22 22
7 7 7 8 7 8 9 10 10 10 10 9 8 5 9 13 12 12 13 13 13 13 13 14 15 16 16 17 18 18 18 17 20 20 21 20 18 20 20 20 21 21 22 22 22
6 7 7 7 8 9 9 10 10 9 9 9 8 7 11 13 13 13 13 14 14 14 13 13 14 14 15 15 15 17 16 17 18 20 20 21 20 21 21 21 21 23 23 22 22
6 6 6 7 8 9 9 9 9 9 9 7 7 9 11 14 13 13 12 12 13 13 14 13 14 14 15 15 14 15 16 17 18 19 20 18 20 21 21 22 22 22 22 22 22
5 6 6 7 7 7 9 9 10 8 8 12 13 12 14 13 12 12 13 13 13 13 13 15 13 13 15 16 16 17 17 17 19 20 20 19 18 20 21 21 21 21 22 22 22
5 6 6 7 7 6 6 7 6 5 6 9 10 11 11 11 11 13 13 13 14 13 15 14 14 15 16 17 17 17 16 16 18 19 18 18 18 20 20 20 20 21 21 21 22
5 5 6 6 6 6 6 5 5 4 7 10 12 12 12 11 12 13 14 13 14 13 14 14 15 17 16 16 16 16 16 16 16 17 18 18 17 19 20 20 21 21 21 21 22
5 5 5 5 5 6 7 5 4 4 7 13 12 12 12 11 12 13 13 13 14 13 14 14 15 15 16 16 16 15 17 17 16 15 14 18 15 18 21 22 21 21 21 22 22
4 5 4 5 6 7 5 4 4 5 10 14 13 11 12 12 12 13 14 14 13 13 13 13 14 14 14 16 17 16 17 16 16 15 15 15 15 17 20 21 22 21 21 21 20
4 4 4 4 4 4 3 4 4 6 10 13 13 13 12 12 12 12 13 13 13 13 13 13 14 15 15 16 16 16 16 15 15 15 13 15 15 17 18 21 21 20 20 20 19
3 3 4 3 4 4 5 5 8 9 14 13 11 11 10 10 11 12 12 12 12 10 10 11 12 14 16 14 14 15 13 10 10 12 12 16 16 17 19 20 20 20 20 18 17
2 3 3 2 3 3 3 7 8 13 12 11 10 9 9 11 11 10 10 10 12 9 7 7 10 13 15 14 11 13 13 11 11 12 14 16 15 17 20 20 20 19 18 17 15
2 2 2 2 3 2 4 7 10 9 9 8 8 8 9 10 10 9 10 10 11 8 5 6 9 14 15 12 11 12 12 13 12 13 11 12 18 18 18 18 19 19 17 15 14
2 2 3 3 3 2 6 6 8 9 8 7 6 8 7 8 8 8 9 10 10 7 7 6 5 11 13 12 10 12 14 12 12 10 11 11 13 12 14 17 18 18 16 14 12
2 4 2 3 2 4 5 8 7 7 7 6 6 6 6 6 6 6 7 9 5 7 7 7 5 8 9 9 11 14 11 12 12 13 10 14 14 12 11 15 17 17 15 12 10
3 5 2 3 5 7 7 6 6 7 7 7 7 7 6 6 5 6 6 8 8 7 5 6 5 6 8 12 12 16 13 11 11 12 14 12 10 9 13 16 16 15 14 11 9
4 5 3 2 4 6 7 7 7 7 7 7 7 7 7 6 4 6 7 9 5 5 4 3 6 6 8 10 14 15 15 13 11 13 10 11 10 9 11 14 12 11 11 9 7
3 3 4 4 3 4 4 6 6 7 7 6 6 7 5 4 6 5 6 8 5 4 4 2 3 4 6 9 13 13 14 12 11 11 11 12 9 11 13 12 10 9 9 8 6
2 3 4 4 5 5 4 4 4 4 5 5 5 6 5 4 5 6 5 4 5 4 3 3 4 4 5 6 11 10 10 8 9 11 12 13 12 11 11 9 7 6 6 5 3
1 4 4 4 3 3 4 4 4 4 3 4 3 4 4 3 5 5 5 4 3 5 3 3 6 6 6 9 11 8 7 9 13 12 13 13 12 10 9 3 2 1 1 -0 -1
2 2 3 4 5 5 5 5 4 3 3 4 3 3 3 3 3 3 3 5 5 5 4 4 4 10 10 13 13 11 12 13 10 9 9 8 7 7 5 0 -2 -2 -2 -3 -4

GFSSW_850_temp_099.txt.gz
Temp
10 10 10 10 10 10 10 11 11 11 12 12 12 12 12 12 13 14 14 15 16 15 15 15 15 15 15 15 16 17 15 15 16 17 19 22 22 24 25 26 26 26 26 24 24
9 9 9 10 10 10 10 10 11 11 11 11 11 12 12 12 13 16 16 15 14 14 15 14 15 15 15 16 16 15 14 16 17 18 19 21 21 21 22 23 25 25 25 23 23
9 9 9 9 10 10 10 10 10 11 11 11 11 11 11 12 12 15 16 15 15 15 15 14 14 16 16 17 16 16 15 16 18 19 20 20 20 22 20 20 24 23 24 25 23
9 9 9 9 9 9 9 9 10 11 11 10 11 11 11 11 13 15 15 15 14 15 14 14 14 15 15 13 17 15 17 17 18 19 19 19 21 20 20 20 21 22 22 23 23
9 8 8 9 9 9 9 9 10 11 11 11 10 10 10 9 13 15 14 14 14 14 14 13 14 15 14 15 16 16 17 18 19 20 20 21 20 20 20 20 20 21 21 21 22
8 8 8 8 8 9 9 9 10 10 11 11 10 10 9 7 14 14 14 13 13 13 13 14 15 16 16 16 15 17 18 18 19 19 20 19 19 20 20 20 20 20 20 20 21
8 8 8 8 8 9 9 9 10 10 10 10 9 9 7 13 14 13 13 13 13 13 13 14 15 14 15 14 17 17 15 16 17 18 17 19 17 17 20 20 20 20 20 20 21
8 8 8 8 8 9 9 10 10 10 9 9 8 7 8 13 13 14 13 13 13 13 13 13 14 13 14 15 15 14 14 13 16 17 18 17 16 18 20 20 19 19 20 20 20
6 7 7 7 8 8 9 10 10 9 9 8 8 7 8 12 13 13 13 13 13 14 13 13 13 13 13 11 11 12 11 12 14 16 16 16 16 18 19 19 19 19 19 19 20
6 6 6 7 8 8 9 10 10 9 8 7 7 6 9 12 13 13 13 13 13 12 12 13 13 10 10 9 9 11 11 12 13 15 16 16 16 18 19 18 19 20 19 19 21
5 6 6 6 7 7 9 9 9 8 6 9 10 12 13 13 13 12 13 13 13 12 9 12 10 10 9 10 11 12 12 12 14 16 15 16 14 16 17 18 18 19 19 20 20
5 6 6 7 7 6 6 6 5 5 4 8 10 10 11 11 11 11 12 13 13 10 11 10 9 12 13 13 12 12 12 12 14 15 16 14 14 14 15 15 18 18 19 20 20
5 5 6 7 6 6 5 5 5 5 4 8 10 11 12 12 11 11 12 13 12 11 11 10 12 14 14 13 13 13 12 13 13 15 14 13 14 14 16 17 18 19 20 19 19
4 5 5 6 6 6 5 5 5 4 3 11 12 12 12 11 11 12 13 13 12 11 11 11 12 13 12 12 13 12 14 14 14 14 11 14 12 14 16 17 18 19 20 19 20
4 5 5 5 5 5 4 5 5 5 7 13 12 12 12 12 12 12 12 12 10 11 11 10 11 11 11 12 13 12 14 13 14 14 12 12 11 13 15 16 18 19 19 19 19
4 4 3 4 4 4 5 6 5 5 7 12 12 12 11 11 10 11 11 11 12 10 11 11 13 11 10 11 12 13 13 12 10 11 10 12 12 12 15 16 18 17 16 15 15
3 3 3 3 3 4 5 5 4 5 13 10 9 9 9 9 10 10 10 9 8 7 7 9 9 10 11 10 11 11 11 8 7 9 9 13 12 13 16 17 15 14 13 12 13
3 3 3 3 3 4 4 4 5 11 8 9 8 8 8 9 9 9 8 7 9 8 5 5 5 8 10 8 8 10 11 7 8 9 10 13 12 14 17 17 10 13 12 11 11
2 3 2 3 4 4 4 3 6 8 8 7 7 7 7 7 7 7 6 7 8 7 5 4 6 8 8 9 11 8 8 9 7 10 9 11 13 14 12 12 10 11 10 9 7
2 2 3 4 4 3 2 5 8 8 7 7 5 6 5 5 5 5 5 7 7 7 6 5 4 8 10 8 9 10 10 8 7 8 9 11 11 8 7 7 9 10 8 7 6
2 3 3 4 3 3 1 5 7 7 7 6 5 5 5 5 5 4 5 6 5 6 6 5 5 6 8 8 8 7 7 8 9 10 9 10 9 5 6 9 9 9 7 5 4
2 1 3 4 3 4 1 6 6 7 7 7 7 6 5 5 5 4 4 6 8 6 4 3 3 3 6 9 8 9 8 9 7 10 11 9 8 7 7 8 9 9 7 4 3
3 3 3 3 1 1 6 7 7 7 6 6 5 5 5 4 3 4 4 6 5 4 4 3 3 2 5 9 9 9 10 11 10 8 10 9 7 6 8 7 6 5 4 2 1
3 1 3 3 4 3 3 5 5 6 5 5 4 5 5 4 4 3 4 5 5 4 5 2 3 3 4 7 7 6 8 11 10 8 8 8 6 6 5 4 3 2 1 0 -1
2 2 3 1 1 2 3 3 3 4 4 4 4 4 3 2 2 3 4 3 4 5 4 2 4 4 4 6 6 6 6 8 8 6 7 5 4 4 2 2 0 -0 -1 -1 -2
2 3 4 3 2 1 2 3 3 4 3 3 2 3 3 2 3 2 2 3 2 3 3 2 4 5 5 6 6 6 7 6 5 5 5 6 4 3 1 -1 -1 -2 -3 -3 -3
2 3 3 3 3 0 1 3 3 1 3 4 2 2 3 3 2 2 2 2 2 2 2 3 4 5 6 6 7 7 6 5 4 3 5 3 2 2 -1 -2 -4 -4 -4 -5 -5

GFSSW_850_temp_102.txt.gz
Temp
11 11 11 11 12 11 11 12 12 12 11 11 11 12 12 12 14 14 15 16 16 15 14 15 14 15 14 14 15 15 11 12 12 14 16 19 19 21 21 21 22 23 25 25 23
10 10 11 11 11 11 11 11 11 11 11 11 11 11 11 12 13 15 15 16 16 15 15 14 14 14 14 15 15 13 10 13 15 15 16 18 18 18 19 19 21 21 21 23 23
10 10 10 10 10 11 11 11 11 11 11 11 11 11 11 11 12 15 16 16 15 15 14 14 14 13 14 15 15 14 13 14 15 17 17 16 17 18 18 18 21 20 20 21 21
9 9 9 10 10 10 10 10 10 10 10 10 10 11 11 11 12 15 15 14 14 14 14 14 14 13 13 12 15 12 15 15 16 17 17 16 18 17 18 19 20 21 21 20 20
8 9 9 9 10 9 10 10 10 10 10 10 10 10 10 9 13 15 14 14 14 14 14 13 13 13 12 13 14 13 14 16 16 17 17 17 16 17 18 19 20 21 21 21 20
8 9 9 9 9 9 9 9 9 10 10 10 10 10 9 6 14 14 13 13 13 13 13 13 13 13 13 13 12 15 15 15 16 16 17 16 17 17 19 20 20 20 21 21 21
7 8 8 9 9 9 9 9 10 10 9 9 9 9 8 13 14 13 12 12 13 13 13 13 13 13 13 12 14 14 13 13 14 15 15 17 15 16 18 19 20 20 20 20 20
6 7 8 8 8 8 8 9 9 9 9 8 8 8 9 13 12 13 13 13 13 13 13 13 13 13 13 13 13 12 12 11 14 14 15 15 14 17 18 18 19 19 20 20 20
6 7 8 8 8 8 9 9 9 10 9 8 7 6 8 12 12 13 13 12 13 13 13 13 13 13 13 10 8 10 10 11 12 14 13 14 14 16 18 18 17 18 19 19 19
5 7 7 7 7 7 8 9 10 9 8 7 6 5 11 12 12 12 12 13 13 12 12 13 12 9 7 7 8 9 9 9 9 13 13 12 13 15 17 17 16 18 19 19 18
5 5 6 7 7 7 8 8 9 8 7 9 9 10 11 12 12 12 12 13 12 12 10 11 8 7 8 8 10 10 10 9 11 12 12 12 13 14 16 15 14 16 16 19 19
4 5 6 6 6 6 6 6 6 6 5 9 9 8 9 11 9 11 12 12 12 10 10 9 7 9 10 10 10 9 9 9 11 12 12 12 12 14 13 14 15 15 17 18 18
4 5 5 6 6 5 5 5 5 5 4 7 9 9 11 11 10 11 12 12 11 10 10 8 10 12 11 10 10 10 10 10 11 12 13 12 12 13 14 14 16 17 17 18 18
4 5 5 5 5 5 4 5 5 5 4 9 10 12 11 11 11 12 11 11 11 10 10 9 11 11 10 10 10 9 11 11 11 11 10 11 10 13 14 14 15 16 17 17 18
4 4 5 5 5 5 5 5 5 4 8 11 11 12 12 11 10 12 11 11 9 9 9 9 9 8 9 10 11 10 11 10 11 10 8 11 9 13 13 13 14 15 14 14 16
4 4 4 5 4 5 5 5 5 6 8 11 10 9 9 9 10 10 10 11 10 9 9 8 10 9 9 10 10 10 10 10 11 8 7 9 9 11 12 13 14 12 10 8 8
4 4 4 4 5 4 5 5 5 6 11 8 7 8 8 8 8 8 7 6 6 5 6 7 8 8 9 8 8 9 8 7 5 6 8 11 10 12 12 14 15 10 8 7 5
3 4 3 4 4 5 5 4 5 9 7 8 7 7 7 6 7 6 6 4 6 6 4 4 5 7 8 7 6 6 7 7 6 7 9 11 10 10 9 10 9 8 6 5 3
3 3 3 3 3 4 4 1 5 7 7 6 7 6 5 6 5 5 4 4 6 6 4 4 5 7 7 8 7 7 7 8 7 8 8 9 12 11 10 9 8 6 5 3 2
2 3 2 3 3 3 2 5 6 7 7 7 5 5 4 4 4 4 4 6 5 6 5 4 3 6 7 8 8 7 10 6 6 6 8 10 11 8 6 7 6 4 3 2 1
2 2 2 2 3 4 1 4 6 7 7 6 5 5 5 4 4 4 4 5 5 6 5 5 3 5 5 7 7 7 6 7 7 7 8 9 8 4 4 4 4 3 2 1 -1
2 1 3 3 2 2 2 6 7 7 7 6 6 5 4 3 3 3 3 4 5 4 3 3 2 2 5 7 8 8 7 7 6 9 9 7 7 3 2 1 1 2 1 -0 -1
3 2 2 3 -0 -0 5 6 7 5 5 4 4 4 4 3 2 2 4 5 5 4 3 3 2 2 4 7 7 6 6 7 7 6 8 8 6 3 1 1 1 0 -0 -1 -2
3 -1 2 2 3 2 3 4 4 5 5 4 4 4 3 2 3 1 2 4 5 4 5 2 2 3 3 6 7 6 5 6 8 7 6 5 4 2 1 0 -0 -1 -1 -2 -3
2 0 3 -0 1 1 1 3 3 3 4 3 3 3 2 1 2 2 2 1 2 4 4 2 3 3 3 4 5 5 5 5 6 5 6 3 3 1 -1 -1 -2 -2 -3 -3 -4
3 2 3 2 2 0 2 3 3 3 2 2 2 2 1 1 1 1 2 1 1 3 2 3 3 3 4 5 4 5 4 4 4 4 3 3 2 0 -2 -3 -3 -4 -4 -5 -5
2 3 4 2 1 -0 0 2 2 1 2 3 2 1 1 3 3 2 2 2 3 2 2 2 3 4 6 5 6 5 3 2 2 2 2 2 1 -0 -2 -3 -5 -5 -6 -6 -6

GFSSW_850_temp_105.txt.gz
Temp
12 12 12 12 12 12 12 12 12 12 11 11 11 12 12 13 14 14 15 15 15 15 14 14 14 14 14 13 14 14 10 8 12 13 14 17 17 19 19 19 20 20 21 20 21
11 11 12 12 12 12 12 11 11 11 11 11 11 11 12 13 14 15 15 15 14 14 14 14 14 14 13 13 14 12 8 11 12 14 14 16 16 17 17 18 18 19 21 22 20
11 11 11 11 11 11 11 11 11 11 11 11 11 11 11 12 13 15 15 15 15 15 14 14 13 13 13 13 13 12 11 13 14 15 15 14 15 16 16 16 18 19 20 21 21
10 10 10 11 11 10 11 10 10 10 10 10 11 11 11 12 12 14 14 14 14 14 14 14 13 13 12 12 14 12 13 13 14 15 15 14 16 16 16 16 17 18 19 20 21
9 10 10 10 10 10 10 10 10 9 9 10 11 11 11 10 13 14 14 13 13 13 13 13 13 13 12 12 12 12 12 14 15 15 15 15 14 15 16 18 18 18 19 20 20
8 8 9 9 10 10 10 10 10 10 9 9 10 10 9 6 13 13 13 13 13 13 13 12 12 12 12 12 11 13 12 12 13 14 14 14 14 15 16 17 18 18 19 20 20
7 8 8 8 9 9 9 9 10 9 9 8 8 8 8 12 13 13 13 12 12 12 13 13 13 13 12 11 13 12 11 12 14 13 13 16 14 13 16 17 18 18 18 19 19
7 6 7 8 8 8 8 8 9 9 9 8 7 7 9 13 12 12 12 12 12 12 12 13 12 12 12 12 12 11 11 11 13 12 14 14 12 14 16 16 16 17 18 18 19
6 5 6 7 7 7 8 8 9 10 9 8 7 6 9 11 12 12 12 12 12 12 13 13 13 12 12 9 7 8 8 9 10 12 12 13 11 13 14 14 14 15 16 17 18
6 5 5 6 7 7 8 8 8 8 8 7 6 5 11 12 12 12 12 12 12 13 12 12 11 8 6 7 6 8 7 7 7 9 10 10 10 12 13 14 14 14 15 16 16
5 6 5 6 7 7 7 8 7 7 5 9 9 9 11 11 11 11 12 12 12 12 9 10 8 7 8 8 9 9 8 8 9 11 10 10 10 11 12 13 13 14 14 15 17
7 5 5 6 7 6 6 6 6 6 5 9 8 8 9 9 8 12 12 11 11 9 9 8 7 8 9 8 8 8 8 8 9 10 10 10 10 11 12 12 13 14 14 14 17
4 5 6 5 6 5 5 5 5 5 4 8 8 9 11 10 9 10 11 11 10 9 9 7 9 11 9 9 9 8 8 8 8 10 10 10 10 11 12 13 14 15 14 14 11
3 4 5 5 5 5 5 5 5 5 4 9 9 10 10 11 10 11 11 11 10 9 9 8 9 9 8 8 9 8 10 9 9 8 7 9 7 10 11 12 13 14 10 8 8
3 3 5 4 5 5 5 5 5 5 7 10 10 10 11 10 10 10 9 10 9 9 9 7 8 7 7 8 9 8 9 8 8 7 8 9 7 9 11 11 12 11 8 7 6
1 3 4 4 4 5 5 6 5 5 7 9 8 8 9 9 9 8 8 9 9 8 8 7 9 8 7 9 8 9 8 8 8 7 6 8 7 9 10 11 12 7 6 5 4
2 3 4 4 4 5 5 5 4 4 9 7 7 8 7 6 7 7 6 6 5 4 5 5 7 8 8 6 7 7 6 4 3 5 6 9 8 9 8 9 8 7 4 3 4
3 3 3 3 3 4 5 3 4 8 7 7 7 7 5 6 6 5 4 3 5 5 2 3 4 7 6 6 5 5 5 4 5 6 7 9 8 7 7 7 5 4 3 1 2
2 3 3 3 4 4 4 0 5 6 6 6 6 6 5 5 5 4 4 3 5 5 3 3 4 5 6 6 6 5 3 6 6 7 5 7 10 9 4 3 3 1 1 0 -1
2 2 2 3 3 3 1 4 5 7 6 6 5 5 4 4 4 3 3 5 4 5 4 4 2 5 6 6 6 6 7 4 4 5 5 9 8 5 3 3 2 1 -0 -1 -2
1 2 2 2 3 4 1 3 6 6 6 6 5 4 4 3 4 3 4 4 3 4 4 4 3 4 4 4 5 5 5 6 6 6 6 7 5 3 2 1 1 0 -0 -2 -3
2 0 2 2 2 2 1 5 7 6 6 6 5 5 4 3 3 3 3 4 5 4 3 3 0 2 4 6 7 6 6 5 6 6 8 7 4 2 0 0 -1 -0 -1 -2 -4
2 1 1 2 -0 0 4 6 5 5 4 4 4 3 3 2 2 2 2 4 4 3 3 3 2 1 4 5 6 5 4 4 6 6 7 6 4 1 -0 -0 -2 -2 -3 -3 -4
3 -1 2 2 2 2 3 4 3 4 3 3 3 3 2 2 2 1 2 3 3 3 4 3 1 2 2 5 6 3 4 4 5 6 5 4 2 0 -1 -2 -2 -3 -4 -4 -5
3 0 2 -0 1 1 1 3 3 3 3 3 3 2 1 1 1 1 1 -0 1 3 3 2 2 2 3 4 4 3 4 4 5 5 4 2 1 -1 -2 -3 -4 -5 -5 -5 -6
3 2 2 1 2 0 2 2 3 3 2 2 2 2 1 0 1 1 1 1 0 2 2 1 1 2 3 4 3 2 2 3 2 3 3 1 -0 -2 -3 -4 -5 -6 -6 -6 -7
2 3 4 1 0 0 0 2 2 1 2 3 2 1 0 2 2 2 2 2 2 2 1 1 1 3 5 4 4 1 1 0 0 0 2 2 -1 -2 -4 -4 -6 -7 -7 -7 -7

GFSSW_850_temp_108.txt.gz
Temp
11 11 12 12 12 12 12 12 12 12 12 12 12 12 12 13 14 15 15 15 15 15 15 14 14 14 14 13 13 13 9 7 12 13 13 16 15 17 17 17 18 19 19 20 20
11 11 11 11 11 11 11 11 11 11 11 11 12 11 12 13 14 15 15 14 14 14 14 13 14 14 13 13 13 11 7 9 11 13 14 15 14 15 16 16 16 17 19 19 19
10 10 10 10 10 11 10 11 10 10 11 11 11 11 12 12 13 14 15 15 14 14 14 14 13 13 12 12 12 11 9 10 13 14 14 14 14 15 15 14 16 17 18 18 19
10 10 10 10 9 10 10 10 10 10 9 10 11 11 12 12 12 14 14 14 14 14 14 13 13 12 11 11 12 11 11 12 13 15 14 13 15 14 15 15 16 17 17 17 18
10 10 9 9 9 10 10 10 9 9 9 9 10 11 11 11 13 14 13 13 13 13 13 13 12 12 11 11 11 10 11 13 13 14 14 14 12 13 14 16 17 17 17 18 18
9 9 9 8 9 9 9 9 9 9 9 9 9 9 9 7 13 13 13 13 13 13 12 12 12 12 12 11 11 12 11 11 12 13 14 12 13 14 15 16 16 17 17 18 18
9 9 9 7 8 8 8 9 9 9 8 9 8 8 8 12 13 13 13 12 12 12 12 12 12 12 12 10 12 12 10 10 11 12 12 13 11 11 15 14 14 14 15 15 16
9 8 9 8 8 7 7 8 8 9 9 8 7 7 9 12 12 12 12 12 12 12 12 12 12 12 12 12 10 9 10 10 12 11 13 13 11 12 14 13 13 13 14 15 15
9 8 9 7 7 7 7 8 8 8 9 9 7 6 8 11 11 12 12 12 12 12 12 12 12 12 11 8 6 7 7 8 9 9 10 9 9 11 12 12 12 12 13 13 14
9 8 8 7 5 6 7 7 8 8 8 7 5 5 10 11 11 11 11 11 12 12 12 12 11 7 6 6 6 7 7 7 7 8 9 8 8 11 12 12 11 11 12 12 14
8 7 7 6 5 6 6 7 6 6 5 10 9 9 10 10 11 11 11 12 11 11 9 9 7 6 7 7 8 8 7 6 8 9 8 8 8 10 11 11 10 11 12 13 13
8 6 7 5 4 5 6 6 6 6 6 9 8 8 9 9 8 11 11 11 10 9 8 7 6 8 8 8 8 7 6 6 7 8 8 8 8 10 10 10 11 12 12 12 13
7 5 5 3 3 5 5 6 6 6 4 8 8 8 10 9 8 10 10 10 9 8 8 7 9 9 8 8 8 7 7 7 8 8 7 7 8 9 10 11 12 12 12 12 12
7 4 5 2 2 4 4 5 6 6 4 7 7 9 9 10 9 10 10 10 10 9 9 8 8 9 8 7 8 6 8 8 7 6 7 8 6 9 9 10 11 12 12 6 5
5 4 2 4 3 4 5 5 5 5 7 9 9 10 10 10 9 9 9 10 9 9 9 8 8 7 7 7 8 7 8 7 7 6 5 7 5 8 9 9 9 7 5 3 3
5 4 2 2 3 4 4 4 5 5 7 8 8 8 8 8 7 8 8 9 8 7 7 7 8 8 7 8 8 8 6 6 6 5 4 7 6 7 7 5 5 5 4 3 2
4 3 2 3 3 3 4 4 5 5 9 6 6 7 6 6 6 6 6 5 5 5 4 5 5 7 7 6 6 5 4 2 2 3 5 7 6 7 4 3 2 2 1 1 -0
3 2 1 2 3 3 3 2 3 7 6 7 6 5 4 5 5 5 5 4 4 3 2 2 3 6 5 6 4 4 4 4 4 5 5 7 6 6 4 3 1 0 -0 -1 -2
2 1 2 2 2 3 3 1 5 6 6 6 6 5 4 5 5 4 4 4 4 4 2 3 3 5 6 6 5 4 3 5 5 5 4 5 6 6 4 3 2 0 -1 -2 -3
0 1 1 1 2 3 1 4 4 6 6 6 5 5 3 4 4 4 3 4 4 5 3 3 2 5 5 6 5 4 6 3 4 2 4 5 6 3 2 2 1 -0 -1 -3 -4
1 2 1 2 2 3 -1 2 5 6 6 6 5 4 4 3 3 3 3 4 4 4 4 3 2 3 4 4 3 4 4 4 4 4 4 3 3 2 0 -0 -1 -1 -2 -4 -4
2 -2 1 2 1 1 0 4 6 6 6 5 4 4 4 3 2 3 3 4 4 4 3 3 -0 2 3 5 5 5 4 4 2 6 6 5 3 1 -1 -1 -2 -2 -3 -4 -5
1 0 0 1 0 -0 3 5 5 5 4 4 3 3 3 2 2 2 2 4 3 3 3 2 1 0 4 3 5 5 4 4 4 3 6 3 1 -0 -2 -1 -3 -4 -4 -5 -5
2 -1 -0 1 2 2 3 4 3 4 3 3 3 3 2 1 2 1 2 3 3 2 3 3 1 1 2 5 5 3 4 3 3 4 4 2 1 -1 -2 -3 -4 -5 -5 -6 -6
3 -1 2 0 0 1 2 3 3 3 3 3 2 2 2 1 1 1 1 -1 1 3 2 1 1 1 2 3 3 2 2 2 4 5 4 1 -0 -2 -3 -4 -5 -6 -6 -6 -7
2 1 1 0 2 1 3 2 3 2 2 2 2 1 1 0 1 0 1 0 -0 1 1 2 1 1 1 3 3 1 1 0 0 1 0 -0 -1 -3 -4 -5 -6 -7 -7 -7 -7
3 3 5 1 0 1 1 2 2 0 2 3 2 1 0 1 2 2 2 2 2 2 1 1 1 2 3 2 2 2 0 -0 -1 -1 1 2 -2 -3 -5 -5 -7 -7 -8 -8 -8

GFSSW_850_temp_111.txt.gz
Temp
11 11 11 10 11 10 11 11 11 11 11 11 11 12 13 13 14 15 15 15 15 15 14 14 14 14 14 13 13 13 14 13 15 15 17 16 16 16 16 16 16 17 17 17 18
10 10 10 10 10 10 10 10 10 11 10 11 11 11 12 13 14 15 14 14 13 14 14 13 13 14 13 13 13 13 12 13 14 15 16 15 15 15 15 16 16 16 17 18 18
10 10 10 10 10 10 9 10 10 10 10 11 11 11 12 12 13 14 14 14 13 13 13 13 13 13 12 12 12 11 14 12 13 14 14 15 15 15 16 16 16 16 17 17 17
10 10 9 10 9 10 9 10 10 10 10 10 10 11 11 12 14 14 14 14 14 13 13 13 13 12 12 12 11 12 12 13 13 13 13 14 14 15 15 15 16 16 16 16 17
10 10 10 9 9 10 9 9 10 9 9 9 10 10 11 11 13 14 13 13 13 13 13 13 12 12 12 11 11 12 13 12 12 12 12 13 13 15 14 15 15 15 15 15 15
9 9 9 9 9 9 9 9 9 9 9 9 9 10 9 9 12 13 13 12 12 12 12 12 12 12 12 11 12 11 12 12 12 13 13 13 14 12 14 13 14 14 15 15 15
9 10 9 9 9 9 8 8 8 9 9 9 9 8 9 12 13 13 13 12 12 12 12 12 12 12 12 11 11 11 11 12 13 13 13 11 13 13 12 13 13 13 13 14 14
10 10 9 9 8 8 8 7 8 8 9 8 8 8 9 12 12 12 11 12 12 12 12 12 12 12 11 11 10 11 10 12 12 11 12 13 14 13 12 12 13 12 12 13 14
10 10 9 9 8 7 8 6 7 8 8 8 8 7 9 11 11 11 11 11 11 12 12 11 11 11 10 10 10 9 12 10 11 11 11 12 12 13 12 12 12 12 12 12 13
9 9 9 8 8 7 7 6 7 7 7 7 6 6 10 11 10 10 11 11 11 11 11 11 10 10 9 10 11 11 10 9 10 11 12 11 11 12 12 12 12 12 12 12 12
9 9 8 7 8 7 5 6 6 6 5 9 9 9 10 10 10 11 11 11 11 11 11 9 10 10 11 10 10 9 9 9 10 11 9 10 11 12 12 11 11 12 12 12 12
8 8 7 7 7 6 5 6 6 6 5 9 9 7 9 9 10 10 11 11 10 10 9 9 9 10 9 9 9 9 9 9 10 10 10 11 11 12 12 11 12 12 12 12 12
8 7 7 7 5 6 5 5 5 6 5 8 8 7 9 9 7 9 10 10 10 9 9 9 10 9 9 9 9 9 9 9 9 10 10 10 11 12 13 12 11 10 7 5 5
7 7 7 6 4 4 4 4 5 4 6 8 7 8 8 8 9 9 9 10 9 9 8 9 9 9 9 9 9 8 9 9 9 8 9 10 9 11 12 11 8 6 4 3 2
7 7 7 5 5 4 4 2 4 4 6 9 8 9 9 9 9 9 9 10 9 9 9 9 8 8 8 9 9 9 9 8 8 8 8 9 7 11 12 9 5 4 3 2 0
7 6 5 4 4 3 4 3 4 6 6 8 8 8 8 7 7 8 9 9 8 8 7 8 7 8 8 9 8 8 7 8 7 7 6 9 8 10 7 4 3 3 2 0 -1
6 6 4 4 3 3 3 3 5 6 9 7 7 7 6 6 6 7 6 6 7 7 6 6 7 7 7 7 6 7 7 6 6 6 7 8 8 9 4 4 3 2 1 -0 -1
5 5 3 2 2 3 2 3 5 8 7 5 6 6 6 6 5 5 5 5 5 5 4 5 6 6 6 6 6 6 6 6 5 6 7 8 7 8 5 4 2 1 0 -1 -2
4 2 1 1 2 2 4 4 6 6 7 6 6 6 5 5 5 5 4 5 5 5 5 4 4 6 6 6 6 5 4 7 6 6 5 7 7 5 4 3 2 -0 -1 -2 -3
3 1 -1 1 0 2 2 5 5 6 6 6 7 6 5 5 5 4 4 5 5 5 4 4 3 5 6 6 6 6 7 5 5 4 5 8 8 7 2 1 1 -1 -2 -3 -4
2 -1 -2 -1 1 1 1 3 5 6 6 6 5 4 5 4 4 4 5 5 4 4 4 4 4 4 5 5 5 4 4 5 6 6 6 7 5 1 -0 -1 -1 -2 -3 -4 -5
-0 -0 -1 -1 1 0 2 4 6 5 5 5 5 5 4 4 4 4 4 4 4 4 4 3 2 3 4 5 5 5 5 4 3 6 5 5 5 -0 -1 -2 -3 -3 -4 -4 -5
-1 -1 -0 0 -0 1 3 5 5 5 5 4 4 4 3 3 3 3 3 3 3 3 3 3 3 2 4 3 5 5 5 4 4 4 4 5 3 -1 -2 -3 -3 -4 -4 -5 -6
-0 -1 -1 0 1 3 3 4 3 3 3 3 3 3 2 2 2 2 2 3 2 2 3 3 2 2 4 6 5 3 4 4 3 4 6 4 1 -1 -2 -3 -4 -5 -5 -6 -6
1 -1 1 0 0 2 3 4 3 3 3 3 2 3 3 2 2 2 2 1 1 2 3 2 2 2 2 3 3 2 2 2 1 4 5 1 -1 -2 -3 -4 -5 -6 -6 -6 -7
1 1 1 2 1 1 3 3 3 2 3 2 3 2 2 2 3 1 1 1 1 2 1 1 2 1 0 4 3 1 1 1 -0 1 -0 -1 -2 -3 -4 -5 -6 -7 -7 -7 -7
1 3 2 2 2 3 2 2 3 1 2 3 2 2 1 2 2 2 3 2 3 2 2 1 2 2 3 2 2 2 0 -0 -1 -1 1 2 -1 -3 -4 -5 -7 -7 -8 -8 -9

GFSSW_850_temp_114.txt.gz
Temp
11 11 11 11 11 11 12 11 12 11 12 11 12 12 12 13 14 15 13 14 15 14 14 14 14 13 14 15 15 16 19 20 21 20 21 21 20 20 19 19 20 19 19 19 18
10 11 11 11 11 10 10 11 11 11 11 12 12 12 12 13 14 14 14 14 13 14 12 13 14 14 16 16 16 17 19 20 21 21 21 20 20 20 19 20 20 20 19 18 18
10 10 10 10 10 10 10 10 10 10 10 11 11 12 12 12 13 14 14 14 13 13 12 13 13 14 16 16 16 17 18 20 18 18 18 19 19 19 19 20 20 19 18 18 17
10 10 10 10 10 10 10 10 9 10 10 10 11 11 12 12 16 14 14 14 13 13 12 13 14 15 17 17 16 16 17 17 18 17 17 18 18 18 18 18 18 18 17 16 16
10 10 10 9 10 10 10 10 9 9 9 10 10 11 11 11 13 13 13 13 13 13 13 14 15 16 17 17 16 15 17 16 16 16 16 16 17 17 17 18 18 16 16 16 16
10 10 9 9 9 10 10 9 9 8 9 9 10 9 9 12 13 13 13 12 12 12 13 13 15 15 15 16 16 15 15 15 15 16 16 16 17 17 17 15 16 16 16 16 16
9 10 9 10 9 9 9 9 9 9 9 9 9 9 7 11 13 13 13 12 11 11 13 12 13 14 14 16 14 14 14 16 17 17 17 15 17 17 17 15 16 17 17 16 16
10 10 10 9 9 9 9 9 9 9 9 9 9 8 9 12 12 12 11 11 12 11 11 12 12 13 14 13 14 15 15 16 17 15 16 16 17 19 16 16 17 17 16 16 16
10 10 9 9 9 8 8 8 8 8 8 9 8 7 10 11 11 11 11 11 11 11 11 11 12 13 13 15 16 15 16 17 16 16 15 16 16 17 16 16 15 15 16 16 16
9 9 9 9 8 8 8 7 8 8 8 8 6 6 10 12 10 11 11 10 11 12 11 12 13 14 15 15 16 17 15 16 15 16 15 15 16 17 16 15 15 15 15 16 16
9 8 8 8 8 8 7 7 6 6 6 10 10 10 10 10 11 11 10 11 12 12 14 13 14 14 16 16 15 14 14 14 16 16 14 15 16 17 17 16 16 16 16 15 14
9 8 7 8 7 7 6 7 7 6 8 8 8 8 9 10 11 11 11 12 12 14 14 13 13 15 15 14 13 13 13 14 15 14 14 15 15 16 18 17 15 15 14 11 9
8 7 7 7 7 6 6 6 6 6 8 10 9 8 9 8 11 12 11 12 13 14 14 14 15 13 13 13 12 13 13 13 13 14 14 15 15 18 16 15 13 11 9 8 7
8 6 7 7 6 5 5 5 5 5 5 11 10 9 8 9 11 9 10 12 13 12 13 13 14 12 12 12 13 12 14 12 12 12 13 15 13 16 18 14 11 10 8 7 6
6 7 7 6 6 5 5 5 5 6 8 11 10 9 9 11 11 10 9 10 12 12 12 12 11 11 11 12 12 12 12 11 11 11 12 13 12 15 17 14 10 8 6 5 4
6 6 6 6 5 5 4 3 5 6 9 10 10 10 11 10 10 10 10 10 10 12 12 12 10 11 12 11 11 11 10 11 11 11 10 14 14 15 14 7 6 5 3 4 3
5 6 6 6 5 4 4 3 5 9 11 10 10 11 11 10 10 10 11 11 11 10 11 11 11 11 10 10 10 10 10 10 11 10 11 12 11 13 8 6 5 4 3 3 1
6 6 5 5 3 3 3 3 5 10 11 9 10 10 10 9 9 9 9 10 9 10 10 11 10 9 9 10 10 10 10 10 9 11 13 11 10 13 8 7 5 4 3 1 0
6 4 3 3 2 2 2 3 10 10 12 10 9 10 9 8 9 8 8 10 10 9 9 9 9 9 8 9 9 9 7 10 8 9 9 10 12 9 7 6 5 3 1 -0 -2
5 2 1 1 0 1 2 6 9 9 9 11 10 11 10 9 8 8 9 9 8 8 8 7 6 8 9 8 9 8 9 6 8 6 8 11 11 10 3 2 2 0 -1 -2 -3
4 0 -1 -0 -0 0 3 5 8 8 8 9 10 8 9 8 8 8 9 7 7 7 7 7 6 7 7 7 8 7 7 7 8 8 8 9 8 2 0 -1 -1 0 -1 -2 -4
1 0 -1 -0 1 1 4 7 8 8 7 8 9 9 9 8 7 7 7 7 7 6 6 7 5 6 7 8 8 8 8 8 6 7 8 8 7 1 -1 -1 -1 -1 -1 -3 -4
-1 -2 -1 -1 2 3 6 7 8 8 8 8 8 8 7 7 6 7 6 5 5 6 6 6 6 5 6 5 7 5 7 8 6 5 6 6 6 1 -1 -1 -2 -3 -2 -3 -4
-0 0 -1 -1 1 5 6 7 6 7 7 7 6 6 6 6 6 5 5 5 4 5 4 5 5 4 8 8 8 6 5 5 5 5 8 7 2 0 -1 -2 -3 -3 -4 -4 -5
0 2 2 1 2 5 7 7 7 6 6 5 5 6 7 5 5 4 5 4 4 3 5 4 4 4 4 6 6 5 5 5 3 4 4 4 1 -1 -2 -3 -4 -5 -5 -5 -6
0 3 3 4 4 4 6 6 6 5 5 5 6 6 6 5 6 5 5 4 4 5 5 5 3 3 3 6 5 3 2 3 1 1 1 1 -0 -2 -2 -4 -4 -5 -6 -6 -6
1 3 5 4 5 5 6 6 6 4 5 6 6 5 5 6 5 5 5 5 5 4 4 3 3 3 5 5 4 3 2 1 0 1 2 4 -0 -1 -2 -3 -6 -6 -6 -7 -7

GFSSW_850_temp_117.txt.gz
Temp
11 11 11 11 11 11 12 12 12 12 12 13 12 12 13 13 14 14 14 15 14 14 15 15 15 16 17 18 19 19 22 23 24 25 25 25 24 23 23 22 23 22 22 22 21
11 11 11 11 11 11 11 11 11 11 12 12 13 12 12 13 14 13 14 14 14 14 14 15 17 17 18 19 19 20 22 23 25 24 23 23 23 23 23 23 22 22 22 21 20
10 10 11 11 11 11 11 11 11 11 12 12 12 13 12 13 12 16 15 15 14 14 14 16 16 17 19 20 20 20 21 23 23 22 21 21 21 21 22 22 22 22 21 20 20
10 10 10 10 10 10 10 11 11 11 11 12 12 13 12 13 17 14 14 14 15 14 14 16 16 18 20 21 20 21 21 21 21 21 20 20 20 20 20 21 20 20 20 19 19
10 10 10 10 10 10 10 10 10 10 11 11 11 12 13 13 15 14 14 13 13 13 15 16 17 18 19 21 20 20 20 20 20 19 18 18 19 19 20 20 20 20 18 19 18
10 10 10 9 10 9 10 10 10 10 10 11 10 10 9 13 13 13 12 12 13 13 15 15 17 17 18 19 20 20 19 19 19 19 18 18 19 19 20 20 19 19 19 19 19
10 10 10 10 9 10 9 10 9 10 10 10 10 9 9 13 12 12 12 12 14 14 15 15 15 16 18 19 18 18 18 19 20 20 20 18 18 19 20 19 19 19 19 19 19
10 10 10 10 9 9 9 9 9 9 10 10 9 8 10 12 12 11 12 12 13 13 14 14 14 15 16 17 17 18 19 19 22 19 19 17 18 22 20 19 19 19 19 19 19
10 10 10 10 9 9 9 8 8 9 10 10 8 7 13 12 12 13 13 13 13 13 13 13 14 15 17 17 18 19 18 20 21 20 19 19 19 21 19 19 18 18 18 19 18
9 9 9 9 9 8 8 8 8 8 8 7 7 8 12 14 13 12 13 13 14 14 14 13 15 17 17 18 17 19 20 21 20 21 20 19 19 20 19 20 19 18 19 18 18
9 9 9 9 8 8 7 7 7 7 7 12 14 13 14 13 12 13 13 13 14 15 15 16 16 17 18 19 19 18 18 17 19 20 19 18 18 19 20 20 20 20 19 19 17
8 8 8 8 7 8 7 7 8 8 11 11 11 12 12 12 12 13 13 14 15 15 17 17 15 17 19 18 17 16 16 17 18 19 18 17 17 19 20 20 20 19 19 15 13
8 8 8 8 7 7 6 6 6 8 10 13 13 12 12 11 12 14 13 14 16 16 17 17 18 18 16 16 16 16 16 16 16 17 17 17 17 19 21 19 18 15 13 12 11
7 7 8 7 6 6 6 6 6 7 9 15 12 12 11 11 12 13 14 14 16 15 16 16 17 16 16 15 16 15 17 16 15 15 14 17 15 17 19 20 17 14 12 10 9
6 6 8 6 6 5 6 6 6 7 10 16 13 11 11 12 13 12 12 13 14 15 15 15 16 14 14 15 16 15 15 14 14 14 14 15 14 17 19 19 16 12 9 8 8
6 6 6 6 6 6 6 6 6 8 10 14 13 12 13 13 13 13 12 12 14 15 15 15 15 14 15 15 14 14 13 13 13 13 11 14 15 17 16 11 11 9 8 7 6
7 6 6 6 6 6 5 6 6 9 15 14 13 13 14 13 13 13 13 13 14 12 13 15 15 15 13 13 14 13 12 11 12 13 13 16 16 16 12 10 8 8 6 5 4
6 6 6 5 5 5 5 4 7 14 14 13 13 13 13 14 13 13 13 13 14 13 13 12 11 15 14 12 13 14 13 11 10 12 13 16 14 14 11 10 8 6 5 3 2
6 4 6 5 4 4 4 5 11 13 15 13 13 12 13 13 12 12 12 13 14 14 11 12 12 13 12 13 12 12 11 12 10 11 10 12 14 13 10 8 6 4 3 1 -0
5 3 2 4 3 3 3 6 11 13 14 14 12 13 13 13 11 12 12 13 12 11 11 11 9 13 12 11 11 10 12 9 9 7 9 13 14 8 3 3 3 3 2 0 -1
4 1 1 1 0 1 5 10 12 12 12 13 13 13 13 13 12 12 12 11 11 10 10 11 9 10 10 10 10 11 9 9 10 9 9 10 8 3 1 0 1 2 2 -0 -2
2 1 -0 -0 1 1 6 10 10 12 11 12 12 13 12 13 11 11 11 11 10 10 8 10 8 8 10 12 12 11 11 10 8 8 9 10 9 2 1 1 1 -0 -1 -0 -2
0 -1 -1 -0 3 5 9 10 10 11 11 11 11 12 12 11 10 11 10 9 8 9 8 9 7 6 8 9 9 8 10 10 9 8 7 7 7 2 1 1 -1 -2 -1 -2 -3
1 0 -1 -1 0 7 8 9 9 10 11 11 11 11 10 10 10 9 9 7 7 8 5 7 6 6 8 6 8 8 9 9 9 7 9 9 4 1 -0 -0 -1 -3 -3 -4 -4
1 2 3 1 1 5 8 9 9 9 10 10 9 9 9 9 9 8 9 7 6 5 6 6 5 6 6 7 8 8 8 8 6 7 5 6 4 0 -1 -1 -3 -4 -4 -4 -5
1 4 4 8 4 4 6 8 9 9 9 9 9 9 9 9 9 8 8 7 5 7 6 7 4 4 4 7 8 6 7 7 5 4 2 3 1 -1 -2 -3 -3 -4 -5 -5 -6
3 6 6 7 5 5 7 9 9 9 8 8 8 9 9 9 9 9 9 8 8 7 6 6 4 4 6 8 6 5 4 4 3 3 3 3 1 -1 -1 -3 -5 -5 -6 -7 -7

GFSSW_850_temp_120.txt.gz
Temp
12 12 12 11 12 12 12 12 12 13 13 13 13 13 14 14 15 15 14 15 15 15 15 15 16 17 18 19 20 21 20 21 23 25 25 26 25 25 24 24 23 23 23 23 22
11 11 11 11 11 11 11 12 12 12 13 13 13 13 13 14 15 14 15 16 16 15 16 16 18 18 19 20 21 21 21 22 25 25 24 24 23 23 22 23 23 23 23 23 22
11 11 11 11 11 11 11 11 11 11 12 13 13 13 13 14 15 15 16 15 16 16 15 16 17 18 19 20 21 21 20 22 23 23 23 22 22 22 22 22 22 22 21 21 21
10 10 10 10 10 11 11 10 11 11 11 12 12 13 13 14 17 16 16 15 15 15 15 17 17 18 19 20 22 21 22 22 22 22 21 21 21 21 21 21 21 21 21 21 19
10 10 10 10 10 10 10 10 11 11 11 11 12 12 13 13 16 15 15 15 14 14 15 17 18 19 19 21 21 22 22 22 21 21 21 20 20 20 19 19 20 20 21 20 19
10 10 10 10 10 10 10 10 10 11 11 11 11 11 11 12 15 14 13 13 13 15 15 17 17 18 18 19 20 20 21 21 20 20 20 21 20 20 20 20 20 20 20 20 19
10 10 10 10 10 10 10 10 9 10 10 10 11 10 9 12 14 14 13 13 14 15 16 17 17 17 18 19 19 19 19 20 20 20 21 21 20 19 20 20 20 19 20 20 20
10 10 10 10 9 9 9 9 9 9 10 10 10 9 9 13 13 13 13 13 14 14 15 15 15 16 16 17 18 18 19 18 21 22 21 20 18 21 21 20 20 20 20 20 19
10 10 10 10 9 9 9 9 8 9 9 10 9 9 12 13 13 14 13 14 15 14 14 15 15 15 16 17 17 18 17 19 21 22 21 20 18 21 21 21 20 19 19 19 19
10 10 10 9 9 9 8 8 8 8 8 9 7 9 12 15 15 14 14 14 15 15 15 14 15 15 17 16 15 18 19 20 20 22 22 21 20 20 21 21 20 20 20 19 19
9 9 10 9 9 8 8 7 8 8 7 11 14 14 14 16 14 14 15 14 15 15 15 16 15 15 17 19 19 19 19 19 19 20 20 19 20 20 20 20 20 20 20 20 19
8 8 8 8 8 8 7 7 7 8 9 11 11 12 13 14 14 14 15 14 15 15 16 16 15 17 18 19 18 18 18 17 18 19 19 19 19 19 20 20 20 20 19 15 14
8 7 7 8 8 8 7 7 8 8 9 13 14 15 15 14 14 14 15 15 15 16 16 16 18 19 18 18 17 17 17 17 17 18 18 17 17 18 20 20 21 18 15 13 11
7 7 7 8 7 7 7 8 8 8 11 15 16 15 15 14 14 14 14 15 15 15 16 16 18 17 17 17 17 15 17 17 16 15 14 17 14 16 18 18 19 14 12 10 9
7 7 7 7 7 7 7 7 8 8 10 18 15 13 13 13 15 15 14 15 15 15 16 15 16 16 16 16 16 16 17 16 15 14 14 14 14 15 17 17 12 11 10 9 8
6 6 6 6 7 7 7 7 8 9 10 16 15 14 14 13 15 14 14 13 14 15 15 16 17 17 16 16 16 16 14 14 14 14 12 13 14 15 14 12 10 9 8 7 5
5 6 6 6 6 6 6 7 6 9 16 16 15 15 14 14 15 15 14 13 14 12 13 15 16 17 16 14 15 15 13 11 11 12 12 15 15 11 11 10 9 8 6 4 3
5 6 6 6 6 6 6 5 7 13 14 17 15 15 14 16 15 14 14 14 15 15 14 13 13 16 16 14 13 13 13 11 9 10 12 14 12 11 11 9 6 5 4 3 1
5 5 5 5 6 5 5 6 9 13 16 16 15 14 14 15 15 14 14 14 15 16 13 12 13 15 14 14 13 12 11 13 11 11 10 11 13 11 8 6 5 5 3 2 -0
4 4 5 5 5 4 5 6 11 14 15 15 14 14 14 15 13 13 13 15 14 15 13 12 10 13 13 14 13 12 12 9 10 8 8 11 12 6 3 3 3 3 2 1 -1
3 3 3 3 2 2 4 7 10 13 14 14 14 14 15 15 15 14 13 13 13 12 12 12 11 11 12 12 11 11 11 10 10 9 8 8 8 2 1 1 1 2 1 -0 -2
3 1 1 2 1 0 5 9 11 12 13 14 14 14 14 14 14 14 13 14 12 12 10 11 10 8 10 13 13 12 11 11 8 7 9 9 7 3 1 2 1 1 -0 -1 -3
2 -1 0 1 3 2 5 9 11 12 14 13 13 13 14 14 12 13 13 10 10 10 10 10 8 7 8 10 11 10 10 10 10 8 7 7 6 2 2 1 -0 -1 -2 -3 -4
1 0 -1 -0 0 4 6 8 9 11 13 13 12 13 13 12 13 11 12 9 8 9 7 7 7 6 6 7 8 6 6 9 10 8 8 8 3 2 1 1 -1 -2 -3 -4 -5
2 2 3 1 1 3 6 9 10 10 11 12 12 12 11 10 11 11 11 8 8 7 7 7 5 6 6 7 8 8 8 9 7 8 7 6 4 1 -0 -1 -3 -3 -4 -5 -6
2 6 4 8 4 3 2 6 9 11 11 11 11 12 11 10 10 9 10 9 6 7 6 7 5 5 4 7 7 7 7 8 7 7 5 4 4 1 -1 -3 -3 -4 -5 -6 -6
3 6 7 7 6 3 5 7 9 11 11 11 11 10 10 10 10 10 10 10 9 7 6 6 5 4 5 8 8 6 6 6 7 7 6 5 3 -1 -2 -3 -5 -5 -6 -7 -7

GFSSW_850_temp_123.txt.gz
Temp
12 12 12 11 11 12 12 12 12 12 13 13 13 14 14 15 16 16 15 15 16 16 16 16 17 17 17 17 19 19 15 14 16 19 20 22 21 22 22 22 23 23 23 22 21
11 11 11 11 11 11 11 11 12 12 12 13 13 14 14 15 16 16 16 16 17 17 16 16 17 17 18 18 19 17 14 16 18 19 19 21 20 21 21 21 22 22 22 21 21
11 11 11 11 11 11 11 11 11 12 12 12 13 13 14 15 16 16 16 16 16 16 16 16 17 17 18 19 19 18 15 17 20 21 21 20 20 21 19 18 20 20 21 21 21
10 11 11 11 11 11 11 11 11 11 11 12 12 13 14 14 14 16 16 16 15 15 16 16 17 18 17 16 19 17 19 20 21 21 21 19 21 19 20 19 20 20 20 20 20
10 10 10 10 10 10 10 10 10 11 11 11 12 12 13 13 14 15 15 15 15 15 15 16 17 17 16 17 18 17 18 19 20 20 20 20 19 18 19 20 20 19 20 20 20
10 10 10 10 10 10 10 10 10 10 10 10 11 11 12 11 14 14 14 14 15 14 15 16 17 17 17 18 16 18 18 18 19 19 19 18 18 19 20 20 19 19 19 20 19
10 10 10 10 10 10 9 9 10 10 10 10 10 10 11 14 14 14 13 14 14 14 15 16 16 17 16 15 17 17 15 16 17 18 17 19 16 16 20 20 19 20 19 19 19
10 10 10 10 10 10 11 9 9 9 10 10 10 10 10 14 13 14 14 14 14 14 14 15 15 15 15 16 16 15 15 14 16 18 18 18 16 18 20 20 20 19 19 19 19
9 9 10 10 10 9 10 9 9 9 10 9 10 9 10 13 14 14 14 14 14 14 14 14 15 15 15 13 13 14 12 14 16 19 19 17 16 17 20 19 19 20 19 19 19
9 9 9 10 9 9 9 8 8 9 9 8 8 8 12 15 15 14 14 14 14 15 14 14 14 12 11 11 10 14 14 15 15 18 17 16 15 15 20 20 19 19 19 19 14
9 9 9 7 9 9 9 7 8 8 7 10 11 13 14 14 14 15 15 14 14 14 12 14 11 10 11 12 14 15 15 14 15 17 16 15 15 15 17 18 17 19 18 13 10
8 7 8 7 8 8 8 7 9 9 8 10 12 12 13 13 13 14 14 14 14 12 13 12 11 13 14 15 15 15 14 14 15 17 16 14 14 14 15 16 17 15 11 10 9
7 7 7 7 7 8 8 8 8 8 7 10 11 12 11 13 12 13 14 14 13 12 12 12 13 16 16 15 15 15 14 14 14 15 14 13 13 14 15 16 12 9 8 7 6
6 6 7 7 7 7 7 9 9 8 5 11 14 14 13 14 14 14 14 14 13 13 13 13 15 15 15 14 15 13 15 15 14 12 10 13 10 12 14 13 10 8 7 5 4
6 7 7 6 7 7 8 8 8 8 7 15 14 14 15 14 14 14 14 14 12 13 13 12 14 14 14 14 15 13 14 13 13 10 10 12 9 12 13 9 8 7 5 3 2
6 6 6 6 6 7 8 8 8 7 7 14 13 13 13 13 14 14 14 14 13 13 13 12 15 14 14 15 14 14 13 11 11 10 8 11 10 9 7 8 6 5 4 2 1
5 6 6 6 6 7 7 7 6 7 15 14 12 13 13 12 13 13 12 11 10 10 10 12 13 14 15 13 14 13 11 6 6 6 8 12 12 8 7 6 5 4 2 1 -1
4 5 6 6 6 6 6 5 6 10 12 15 15 13 12 13 13 13 12 10 11 11 10 10 9 13 14 13 11 11 10 8 7 7 7 11 9 7 6 5 4 3 2 0 -1
3 4 5 5 5 6 5 5 7 10 13 14 14 13 12 14 13 12 11 11 12 12 9 10 11 13 13 13 12 11 9 11 9 8 8 8 7 5 5 3 3 2 1 -1 -2
3 4 4 5 5 4 5 7 8 11 13 14 12 13 12 12 12 11 11 13 12 12 11 11 8 12 13 13 12 10 11 5 5 6 6 7 9 6 2 2 1 1 -0 -2 -3
2 3 3 4 4 1 4 6 9 10 12 13 13 13 13 12 12 10 12 12 13 11 11 11 8 9 10 10 9 9 8 8 7 6 4 3 2 2 0 1 1 1 -0 -3 -4
2 2 2 3 1 0 3 5 9 10 11 11 11 12 12 12 12 12 11 12 12 10 9 9 7 5 7 10 10 10 9 8 3 6 6 6 3 1 0 1 1 -0 -1 -3 -5
2 1 1 2 3 2 3 6 7 9 10 9 10 12 12 11 10 12 9 9 11 9 8 9 6 3 5 7 8 7 7 7 7 5 6 3 1 1 1 1 -1 -2 -3 -4 -6
1 -0 -0 0 0 3 5 5 7 9 10 9 10 11 11 9 11 10 8 8 9 7 8 7 5 4 4 5 6 5 7 7 6 4 4 3 -0 1 1 1 -1 -3 -4 -5 -6
2 0 1 -0 1 2 5 6 6 7 10 11 10 10 10 9 10 9 8 6 7 6 7 5 4 2 4 6 6 5 5 6 4 6 4 1 2 0 0 -1 -3 -4 -5 -6 -7
1 2 2 2 3 2 3 4 6 7 9 10 9 10 9 7 8 9 8 5 4 6 5 5 2 -0 -1 5 5 4 5 5 4 4 2 1 1 0 -2 -3 -4 -5 -6 -7 -7
0 4 5 4 2 2 4 4 6 7 9 10 9 9 8 9 10 9 9 9 6 4 3 3 0 -1 1 6 7 3 3 3 4 5 5 4 2 -1 -2 -3 -5 -6 -6 -7 -8

GFSSW_850_temp_126.txt.gz
Temp
12 12 12 12 12 12 12 12 12 13 13 13 14 14 15 16 16 17 17 16 16 16 16 17 17 17 17 17 18 18 13 12 15 18 19 20 19 21 21 21 21 21 21 20 20
11 12 12 12 12 12 11 12 12 12 12 12 13 14 14 15 16 16 16 16 16 17 16 16 17 17 17 18 18 16 12 14 16 18 18 19 18 19 20 20 20 20 21 20 19
11 11 11 12 12 11 11 11 12 12 12 12 12 13 14 15 16 16 16 16 16 16 16 16 17 17 17 18 18 16 14 15 18 20 18 19 19 20 19 18 19 19 19 20 19
11 11 11 11 11 11 11 11 11 11 11 12 12 13 13 15 14 16 15 15 15 16 16 16 16 17 16 16 17 16 17 17 18 19 18 17 19 19 19 19 20 20 19 19 20
10 10 11 11 11 11 11 11 11 11 11 11 12 12 13 13 15 15 15 15 15 15 15 16 16 16 15 16 16 16 17 18 18 18 18 19 18 18 18 20 20 20 19 19 19
10 10 10 10 11 10 10 11 11 10 11 11 11 11 12 11 15 15 15 15 14 14 15 15 15 15 16 16 15 16 16 16 18 17 17 17 17 17 19 20 20 20 19 19 19
10 10 10 10 10 10 10 11 10 10 10 10 10 11 11 14 14 14 15 15 14 14 14 15 14 15 15 14 15 16 15 14 16 17 16 18 16 16 20 19 19 20 19 19 17
10 9 10 10 10 11 11 11 10 9 10 9 10 10 10 14 14 14 14 15 15 14 14 14 15 15 15 15 15 14 14 14 16 17 18 16 14 15 20 19 19 20 19 17 10
10 10 9 9 10 9 10 9 9 9 9 9 9 10 10 13 14 15 16 15 15 14 14 14 14 14 14 12 11 12 12 13 15 17 17 16 15 16 18 18 19 18 19 11 9
9 10 9 9 9 9 9 9 8 9 8 8 8 8 12 14 15 15 15 14 14 14 14 14 14 11 9 9 10 11 12 13 13 15 15 15 14 14 17 17 17 16 12 9 7
8 8 8 9 9 9 9 8 8 9 8 11 11 12 15 14 14 14 14 14 14 14 11 13 10 9 9 10 12 12 12 11 13 15 14 13 13 15 16 13 10 8 7 6 5
8 8 7 8 8 8 8 8 9 9 8 10 11 10 12 13 12 13 14 14 13 11 12 11 9 11 12 12 12 12 12 12 13 15 15 13 12 13 11 8 7 5 4 4 4
7 7 7 7 6 7 8 9 8 8 8 10 11 11 11 12 11 12 13 14 12 11 11 9 11 13 13 12 12 13 12 13 13 13 13 13 12 13 10 8 6 4 3 2 2
6 6 6 6 6 6 7 8 7 8 5 9 10 12 11 12 11 14 13 13 12 12 11 11 13 13 13 12 13 12 14 13 12 10 9 11 8 10 9 6 5 3 2 1 2
6 6 6 6 6 6 8 8 8 9 6 13 12 13 13 13 14 13 13 13 12 12 12 11 12 13 12 13 14 12 13 12 12 9 9 9 8 9 8 5 4 3 1 0 -0
5 5 6 6 6 7 7 7 7 5 6 12 12 13 12 13 14 13 13 13 13 12 12 11 13 12 12 14 13 13 11 9 9 8 7 10 8 8 5 5 4 2 1 -1 -1
5 5 5 6 6 7 7 6 6 6 11 12 11 12 12 11 12 12 12 11 10 10 9 11 11 12 13 11 13 12 8 6 6 6 7 10 8 5 4 4 2 1 -0 -2 -2
4 5 5 6 7 7 6 5 6 8 10 13 12 11 11 11 11 11 10 9 10 10 8 8 9 12 13 12 10 10 8 6 7 7 6 9 7 4 4 3 2 1 -0 -1 -3
3 4 4 5 6 5 5 5 6 8 11 12 13 11 10 11 11 11 9 9 10 9 8 9 10 12 12 12 11 11 8 9 8 7 6 7 4 5 4 2 2 1 -2 -3 -3
2 2 4 4 5 4 4 6 6 10 11 12 11 12 9 10 10 10 9 11 11 11 10 10 8 10 12 12 11 10 10 7 5 7 6 6 6 3 2 2 2 0 -2 -3 -3
2 3 3 4 4 3 4 4 8 10 10 10 11 10 11 11 11 9 10 12 10 10 10 9 7 8 10 9 9 8 7 7 6 6 5 3 1 -1 -1 -0 -1 -0 -2 -4 -4
1 1 2 3 2 0 3 4 8 9 10 9 11 10 10 11 11 10 10 11 11 9 8 9 5 5 7 9 9 9 8 7 4 6 5 6 4 2 -0 -0 -1 -1 -2 -4 -5
1 1 1 2 3 2 2 5 6 8 9 9 9 10 9 10 10 10 8 8 9 8 7 7 5 3 5 6 7 6 6 6 5 4 4 2 1 0 -0 -1 -1 -2 -4 -4 -6
1 0 1 1 2 4 3 4 5 7 7 8 9 9 9 9 10 9 7 7 7 7 8 7 4 4 6 6 5 4 5 5 5 1 4 2 -1 1 1 0 -1 -3 -4 -5 -6
0 0 2 1 1 2 4 5 5 6 8 9 8 7 7 8 8 7 5 5 6 7 6 4 4 1 3 5 5 4 4 5 3 5 3 1 2 -0 0 -1 -2 -4 -5 -6 -6
-0 -0 1 1 3 2 3 4 5 6 6 7 7 8 7 7 7 6 4 4 4 5 5 3 2 -2 -3 4 4 3 4 4 3 3 1 -0 1 -1 -2 -3 -4 -5 -6 -6 -7
-0 0 3 1 1 2 3 4 4 6 6 7 7 7 7 7 9 9 9 7 5 3 3 1 -0 -2 -0 4 4 3 3 2 1 3 4 3 2 -2 -3 -3 -4 -6 -6 -7 -7

GFSSW_850_temp_132.txt.gz
Temp
12 12 12 12 12 12 13 13 13 13 13 14 14 15 15 16 16 17 17 16 16 16 16 16 17 17 17 17 17 17 11 12 15 14 17 18 17 20 20 20 20 20 20 20 20
11 11 12 12 12 12 12 12 12 13 13 13 14 14 15 15 16 16 16 16 16 16 16 17 17 17 17 17 17 13 10 13 14 16 16 16 17 18 19 19 19 19 19 19 19
11 11 11 11 12 12 12 12 12 12 13 13 13 14 14 15 16 16 16 15 15 15 16 16 16 16 16 16 15 13 12 14 16 16 16 16 16 18 17 18 19 19 19 18 18
11 11 11 11 11 11 11 11 12 12 12 13 13 13 14 14 14 16 16 15 15 15 15 15 16 16 14 14 15 14 15 15 15 16 15 15 16 17 17 19 19 19 16 16 16
11 11 11 11 11 11 11 11 11 11 11 12 13 13 13 13 15 15 15 15 15 15 15 15 15 14 13 13 14 14 14 15 15 16 16 16 15 15 17 19 18 16 15 13 12
10 10 11 10 11 11 11 10 11 11 11 11 11 12 11 11 15 15 15 15 14 15 14 15 14 14 14 14 13 14 14 14 15 16 15 14 15 16 17 16 13 13 10 10 10
9 10 10 10 10 10 10 10 10 11 10 10 11 11 10 13 14 14 15 15 14 14 14 14 14 14 14 13 14 14 12 12 14 15 15 15 15 16 15 13 9 8 7 8 8
9 10 10 9 10 10 10 9 9 9 9 9 10 9 10 14 14 15 14 15 15 14 14 14 14 14 14 14 13 12 11 12 14 14 15 15 14 15 12 13 6 7 7 7 7
10 9 10 9 9 10 9 9 9 8 8 8 9 9 10 13 13 14 14 14 14 14 14 14 14 13 13 10 9 8 10 11 12 14 14 13 14 10 11 10 5 5 5 5 6
10 9 9 9 9 9 9 9 8 8 8 8 8 9 12 13 14 14 15 14 14 14 14 13 13 8 7 8 9 11 11 11 11 12 10 12 11 7 6 6 4 3 4 4 4
8 8 8 9 9 9 8 8 8 8 7 10 10 11 12 13 13 14 14 14 13 13 11 11 9 8 8 9 11 11 10 9 9 10 11 10 11 6 5 4 2 2 2 2 3
8 7 8 8 8 7 7 7 8 8 8 10 10 10 11 12 13 13 14 13 12 11 10 9 8 10 10 9 10 10 9 8 9 10 10 10 10 4 4 3 2 1 1 1 2
5 6 7 7 6 6 6 7 7 8 8 9 10 11 11 11 10 13 12 13 11 10 9 8 11 10 10 10 9 9 9 9 9 11 10 11 9 5 4 3 2 1 1 1 0
4 5 6 5 5 6 6 7 8 8 5 7 8 10 9 10 10 12 11 12 11 10 8 8 10 10 10 10 9 9 9 10 10 10 8 9 7 7 4 3 2 1 1 1 1
4 5 5 5 6 5 6 7 8 9 6 10 9 10 10 10 12 10 11 11 9 9 9 9 11 10 10 9 10 9 11 11 10 9 8 8 6 6 3 3 2 1 0 -0 -0
3 5 5 5 6 6 6 7 7 5 5 10 10 9 9 10 12 11 11 11 11 10 10 10 11 11 11 11 12 10 11 8 5 6 6 7 7 6 3 5 2 1 -0 -1 -1
3 4 5 4 6 6 6 6 6 5 9 10 10 9 9 9 11 11 10 9 8 8 8 10 10 11 12 11 10 9 8 6 6 5 7 7 6 8 3 3 3 1 -1 -1 -1
3 4 4 5 6 6 6 5 5 7 7 10 10 9 9 10 10 10 9 8 9 8 7 8 9 10 10 10 9 8 7 6 7 6 7 7 6 6 3 2 2 1 -0 -1 -1
3 4 5 5 5 5 5 5 5 6 8 9 10 10 9 10 10 10 9 8 8 8 9 7 9 10 11 10 10 8 7 8 8 6 4 7 6 3 2 1 -0 -1 -2 -2 -2
2 3 4 4 4 5 5 7 6 7 9 10 9 10 8 9 10 9 8 9 10 8 10 9 9 9 10 10 9 9 8 6 4 6 7 6 6 6 1 1 0 -1 -2 -3 -3
2 2 3 4 4 4 4 5 6 7 8 9 9 10 10 9 8 8 9 10 9 8 9 7 8 8 9 9 7 7 7 6 6 5 5 6 4 -0 1 1 1 -1 -2 -3 -4
2 1 3 3 3 2 3 5 7 8 8 8 9 9 9 10 9 8 8 9 8 8 8 7 6 5 7 7 7 8 7 5 3 6 4 4 5 0 -1 -2 0 -2 -3 -4 -4
1 2 2 3 3 3 3 5 6 6 7 7 8 8 9 9 9 9 8 6 7 7 7 6 6 4 6 6 6 7 6 6 4 3 5 2 4 -0 -1 -1 -1 -2 -3 -4 -4
0 1 1 2 3 3 4 4 5 6 6 7 7 8 8 8 8 8 7 5 6 6 6 7 5 5 7 7 4 4 5 5 5 2 6 5 5 2 -1 -2 -2 -3 -3 -4 -4
-0 0 2 1 2 2 4 4 5 5 6 7 6 7 7 7 7 7 6 6 6 6 5 5 6 1 4 5 5 5 4 4 3 5 3 5 3 5 0 -1 -2 -2 -4 -4 -5
-0 -0 -0 0 2 2 3 3 3 5 4 5 6 5 6 6 6 6 5 5 6 5 5 3 2 -1 -1 4 4 3 2 2 3 3 2 2 2 3 2 -0 -3 -3 -4 -5 -5
-1 0 0 1 0 2 3 3 3 3 5 6 5 5 5 5 6 7 8 8 6 4 4 2 1 1 2 3 3 2 0 2 0 1 3 2 3 -2 -3 -2 -4 -4 -4 -5 -5

GFSSW_850_temp_135.txt.gz
Temp
12 12 12 12 12 12 12 13 13 13 14 14 15 15 15 16 16 17 17 16 16 16 17 17 17 17 18 17 17 17 18 17 16 17 18 17 18 19 19 19 20 20 20 18 19
12 12 12 12 12 12 12 12 13 13 14 14 14 15 15 16 16 16 16 16 16 16 16 17 17 17 17 17 16 16 17 16 16 16 17 16 16 17 18 18 19 19 18 18 18
11 11 11 12 12 12 11 12 12 12 13 13 14 15 15 15 16 16 16 15 15 16 16 16 17 17 16 16 15 14 17 15 16 15 15 17 17 17 18 19 17 17 16 17 17
11 11 11 11 11 11 11 11 12 12 12 13 13 14 14 14 15 16 15 15 15 15 15 16 16 16 15 15 14 16 14 15 15 15 14 16 16 17 17 13 13 15 15 14 15
10 11 10 11 11 11 11 11 11 12 12 12 12 12 13 13 15 15 15 15 15 15 15 15 16 15 15 14 14 15 14 14 15 15 15 15 15 16 13 12 12 13 13 13 12
10 10 11 11 11 11 10 10 10 11 11 12 12 12 11 11 14 15 15 15 15 15 14 15 14 14 14 13 14 13 13 14 15 15 15 15 15 15 9 10 11 11 9 9 9
9 9 9 10 11 11 10 10 10 9 10 11 11 11 11 13 14 14 14 14 15 14 14 14 14 14 14 14 13 13 15 15 15 15 16 15 17 11 7 8 7 6 6 7 7
9 9 9 9 10 11 10 9 9 9 9 10 9 9 11 14 14 14 14 14 14 14 14 14 14 14 14 13 12 14 13 15 16 15 14 15 16 10 7 7 5 4 4 5 5
9 9 9 9 9 10 10 9 9 9 9 9 9 8 11 13 13 13 13 13 14 14 14 13 13 12 13 13 13 12 14 13 15 13 15 15 15 8 7 6 5 4 3 3 4
9 8 9 9 9 9 9 9 9 9 9 9 8 8 12 12 13 13 13 13 14 13 13 13 12 11 11 13 14 12 12 12 13 14 14 14 14 8 5 6 4 3 2 2 3
9 7 8 8 7 9 8 8 8 8 8 10 10 11 12 13 13 13 14 13 13 13 12 10 13 12 12 11 11 12 11 11 12 13 12 13 13 11 5 4 4 3 2 2 3
5 8 8 7 7 7 7 8 8 7 8 9 10 9 10 11 11 12 13 13 12 12 10 11 12 12 11 10 11 11 11 11 11 11 11 13 13 8 6 4 3 2 2 1 3
5 5 6 7 6 6 6 7 7 8 8 9 10 10 11 11 11 12 12 13 12 11 10 12 12 10 11 11 11 10 11 11 12 12 12 12 13 9 6 4 2 1 1 1 1
4 5 5 6 5 5 6 7 7 8 8 8 8 9 9 10 10 13 12 13 11 12 10 10 11 10 11 11 11 11 11 11 11 11 12 11 12 12 8 6 5 3 1 0 1
3 4 5 5 5 5 6 7 7 8 8 10 8 9 9 10 10 10 10 11 12 10 11 12 10 10 10 11 11 12 11 11 11 11 10 11 12 11 6 9 8 5 2 1 1
3 4 4 4 5 6 6 7 7 7 7 10 9 9 9 9 10 10 10 11 11 10 10 11 11 11 12 11 11 11 11 9 8 10 10 12 12 13 10 10 7 4 2 0 0
2 3 4 4 5 6 6 6 6 6 9 9 9 9 9 9 10 10 10 9 10 9 9 10 10 11 11 11 11 11 11 11 11 10 11 9 9 12 10 7 7 6 2 -0 -0
2 3 4 4 5 6 6 5 5 8 7 10 10 8 9 10 10 10 9 10 9 9 8 10 11 10 10 12 11 9 11 10 9 10 11 8 10 12 6 4 3 2 0 -1 -1
2 3 4 4 5 5 5 6 8 7 8 9 10 9 9 10 10 10 9 9 10 10 11 9 10 10 10 10 11 9 10 9 10 8 8 11 10 8 4 4 2 2 -0 -1 -1
2 2 3 4 4 5 5 6 7 7 9 9 10 10 9 9 10 10 9 10 10 9 10 9 10 9 9 10 9 10 10 9 8 9 9 11 10 10 6 6 4 2 1 -2 -1
2 2 4 4 4 4 4 6 7 8 8 9 9 9 9 9 10 9 9 10 9 8 9 9 10 9 9 10 10 9 9 8 9 8 9 9 9 5 5 6 5 3 0 -2 -2
1 2 3 3 3 2 4 6 7 7 8 8 9 9 9 9 8 9 9 9 7 8 9 9 8 8 9 7 7 8 9 9 9 9 8 7 8 4 3 2 3 2 -1 -2 -2
1 1 2 3 3 2 4 4 6 6 7 7 8 9 9 9 9 9 8 5 6 7 8 8 8 8 8 8 7 8 7 7 6 6 8 7 8 2 1 2 1 1 -1 -3 -3
0 1 1 2 2 4 4 5 5 6 6 7 8 8 8 8 8 8 7 6 6 6 7 8 7 7 10 9 8 7 7 6 8 7 8 8 7 7 6 4 2 -1 -2 -4 -4
0 0 1 1 2 2 5 5 5 5 6 6 7 7 7 7 7 7 6 6 6 6 5 7 8 3 5 6 7 7 7 7 5 8 7 8 7 7 6 5 3 -0 -4 -5 -4
-0 0 -1 0 3 2 3 4 5 5 5 5 6 6 6 6 7 6 6 6 7 5 5 4 5 2 1 5 5 5 5 6 4 6 5 4 5 7 5 1 -0 -2 -4 -4 -5
-1 1 2 1 2 2 3 4 4 5 4 6 6 6 5 6 6 6 7 7 7 6 5 4 3 4 6 5 5 5 5 4 5 5 6 5 7 5 3 1 -1 -3 -4 -4 -5